     2              OBSERVATION DATA    GPS                 RINEX VERSION / TYPE
ASHTORIN MIT 05 - JUN - 97 21:40                            PGM / RUN BY / DATE
                                                            COMMENT
--> THIS IS THE START OF A NEW SITE <---                    COMMENT
--> THIS IS THE START OF A NEW SITE <---                    COMMENT
Original Marker Name: GS04                                  COMMENT
Campaign Name: China Lake May 1997                          COMMENT
4-Character Station Name: GS04                              COMMENT
6-Character Antenna Code: ASHGD3                            COMMENT
Vertical Measurement Point: TGP                             COMMENT
Vertical Offset to Rinex Ref. Point: 0.0640                 COMMENT
Radial Measurement Point: RRP                               COMMENT
Radial Offset to Rinex Ref. Point: 0.0000                   COMMENT
Antenna Height from Field Measurement: 0.2280 m             COMMENT
Additional Antenna Identification Info.:                    COMMENT
The Whopper (700718AB)                                      COMMENT
Original XYZ: -2435897.9000 -4555584.6800 3731282.9400      COMMENT
New XYZ position is based on association with SCEC monument COMMENT
E1F4Q1Q7+0011. Position of that monument is believed to be  COMMENT
valid to within 1 m horizontally; vertical accuracy         COMMENT
should be no worse than 3-times this value.                 COMMENT
                                                            COMMENT
Revised Rinex header created by UCSD GPS archive for        COMMENT
GSAC on 02-Aug-2000 (2000:215) 16:01:04 GMT                 COMMENT
For assistance contact dagnew@ucsd.edu                      COMMENT
or anderson@python.ucsd.edu                                 COMMENT
                                                            COMMENT
BLM CA 065-94-66 GO04                                       MARKER NAME
gs04                                                        MARKER NUMBER
HEM US DEFENSE MAPPING AGENCY                               OBSERVER / AGENCY
414 ASHTECH Z-XII3 1G001C7                                  REC # / TYPE / VERS
784 ASHTECH GEODETIC III                                    ANT # / TYPE
 -2412136.1354 -4554466.9341  3747244.1780                  APPROX POSITION XYZ
        0.1640        0.0000        0.0000                  ANTENNA: DELTA H/E/N
     1     1     0                                          WAVELENGTH FACT L1/2
     7    L1    L2    C1    P1    P2    D1    D2            # / TYPES OF OBSERV
    30                                                      INTERVAL
  1997     5     1    15    23    0.000000                  TIME OF FIRST OBS
  1997     5     1    21    29   60.000000                  TIME OF LAST OBS
                                                            END OF HEADER
 97  5  1 15 23  0.0000000  0  9 19 18  2 31  7 27 26 10 15          0.001264813
     23557.40819     13546.63855  15376887.141           0.0005          0.0005
      -866.482        -675.181
     80483.89119     46680.45454  17481143.445           0.0005          0.0005
     -2950.954       -2299.445
    -49014.88019    -29088.07058  15584300.248           0.0005   15584307.7345
      1834.925        1429.812
     53713.09219     31342.80257  16977453.313           0.0005   16977457.4135
     -1984.665       -1546.492
   -110719.58319    -66776.56451  17496610.941           0.0005          0.0005
      4218.185        3286.897
    -42727.21019    -25414.92258  14403854.472           0.0005   14403863.0765
      1601.928        1248.255
   -102286.08318    -60630.15452  18849659.534           0.0005          0.0005
      3830.073        2984.472
     35566.27219     22107.57153  18502307.712           0.0005          0.0005
     -1099.760        -856.956
    -71407.40119    -35037.30352  19170216.907           0.0005          0.0005
      3144.439        2450.212
 97  5  1 15 23 30.0000000  3  2
GS04                                                        MARKER NAME
--> THIS IS THE START OF A NEW SITE <---                    COMMENT
 97  5  1 15 23 30.0000000  0  9 19 18  2 31  7 27 26 10 15          0.001250767
     49674.859 9     33700.31154  15381855.634           0.0004          0.0005
      -874.391        -681.344
    169073.899 9    115711.62257  17498006.884    17498006.8655   17498012.9925
     -2954.748       -2302.401
   -103947.898 9    -71893.00548  15573846.161    15573848.7575   15573854.3534
      1827.747        1424.218
    113443.431 9     77885.89647  16988817.596    16988819.4465   16988823.9134
     -1997.047       -1556.140
   -237215.033 9   -165344.88656  17472532.589           0.0005   17472546.4095
      4215.084        3284.481
    -90644.211 9    -62752.84448  14394737.521    14394739.9735   14394744.7794
      1592.888        1241.211
   -217105.647 8   -150099.49555  18827813.193           0.0004          0.0005
      3824.813        2980.374
     68681.101 9     47911.23255  18508608.371           0.0004          0.0005
     -1107.678        -863.126
   -165690.611 9   -108505.22356  19152280.271           0.0004          0.0005
      3141.335        2447.794
 97  5  1 15 24  0.0000000  0  9 19 18  2 31  7 27 26 10 15          0.000265725
     76039.530 9     54090.49054  21382724.242           0.0004          0.0005
      -884.042        -688.864
    257732.362 9    184796.10147  23510723.323    23510727.2534   23510733.4144
     -2959.368       -2306.001
   -158617.011 9   -114492.29348  21559292.756    21559294.7564   21559300.3374
      1819.607        1417.876
    173524.856 9    124702.57147  22996098.755    22996101.6164   22996106.1574
     -2010.838       -1566.887
   -363509.323 9   -263755.97046  23444354.877    23444355.9555   23444362.6774
      4210.405        3280.835
   -138230.421 9    -99833.00348  20381531.451    20381533.7554   20381538.6094
      1581.950        1232.688
   -331669.472 9   -239370.03355  24801861.852           0.0004   24801868.7615
      3818.032        2975.090
    102041.440 8     73906.24756  24510805.463           0.0005   24510814.2355
     -1117.581        -870.842
   -259796.263 8   -181834.14256  25130220.033           0.0004   25130230.5905
      3136.724        2444.200
 97  5  1 15 24 30.0000000  0  9 19 18  2 31  7 27 26 10 15          0.000251685
    102733.993 9     12711.29958  21387806.694           0.0005   21387811.1725
      -894.896        -697.322
    346603.700 9    254046.45657  23527636.005    23527638.9815   23527645.0695
     -2964.604       -2310.081
   -213066.869 9   -156920.73758  21548930.815    21548933.3245   21548938.9185
      1811.186        1411.314
    234079.986 9    171888.36157  23007619.821    23007624.9265   23007629.4655
     -2025.440       -1578.265
   -489722.903 9   -362104.17157  23420338.316    23420338.3105   23420345.1515
      4204.566        3276.285
   -185498.927 9   -136665.59958  20372538.057    20372538.9045   20372543.7365
      1570.205        1223.536
   -446078.470 9   -328519.88345  24780099.461    24780091.3965   24780097.9694
      3809.856        2968.719
    135741.122 8    100165.71556  24517216.303    24517220.4165   24517228.2255
     -1128.386        -879.262
   -353805.820 8   -255088.20346  25112323.732    25112333.2775   25112341.4094
      3131.324        2439.993
 97  5  1 15 25  0.0000000  0  9 19 18  2 31  7 27 26 10 15          0.000237678
    129768.542 9     33777.17948  21392949.982    21392951.2535   21392956.3854
      -907.456        -707.109
    435634.102 9    323420.74747  23544577.919    23544580.8604   23544587.0354
     -2970.727       -2314.852
   -267263.874 9   -199152.15748  21538617.590    21538620.0004   21538625.5774
      1801.729        1403.945
    295072.829 9    219415.23447  23019227.680    23019231.4714   23019236.0124
     -2040.914       -1590.322
   -615757.054 9   -460312.55346  23396353.327    23396354.7174   23396361.6384
      4197.579        3270.841
   -232423.761 9   -173230.40148  20363607.727    20363609.4534   20363614.2724
      1557.994        1214.021
   -560241.587 8   -417478.11155  24758370.509    24758367.7354   24758374.3345
      3800.845        2961.697
    169769.438 8    126681.26146  24523693.141    24523696.3155   24523703.7314
     -1140.201        -888.468
   -447647.920 8   -328211.85556  25094469.193    25094475.9424   25094483.5915
      3124.730        2434.854
 97  5  1 15 25 30.0000000  0  9 19 18  2 31  7 27 26 10 15          0.000223715
    157174.414 9     55132.39848  21398164.584    21398166.4494   21398171.5914
      -919.957        -716.850
    524836.279 9    392928.89247  23561552.710    23561555.5334   23561561.7274
     -2976.459       -2319.319
   -321179.747 9   -241164.50548  21528357.807    21528360.1694   21528365.7544
      1792.417        1396.688
    356530.064 9    267303.96447  23030923.200    23030926.4284   23030930.9674
     -2056.611       -1602.554
   -741585.005 9   -558360.25947  23372408.544    23372410.4884   23372417.3384
      4190.717        3265.494
   -278991.118 9   -209516.64448  20354745.916    20354748.0174   20354752.8294
      1546.126        1204.774
   -674131.397 8   -506223.40145  24736695.923    24736695.8915   24736701.8864
      3791.527        2954.437
    204139.345 8    153462.97446  24530233.910    24530236.7684   24530243.9874
     -1151.474        -897.252
   -541299.936 8   -401187.35246  25076649.830    25076654.5295   25076661.6924
      3118.346        2429.880
 97  5  1 15 26  0.0000000  0  9 19 18  2 31  7 27 26 10 15          0.000209799
    184953.235 9     76778.23048  21403450.477    21403452.5614   21403457.7214
      -931.644        -725.956
    614211.757 9    462572.07346  23578560.363    23578563.1884   23578569.3504
     -2981.635       -2323.352
   -374821.986 9   -282963.63448  21518150.076    21518152.4074   21518157.9854
      1783.887        1390.042
    418452.427 9    315555.12947  23042706.761    23042709.8694   23042714.4424
     -2071.291       -1613.993
   -867210.767 9   -656250.41747  23348502.585    23348504.7074   23348511.5804
      4184.623        3260.745
   -325200.558 9   -245523.99348  20345952.507    20345954.7024   20345959.5174
      1534.883        1196.013
   -787750.166 9   -594757.48045  24715073.797    24715074.6494   24715080.8404
      3783.340        2948.057
    238838.198 8    180501.00446  24536837.155    24536839.7664   24536846.8454
     -1161.457        -905.031
   -634757.132 8   -474011.05246  25058866.090    25058870.0324   25058877.4224
      3112.476        2425.306
 97  5  1 15 26 30.0000000  0  9 19 18  2 31  7 27 26 10 15          0.000195927
    213104.668 9     98714.40548  21408807.382    21408809.6264   21408814.7734
      -944.985        -736.352
    703766.997 9    532355.33146  23595602.415    23595605.0414   23595611.1864
     -2988.589       -2328.771
   -428182.906 9   -324543.55348  21507995.889    21507998.1864   21508003.7614
      1773.686        1382.093
    480833.924 9    364164.06547  23054577.782    23054580.7124   23054585.3054
     -2087.295       -1626.464
   -992627.037 9   -753977.33347  23324636.537    23324638.8164   23324645.6184
      4176.611        3254.502
   -371062.256 9   -281260.37448  20337225.246    20337227.5334   20337232.3594
      1522.603        1186.444
   -901101.770 9   -683083.38646  24693502.981    24693504.4564   24693510.5924
      3773.755        2940.588
    273854.135 8    207786.11146  24543500.732    24543502.9684   24543510.0774
     -1172.766        -913.844
   -728019.398 8   -546682.86346  25041119.441    25041123.0124   25041130.2654
      3105.181        2419.622
 97  5  1 15 27  0.0000000  0  9 19 18  2 31  7 27 26 10 15          0.000182107
    241649.356 9    120957.01248  21414239.145    21414241.5454   21414246.6714
      -957.610        -746.190
    793528.551 9    602299.34146  23612683.580    23612686.1474   23612692.2834
     -2995.207       -2333.928
   -481238.552 9   -365885.60448  21497899.690    21497902.0354   21497907.6454
      1763.497        1374.154
    543689.216 9    413142.17747  23066538.772    23066541.7004   23066546.3074
     -2102.752       -1638.508
  -1117812.619 9   -851524.51547  23300814.426    23300816.8004   23300823.5574
      4169.366        3248.857
   -416548.302 9   -316704.04048  20328569.379    20328571.8664   20328576.6674
      1509.746        1176.425
  -1014180.606 9   -771196.75746  24671984.439    24671986.3714   24671992.3044
      3765.118        2933.858
    309205.650 8    235332.70346  24550227.902    24550230.1374   24550237.1334
     -1183.747        -922.400
   -821063.032 8   -619184.31646  25023414.063    25023417.4404   25023424.6414
      3097.928        2413.970
 97  5  1 15 27 30.0000000  0  9 19 18  2 31  7 27 26 10 15          0.000168326
    270564.318 9    143488.14248  21419741.405    21419743.9064   21419749.0404
      -969.899        -755.765
    883490.804 9    672399.76746  23629802.927    23629805.4554   23629811.6144
     -3002.127       -2339.320
   -533982.663 9   -406984.89048  21487862.712    21487865.1114   21487870.7814
      1752.965        1365.947
    607010.557 9    462483.46147  23078588.544    23078591.3524   23078596.0314
     -2118.421       -1650.718
  -1242775.664 9   -948898.25847  23277034.700    23277037.1304   23277043.9044
      4161.821        3242.977
   -461622.811 9   -351827.02648  20319991.943    20319994.5154   20319999.2964
      1495.475        1165.305
  -1126992.280 9   -859101.94246  24650516.880    24650519.1004   24650524.8574
      3756.026        2926.774
    344891.388 8    263139.73146  24557018.757    24557020.9394   24557027.9544
     -1195.113        -931.257
   -913881.981 8   -691510.69946  25005751.279    25005754.6094   25005761.6934
      3090.210        2407.956
 97  5  1 15 28  0.0000000  0  9 19 18  2 31  7 27 26 10 15          0.000154577
    299840.382 9    166300.65348  21425312.367    21425314.9674   21425320.1104
      -981.848        -765.076
    973655.466 9    742657.86846  23646960.719    23646963.2484   23646969.4074
     -3009.023       -2344.693
   -586407.587 9   -447835.46848  21477886.581    21477889.0044   21477894.6764
      1741.926        1357.345
    670789.375 9    512181.22647  23090725.408    23090728.1024   23090732.8064
     -2133.680       -1662.608
  -1367518.624 9  -1046100.52447  23253296.806    23253299.3304   23253306.1334
      4154.252        3237.079
   -506269.245 9   -386616.44948  20311496.103    20311498.6114   20311503.3854
      1480.987        1154.016
  -1239531.475 9   -946794.81046  24629101.062    24629103.5844   24629109.4044
      3746.351        2919.235
    380916.585 8    291211.27946  24563874.125    24563876.3714   24563883.4884
     -1206.576        -940.189
  -1006469.524 8   -763656.74045  24988132.611    24988135.7824   24988142.8564
      3082.343        2401.826
 97  5  1 15 28 30.0000000  0  9 19 18  2 31  7 27 26 10 15          0.000140864
    329464.231 9    189384.16648  21430949.550    21430952.2144   21430957.3654
      -992.398        -773.297
   1064020.903 9    813072.47146  23664156.656    23664159.3534   23664165.4774
     -3014.753       -2349.158
   -638504.300 9   -488430.29548  21467972.898    21467975.3304   21467981.0074
      1731.874        1349.512
    735020.529 9    562231.44947  23102948.328    23102950.9834   23102955.6604
     -2147.776       -1673.592
  -1492035.016 9  -1143126.24547  23229601.988    23229604.6424   23229611.4524
      4147.497        3231.816
   -550487.103 9   -421071.91548  20303081.742    20303084.2604   20303089.0124
      1467.326        1143.371
  -1351778.890 9  -1034260.32946  24607741.032    24607743.6044   24607749.4554
      3737.090        2912.018
    417279.813 8    319546.22646  24570793.962    24570795.9914   24570803.2834
     -1217.124        -948.408
  -1098826.051 8   -835622.82445  24970558.139    24970560.8924   24970567.9724
      3075.275        2396.318
 97  5  1 15 29  0.0000000  0  9 19 18  2 31  7 27 26 10 15          0.000127171
    359403.155 9    212713.18748  21436646.747    21436649.4674   21436654.5754
     -1004.262        -782.542
   1154553.085 9    883616.96147  23681384.481    23681387.1584   23681393.2204
     -3021.425       -2354.357
   -690293.738 9   -528785.68648  21458117.815    21458120.1864   21458125.7974
      1719.969        1340.236
    799679.509 9    612615.03547  23115252.766    23115255.2734   23115259.8934
     -2163.691       -1685.993
  -1616352.854 9  -1239997.23247  23205945.079    23205947.7784   23205954.4334
      4139.502        3225.586
   -594288.273 9   -455202.70048  20294746.782    20294749.2404   20294753.8954
      1452.060        1131.475
  -1463737.410 9  -1121500.75946  24586436.011    24586438.6754   24586444.3284
      3725.736        2903.171
    453961.07918    348128.89855  24577775.102    24577776.7845   24577784.1805
     -1229.026        -957.683
  -1190965.216 8   -907419.52546  24953024.704    24953027.4684   24953034.3624
      3066.493        2389.475
 97  5  1 15 29 30.0000000  0  9 19 18  2 31  7 27 26 10 15          0.000113530
    389689.202 9    236312.70148  21442410.125    21442412.7874   21442417.8384
     -1015.677        -791.437
   1245274.811 9    954309.15846  23698648.342    23698651.0364   23698657.0174
     -3027.341       -2358.967
   -741739.761 9   -568873.49348  21448328.057    21448330.3684   21448335.9354
      1709.196        1331.841
    864808.958 9    663365.22647  23127646.649    23127649.0954   23127653.6814
     -2178.864       -1697.816
  -1740431.527 9  -1336681.88047  23182333.725    23182336.3954   23182342.9464
      4131.795        3219.581
   -637657.129 9   -488996.59748  20286493.972    20286496.4584   20286501.0754
      1438.792        1121.137
  -1575351.428 9  -1208472.68046  24565196.539    24565199.3714   24565204.8334
      3714.605        2894.497
    490987.41918    376980.38356  24584820.674    24584822.7595   24584829.6505
     -1239.801        -966.079
  -1282847.727 8   -979016.20345  24935540.231    24935542.7964   24935549.6274
      3058.394        2383.164
 97  5  1 15 30  0.0000000  0  9 19 18  2 31  7 27 26 10 15          0.000099933
    420321.506 9    260182.01848  21448239.342    21448242.0054   21448246.9974
     -1026.641        -799.980
   1336167.081 9   1025134.25346  23715944.664    23715947.3684   23715953.3564
     -3032.306       -2362.836
   -792872.902 9   -608717.48748  21438597.804    21438600.0964   21438605.6034
      1699.493        1324.280
    930378.353 9    714458.21647  23140124.156    23140126.5814   23140131.1254
     -2192.739       -1708.628
  -1864288.555 9  -1433193.81547  23158764.604    23158767.1984   23158773.7364
      4125.008        3214.292
   -680646.449 9   -522494.76748  20278313.419    20278315.9034   20278320.4774
      1426.897        1111.868
  -1686644.875 9  -1295194.84346  24544018.194    24544021.0484   24544026.3504
      3704.582        2886.687
    528319.297 8    406070.16746  24591924.774    24591926.8634   24591933.4634
     -1249.153        -973.366
  -1374497.842 8  -1050431.82645  24918099.936    24918102.4264   24918109.2144
      3051.364        2377.686
 97  5  1 15 30 30.0000000  0  9 19 18  2 31  7 27 26 10 15          0.000086390
    451320.552 9    284337.11548  21454138.286    21454140.9764   21454145.9354
     -1039.743        -810.189
   1427234.772 9   1096096.02146  23733274.488    23733276.9934   23733283.0174
     -3038.539       -2367.693
   -843684.119 9   -648310.62748  21428928.789    21428931.0634   21428936.5474
      1688.182        1315.466
    996397.715 9    765901.85047  23152687.382    23152689.7174   23152694.2434
     -2208.385       -1720.819
  -1987903.282 9  -1529516.94647  23135241.502    23135244.1394   23135250.6594
      4116.150        3207.390
   -723250.142 9   -555692.44648  20270206.228    20270208.7054   20270213.2614
      1413.500        1101.428
  -1797603.625 9  -1381656.18646  24522903.542    24522906.2404   24522911.5934
      3692.929        2877.607
    565961.264 8    435401.54046  24599087.781    24599089.7934   24599096.6014
     -1260.093        -981.891
  -1465901.254 8  -1121655.18345  24900706.654    24900709.0324   24900715.5584
      3042.342        2370.656
 97  5  1 15 31  0.0000000  0  9 19 18  2 31  7 27 26 10 15          0.000072899
    482698.558 9    308787.49948  21460109.358    21460112.0484   21460117.0034
     -1052.673        -820.265
   1518462.319 9   1167182.36146  23750634.634    23750637.0734   23750643.1434
     -3043.844       -2371.826
   -894179.021 9   -687657.29148  21419319.978    21419322.2574   21419327.7004
      1677.719        1307.313
   1062864.347 9    817694.00247  23165335.583    23165337.9244   23165342.4554
     -2223.323       -1732.459
  -2111276.441 9  -1625651.84347  23111764.540    23111767.0824   23111773.5474
      4108.114        3201.128
   -765481.583 9   -588600.05848  20262169.874    20262172.3384   20262176.9064
      1401.404        1092.003
  -1908241.582 9  -1467867.56246  24501849.830    24501852.5424   24501857.9214
      3682.416        2869.415
    603908.522 8    464970.79246  24606308.919    24606310.9154   24606317.7804
     -1270.207        -989.772
  -1557056.522 8  -1192685.21745  24883360.661    24883362.7664   24883369.2864
      3034.146        2364.270
 97  5  1 15 31 30.0000000  0  9 19 18  2 31  7 27 26 10 15          0.000059475
    514490.445 9    333560.38948  21466159.164    21466161.8694   21466166.8134
     -1066.395        -830.957
   1609877.121 9   1238414.61446  23768030.380    23768032.8454   23768038.7974
     -3050.068       -2376.676
   -944349.495 9   -726751.15448  21409772.881    21409775.1694   21409780.5764
      1667.386        1299.262
   1129788.172 9    869842.41747  23178070.810    23178073.0994   23178077.6624
     -2237.833       -1743.766
  -2234383.561 9  -1721579.43747  23088338.033    23088340.5774   23088347.0074
      4099.599        3194.493
   -807329.618 9   -621208.90948  20254206.446    20254208.9224   20254213.4924
      1388.813        1082.192
  -2018544.794 9  -1553818.10146  24480859.698    24480862.5624   24480868.0014
      3671.665        2861.038
    642177.617 8    494790.82446  24613591.483    24613593.3624   24613600.2714
     -1280.608        -997.876
  -1647945.626 8  -1263507.81545  24866064.870    24866067.1954   24866073.4554
      3025.605        2357.614
 97  5  1 15 32  0.0000000  0  9 19 18  2 31  7 27 26 10 15          0.000046111
    546690.628 9    358651.43448  21472286.694    21472289.3704   21472294.3344
     -1079.219        -840.950
   1701470.730 9   1309786.19546  23785460.043    23785462.5464   23785468.6054
     -3055.353       -2380.794
   -994210.299 9   -765603.71248  21400284.715    21400287.0114   21400292.3934
      1657.642        1291.669
   1197146.984 9    922329.77447  23190888.735    23190891.1154   23190895.6034
     -2252.041       -1754.837
  -2357237.965 9  -1817310.09647  23064959.612    23064962.1584   23064968.5574
      4091.430        3188.127
   -848795.122 9   -653519.68848  20246315.752    20246318.3024   20246322.8844
      1376.226        1072.384
  -2128521.249 9  -1639514.01946  24459931.917    24459934.7704   24459940.2194
      3660.942        2852.682
    680760.188 8    524855.12546  24620933.506    24620935.3944   24620942.3574
     -1290.872       -1005.874
  -1738579.968 8  -1334131.92345  24848817.852    24848819.9654   24848826.3414
      3017.495        2351.295
 97  5  1 15 32 30.0000000  0  9 19 18  2 31  7 27 26 10 15          0.000032805
    579271.110 9    384038.81748  21478486.596    21478489.2574   21478494.2324
     -1092.956        -851.654
   1793224.264 9   1381282.39746  23802920.093    23802922.7194   23802928.7574
     -3061.817       -2385.831
  -1043789.590 9   -804236.91248  21390850.067    21390852.3644   21390857.7344
      1647.515        1283.778
   1264933.340 9    975150.28447  23203788.064    23203790.4594   23203794.9274
     -2267.256       -1766.693
  -2479839.745 9  -1912843.92647  23041629.298    23041631.7984   23041638.1604
      4081.994        3180.774
   -889882.907 9   -685536.14148  20238497.028    20238499.5814   20238504.1454
      1362.717        1061.857
  -2238166.316 9  -1724951.71846  24439067.056    24439070.0054   24439075.4494
      3648.782        2843.207
    719657.880 8    555164.98246  24628335.560    24628337.3994   24628344.3794
     -1302.498       -1014.934
  -1828966.364 8  -1404562.85245  24831617.548    24831619.9934   24831626.2394
      3008.046        2343.932
 97  5  1 15 33  0.0000000  0  9 19 18  2 31  7 27 26 10 15          0.000019566
    612246.846 9    409734.18348  21484761.704    21484764.3734   21484769.3304
     -1105.697        -861.582
   1885161.906 9   1452922.07646  23820415.282    23820417.9874   23820423.9704
     -3067.766       -2390.467
  -1093087.258 9   -842650.67148  21381469.033    21381471.3334   21381476.7144
      1638.632        1276.856
   1333155.215 9   1028310.15247  23216770.185    23216772.6664   23216777.1444
     -2281.207       -1777.564
  -2602184.152 9  -2008177.18947  23018347.867    23018350.4044   23018356.7344
      4074.019        3174.560
   -930574.717 9   -717244.04448  20230753.728    20230756.2064   20230760.7564
      1349.556        1051.602
  -2347469.143 9  -1810122.72946  24418267.403    24418270.4474   24418275.8544
      3637.774        2834.629
    758877.799 8    585725.92246  24635798.792    24635800.6804   24635807.6944
     -1312.589       -1022.797
  -1919087.576 8  -1474787.12345  24814467.979    24814470.3244   24814476.7334
      2999.679        2337.412
 97  5  1 15 33 30.0000000  0  9 19 18  2 31  7 27 26 10 15          0.000006374
    645585.625 9    435712.44548  21491105.801    21491108.5574   21491113.5104
     -1117.091        -870.461
   1977272.213 9   1524696.27546  23837943.250    23837946.0324   23837952.1324
     -3073.017       -2394.559
  -1142124.227 9   -880861.28648  21372137.608    21372139.9044   21372145.2654
      1630.155        1270.251
   1401788.191 9   1081790.36447  23229830.677    23229833.1104   23229837.6084
     -2294.611       -1788.009
  -2724295.100 9  -2103328.53847  22995110.925    22995113.4884   22995119.7874
      4066.516        3168.714
   -970868.090 9   -748641.47548  20223086.107    20223088.6484   20223093.1804
      1336.411        1041.359
  -2456453.740 9  -1895045.76246  24397528.375    24397531.3684   24397536.7774
      3627.645        2826.736
    798393.238 9    616517.13746  24643318.380    24643320.2964   24643327.2764
     -1321.862       -1030.022
  -2008962.873 8  -1544819.76745  24797365.192    24797367.6104   24797374.0554
      2991.830        2331.296
 97  5  1 15 34  0.0000000  0  9 19 18  2 31  7 27 26 10 15         -0.000006768
    679282.267 9    461969.55548  21497518.131    21497520.8494   21497525.7944
     -1129.348        -880.011
   2069555.126 9   1596604.97246  23855504.238    23855506.8944   23855513.0774
     -3079.200       -2399.377
  -1190875.704 9   -918849.44248  21362860.510    21362862.8314   21362868.1774
      1619.924        1262.278
   1470848.461 9   1135603.53247  23242972.473    23242974.8784   23242979.3604
     -2309.418       -1799.546
  -2846150.657 9  -2198280.88547  22971922.648    22971925.1714   22971931.4824
      4057.138        3161.406
  -1010738.440 9   -779709.28248  20215499.032    20215501.5874   20215506.1014
      1321.448        1029.700
  -2565108.686 9  -1979711.93846  24376852.018    24376855.1164   24376860.4244
      3616.001        2817.663
    838212.813 9    647545.33846  24650895.865    24650897.6554   24650904.6964
     -1332.631       -1038.414
  -2098573.953 8  -1614646.54745  24780312.737    24780315.1484   24780321.5964
      2982.170        2323.769
 97  5  1 15 34 29.9990000  0  9 19 18  2 31  7 27 26 10 15         -0.000019851
    713357.414 9    488521.60348  21504002.372    21504005.1694   21504010.0874
     -1142.013        -889.880
   2162033.801 9   1668666.21846  23873102.441    23873105.0234   23873111.2394
     -3085.736       -2404.470
  -1239300.987 9   -956583.42249  21353645.493    21353647.8254   21353653.1504
      1608.747        1253.569
   1540352.694 9   1189762.63847  23256198.765    23256201.1134   23256205.5824
     -2323.964       -1810.881
  -2967719.419 9  -2293009.74347  22948788.964    22948791.4094   22948797.7304
      4048.166        3154.415
  -1050146.279 9   -810416.68948  20208000.053    20208002.5344   20208007.0544
      1306.179        1017.802
  -2673407.121 9  -2064100.30646  24356243.520    24356246.6004   24356251.9104
      3604.689        2808.849
    878356.518 9    678826.10546  24658534.937    24658536.7454   24658543.7814
     -1343.261       -1046.697
  -2187880.925 8  -1684236.33945  24763318.300    24763320.5234   24763327.0494
      2972.169        2315.976
 97  5  1 15 34 59.9990000  0  9 19 18  2 31  7 27 26 10 15         -0.000032914
    747776.410 9    515341.59148  21510552.143    21510554.9444   21510559.8694
     -1152.775        -898.266
   2254667.324 9   1740848.12746  23890730.019    23890732.6864   23890738.9144
     -3090.004       -2407.795
  -1287411.769 9   -994072.33249  21344490.298    21344492.6704   21344497.9824
      1598.434        1245.533
   1610262.908 9   1244238.09247  23269502.390    23269504.6284   23269509.1634
     -2337.098       -1821.115
  -3089056.935 9  -2387558.43147  22925699.206    22925701.6774   22925707.9964
      4040.535        3148.469
  -1089118.995 9   -840785.04348  20200583.711    20200586.2594   20200590.7844
      1291.858        1006.643
  -2781410.805 9  -2148258.99646  24335691.103    24335694.2384   24335699.4714
      3595.267        2801.507
    918779.709 9    710324.66446  24666227.221    24666229.0834   24666236.0814
     -1352.072       -1053.562
  -2276927.144 8  -1753623.00345  24746373.517    24746375.5714   24746382.0264
      2963.937        2309.561
 97  5  1 15 35 29.9990000  0  9 19 18  2 31  7 27 26 10 15         -0.000045943
    782543.980 9    542433.19448  21517168.250    21517171.0144   21517175.9644
     -1164.613        -907.491
   2347451.921 9   1813147.74846  23908386.379    23908389.0914   23908395.3134
     -3095.208       -2411.850
  -1335179.465 9  -1031293.90249  21335400.392    21335402.7724   21335408.1074
      1586.458        1236.201
   1680605.677 9   1299050.61047  23282888.235    23282890.4554   23282894.9774
     -2351.977       -1832.709
  -3210122.844 9  -2481895.46547  22902661.056    22902663.5754   22902669.9134
      4030.969        3141.015
  -1127634.603 9   -870797.20648  20193254.347    20193256.9804   20193261.5044
      1276.403         994.600
  -2889090.799 9  -2232165.45946  24315200.349    24315203.4134   24315208.6484
      3583.871        2792.627
    959501.009 9    742055.50846  24673976.228    24673978.1384   24673985.1284
     -1362.128       -1061.398
  -2365689.437 8  -1822788.36845  24729482.393    24729484.5694   24729491.1974
      2954.062        2301.866
 97  5  1 15 35 59.9990000  0  9 19 18  2 31  7 27 26 10 15         -0.000058943
    817647.809 9    569786.81448  21523848.234    21523851.0724   21523856.0004
     -1175.580        -916.036
   2440372.597 9   1885553.41246  23926068.594    23926071.3634   23926077.6354
     -3099.519       -2415.210
  -1382610.566 9  -1068253.18949  21326374.507    21326376.9274   21326382.2954
      1575.881        1227.959
   1751368.191 9   1354190.19247  23296353.906    23296356.1444   23296360.6974
     -2365.406       -1843.174
  -3330925.391 9  -2576027.27747  22879673.021    22879675.5924   22879681.9584
      4022.720        3134.587
  -1165712.765 9   -900468.50548  20186008.309    20186010.9724   20186015.4984
      1262.406         983.693
  -2996446.049 9  -2315818.87746  24294771.269    24294774.3964   24294779.6074
      3573.384        2784.455
   1000499.325 9    774002.21546  24681777.917    24681779.9114   24681786.9434
     -1370.973       -1068.291
  -2454172.609 8  -1891736.32445  24712644.709    24712646.7484   24712653.3054
      2945.086        2294.872
 97  5  1 15 36 29.9990000  0  9 19 18  2 31  7 27 26 10 15         -0.000071913
    853097.709 9    597410.11048  21530594.140    21530596.9774   21530601.9114
     -1188.123        -925.810
   2533433.814 9   1958068.57146  23943777.542    23943780.3834   23943786.6894
     -3104.860       -2419.371
  -1429718.206 9  -1104960.43249  21317410.229    21317412.6594   21317418.0094
      1564.397        1219.011
   1822542.162 9   1409650.39247  23309897.780    23309900.1274   23309904.6904
     -2380.012       -1854.555
  -3451479.170 9  -2669965.24647  22856732.315    22856734.9574   22856741.3334
      4013.695        3127.555
  -1203370.942 9   -929812.53948  20178842.224    20178844.8854   20178849.3934
      1247.888         972.380
  -3103483.288 9  -2399224.49246  24274402.719    24274405.8494   24274411.1634
      3562.141        2775.694
   1041764.611 9    806156.94646  24689630.431    24689632.4934   24689639.4984
     -1380.454       -1075.678
  -2542385.077 8  -1960473.24845  24695857.996    24695860.3884   24695866.7654
      2935.397        2287.322
 97  5  1 15 36 59.9990000  0  9 19 18  2 31  7 27 26 10 15         -0.000084827
    888926.216 9    625328.41148  21537412.080    21537414.9544   21537419.8784
     -1201.461        -936.203
   2626656.620 9   2030709.65646  23961517.461    23961520.1124   23961526.3994
     -3110.987       -2424.146
  -1476495.120 9  -1141409.96748  21308508.853    21308511.3094   21308516.6694
      1553.226        1210.306
   1894160.005 9   1465456.45447  23323526.041    23323528.5434   23323533.1294
     -2395.361       -1866.515
  -3571754.777 9  -2763686.46047  22833844.607    22833847.2644   22833853.6594
      4003.602        3119.690
  -1240598.632 9   -958821.12948  20171758.061    20171760.7284   20171765.2184
      1233.051         960.819
  -3210177.334 9  -2482362.69246  24254099.455    24254102.6564   24254107.9754
      3549.609        2765.929
   1083309.039 9    838529.19246  24697536.346    24697538.2414   24697545.1874
     -1390.216       -1083.285
  -2630303.122 8  -2028980.82045  24679127.566    24679130.1684   24679136.5244
      2924.724        2279.006
 97  5  1 15 37 29.9990000  0  9 19 18  2 31  7 27 26 10 15         -0.000097685
    925131.101 9    653539.99248  21544301.626    21544304.5264   21544309.4334
     -1213.492        -945.578
   2720039.601 9   2103475.55346  23979287.784    23979290.3714   23979296.6434
     -3115.825       -2427.916
  -1522973.232 9  -1177626.67148  21299664.390    21299666.8134   21299672.2024
      1544.023        1203.135
   1966195.683 9   1521588.12647  23337234.016    23337236.5184   23337241.0804
     -2408.050       -1876.403
  -3691765.175 9  -2857201.01947  22811007.323    22811010.0364   22811016.4054
      3995.932        3113.713
  -1277420.721 9   -987513.67448  20164751.059    20164753.7444   20164758.2014
      1220.537         951.068
  -3316518.748 9  -2565226.10946  24233863.344    24233866.5324   24233871.8464
      3538.674        2757.408
   1125117.641 9    871107.28946  24705492.197    24705494.1874   24705501.1094
     -1398.163       -1089.478
  -2717930.512 8  -2097261.83145  24662452.455    24662455.2784   24662461.7464
      2915.794        2272.047
 97  5  1 15 37 59.9990000  0  9 19 18  2 31  7 27 26 10 15         -0.000110488
    961727.779 9    682056.87348  21551265.683    21551268.6714   21551273.5824
     -1226.197        -955.478
   2813594.692 9   2176375.54146  23997090.719    23997093.3714   23997099.5994
     -3120.947       -2431.907
  -1569161.092 9  -1213617.20048  21290875.076    21290877.5144   21290882.9344
      1535.249        1196.298
   2038623.050 9   1578025.01047  23351016.561    23351019.0544   23351023.5924
     -2420.508       -1886.110
  -3811520.353 9  -2950516.70447  22788218.589    22788221.3254   22788227.6844
      3987.733        3107.324
  -1313848.113 9  -1015898.65548  20157819.134    20157821.8884   20157826.3274
      1208.012         941.308
  -3422513.154 9  -2647819.13246  24213693.200    24213696.4984   24213701.7374
      3527.765        2748.908
   1167197.623 9    903896.84746  24713499.812    24713501.8514   24713508.7384
     -1407.201       -1096.520
  -2805267.729 8  -2165316.79145  24645832.871    24645835.6054   24645841.8224
      2906.715        2264.973
 97  5  1 15 38 29.9990000  0  9 19 18  2 31  7 27 26 10 15         -0.000123228
    998732.241 9    710891.50148  21558307.487    21558310.4384   21558315.3334
     -1239.900        -966.156
   2907309.451 9   2249399.96146  24014924.043    24014926.8274   24014932.9864
     -3126.054       -2435.886
  -1615059.758 9  -1249382.38748  21282140.778    21282143.2584   21282148.6864
      1525.299        1188.545
   2111448.025 9   1634771.69347  23364874.783    23364877.2484   23364881.8124
     -2433.963       -1896.595
  -3931004.532 9  -3043621.22347  22765481.421    22765484.2304   22765490.5424
      3978.284        3099.962
  -1349872.204 9  -1043969.38148  20150964.050    20150966.7214   20150971.1694
      1194.060         930.436
  -3528155.501 9  -2730137.82046  24193590.190    24193593.3614   24193598.6904
      3515.708        2739.513
   1209572.530 9    936916.21346  24721563.572    24721565.5994   24721572.4574
     -1417.157       -1104.278
  -2892305.029 8  -2233137.97145  24629270.174    24629272.9054   24629279.2584
      2896.333        2256.883
 97  5  1 15 38 59.9990000  0  9 19 18  2 31  7 27 26 10 15         -0.000135897
   1036110.453 9    740017.36648  21565420.349    21565423.3034   21565428.2274
     -1253.047        -976.400
   3001145.701 9   2322519.04246  24032780.557    24032783.3654   24032789.4574
     -3130.828       -2439.606
  -1660690.367 9  -1284938.69548  21273457.615    21273460.0504   21273465.4864
      1515.459        1180.877
   2184649.693 9   1691811.91747  23378804.562    23378807.0284   23378811.6434
     -2447.359       -1907.033
  -4050221.230 9  -3136517.31947  22742795.223    22742798.0434   22742804.3194
      3968.178        3092.087
  -1385494.955 9  -1071727.36748  20144185.272    20144187.9414   20144192.4004
      1179.346         918.971
  -3633460.331 9  -2812193.50546  24173551.189    24173554.4834   24173559.7954
      3503.329        2729.867
   1252224.332 9    970151.34346  24729680.031    24729681.9824   24729688.8584
     -1427.525       -1112.357
  -2979055.810 8  -2300735.98445  24612762.090    24612764.8834   24612770.9224
      2885.870        2248.730
 97  5  1 15 39 29.9990000  0  9 19 18  2 31  7 27 26 10 15         -0.000148539
   1073877.482 9    769446.20348  21572607.175    21572610.1274   21572615.0494
     -1264.365        -985.219
   3095122.155 9   2395747.38546  24050663.765    24050666.5674   24050672.6754
     -3133.822       -2441.939
  -1706013.688 9  -1320255.56448  21264832.840    21264835.3274   21264840.7314
      1506.353        1173.782
   2258252.052 9   1749164.36947  23392810.494    23392813.1994   23392817.8364
     -2459.331       -1916.362
  -4169132.089 9  -3229175.10747  22720167.263    22720170.0344   22720176.3064
      3959.558        3085.370
  -1420666.596 9  -1099133.84548  20137492.231    20137494.9954   20137499.4724
      1165.639         908.290
  -3738396.979 9  -2893962.30546  24153582.491    24153585.7514   24153590.9764
      3492.902        2721.742
   1295190.933 9   1003631.76946  24737856.347    24737858.2554   24737865.1144
     -1436.390       -1119.265
  -3065491.633 8  -2368088.48245  24596313.910    24596316.5764   24596322.8444
      2876.912        2241.750
 97  5  1 15 39 59.9990000  0  9 19 18  2 31  7 27 26 10 15         -0.000161144
   1112005.944 9    799156.67348  21579862.789    21579865.7404   21579870.6594
     -1277.156        -995.186
   3189202.175 9   2469056.41646  24068566.775    24068569.4444   24068575.5944
     -3137.786       -2445.028
  -1751038.478 9  -1355339.81248  21256264.936    21256267.4094   21256272.7964
      1495.622        1165.420
   2332255.158 9   1806829.09347  23406893.039    23406895.6244   23406900.1854
     -2473.954       -1927.756
  -4287745.321 9  -3321600.95047  22697595.955    22697598.7014   22697604.8904
      3948.458        3076.721
  -1455387.173 9  -1126188.83648  20130885.135    20130887.8994   20130892.3714
      1149.406         895.641
  -3842989.251 9  -2975462.75646  24133679.186    24133682.4494   24133687.6904
      3480.349        2711.960
   1338446.421 9   1037337.30546  24746087.524    24746089.5454   24746096.4284
     -1446.809       -1127.384
  -3151629.149 8  -2435208.60445  24579922.630    24579925.1614   24579931.2974
      2865.924        2233.188
 97  5  1 15 40 29.9990000  0  9 19 18  2 31  7 27 26 10 15         -0.000173710
   1150502.343 9    829153.84848  21587188.451    21587191.3624   21587196.2904
     -1289.415       -1004.739
   3283386.479 9   2542446.70046  24086489.719    24086492.2294   24086498.3294
     -3141.650       -2448.039
  -1795747.172 9  -1390177.74948  21247757.143    21247759.6374   21247765.0284
      1484.942        1157.098
   2406677.203 9   1864820.24846  23421054.968    23421057.6844   23421062.2174
     -2487.788       -1938.536
  -4406050.280 9  -3413786.62647  22675083.332    22675086.0254   22675092.1804
      3938.346        3068.841
  -1489628.340 9  -1152870.27248  20124369.254    20124372.0454   20124376.5224
      1133.266         883.064
  -3947219.287 9  -3056680.93946  24113844.729    24113848.1384   24113853.3634
      3468.087        2702.405
   1381975.886 9   1071256.32746  24754370.964    24754372.9604   24754379.8364
     -1455.346       -1134.036
  -3237451.980 8  -2502083.47345  24563591.116    24563593.5664   24563599.7834
      2855.347        2224.946
 97  5  1 15 40 59.9990000  0  9 19 18  2 31  7 27 26 10 15         -0.000186237
   1189357.505 9    859430.58348  21594582.272    21594585.2714   21594590.1984
     -1301.020       -1013.782
   3377692.215 9   2615931.61346  24104435.670    24104438.0874   24104444.2054
     -3145.615       -2451.129
  -1840154.626 9  -1424780.95448  21239306.711    21239309.1954   21239314.5674
      1475.399        1149.662
   2481498.837 9   1923122.77547  23435292.974    23435295.8004   23435300.3544
     -2500.399       -1948.363
  -4524059.064 9  -3505741.47647  22652626.982    22652629.6824   22652635.8414
      3928.945        3061.515
  -1523396.521 9  -1179183.14048  20117943.460    20117946.1824   20117950.6584
      1117.885         871.079
  -4051083.827 9  -3137614.32646  24094080.082    24094083.2814   24094088.5904
      3456.029        2693.010
   1425752.023 9   1105367.57046  24762701.240    24762703.2494   24762710.2634
     -1463.109       -1140.085
  -3322965.342 8  -2568717.21745  24547318.309    24547320.9224   24547327.0434
      2845.431        2217.219
 97  5  1 15 41 29.9990000  0  9 19 18  2 31  7 27 26 10 15         -0.000198718
   1228586.651 9    889998.72848  21602047.375    21602050.3424   21602055.2844
     -1313.741       -1023.694
   3472140.959 9   2689527.96746  24122408.563    24122411.1944   24122417.2854
     -3150.552       -2454.976
  -1884255.112 9  -1459144.96348  21230914.646    21230917.1444   21230922.5244
      1465.262        1141.763
   2556709.341 9   1981728.32947  23449604.871    23449607.8834   23449612.4464
     -2513.203       -1958.340
  -4641777.470 9  -3597470.08447  22630225.845    22630228.5954   22630234.7194
      3919.441        3054.110
  -1556697.056 9  -1205131.61048  20111606.593    20111609.3214   20111613.7944
      1102.791         859.318
  -4154563.572 9  -3218247.86646  24074388.433    24074391.6884   24074396.9574
      3443.264        2683.063
   1469773.004 9   1139669.58646  24771078.184    24771080.2584   24771087.2834
     -1471.202       -1146.391
  -3408158.312 8  -2635101.30845  24531106.615    24531109.2124   24531115.1104
      2834.621        2208.796
 97  5  1 15 41 59.9990000  0  9 19 18  2 31  7 27 26 10 15         -0.000211160
   1268170.710 9    920843.43748  21609579.968    21609582.9754   21609587.9184
     -1326.100       -1033.325
   3566709.745 9   2763217.85946  24140404.363    24140407.0524   24140413.0864
     -3154.966       -2458.415
  -1928095.113 9  -1493305.99548  21222572.169    21222574.6784   21222580.0634
      1456.452        1134.898
   2632270.697 9   2040607.27347  23463983.868    23463986.7314   23463991.3244
     -2525.128       -1967.632
  -4759233.140 9  -3688993.94747  22607874.714    22607877.5224   22607883.6014
      3910.026        3046.774
  -1589582.614 9  -1230756.72448  20105348.737    20105351.4104   20105355.8764
      1088.790         848.408
  -4257685.759 9  -3298602.79646  24054764.960    24054768.1704   24054773.4674
      3430.716        2673.285
   1514004.873 9   1174135.93446  24779495.235    24779497.3744   24779504.3674
     -1478.605       -1152.160
  -3493053.844 8  -2701253.62345  24514951.531    24514954.0974   24514960.0794
      2824.196        2200.672
 97  5  1 15 42 29.9990000  0  9 19 18  2 31  7 27 26 10 15         -0.000223541
   1308142.939 9    951990.60948  21617186.474    21617189.4814   21617194.4104
     -1338.979       -1043.360
   3661433.072 9   2837028.15746  24158429.516    24158432.3504   24158438.4474
     -3160.222       -2462.511
  -1971651.004 9  -1527245.64148  21214283.779    21214286.2584   21214291.6594
      1447.007        1127.538
   2708197.003 9   2099770.58146  23478432.219    23478435.0184   23478439.6494
     -2537.143       -1976.995
  -4876390.338 9  -3780285.23247  22585580.401    22585583.2394   22585589.3244
      3899.917        3038.896
  -1622037.685 9  -1256046.39048  20099172.718    20099175.4134   20099179.8954
      1074.592         837.344
  -4360420.115 9  -3378655.51546  24035215.202    24035218.4304   24035223.6924
      3417.824        2663.239
   1558477.016 9   1208789.50546  24787958.061    24787960.2004   24787967.1794
     -1486.742       -1158.500
  -3577620.133 8  -2767149.39945  24498859.216    24498861.6704   24498867.6604
      2813.217        2192.117
 97  5  1 15 42 59.9990000  0  9 19 18  2 31  7 27 26 10 15         -0.000235864
   1348484.481 9    983425.55848  21624863.241    21624866.2274   21624871.1884
     -1350.670       -1052.470
   3756295.721 9   2910947.02046  24176481.342    24176484.1614   24176490.3294
     -3163.940       -2465.408
  -2014938.566 9  -1560976.20448  21206046.373    21206048.9034   21206054.3214
      1438.466        1120.883
   2784481.756 9   2159213.20146  23492948.677    23492951.6094   23492956.2684
     -2548.832       -1986.103
  -4993244.780 9  -3871340.61447  22563343.785    22563346.5604   22563352.6374
      3890.188        3031.315
  -1654076.908 9  -1281012.02248  20093075.878    20093078.5724   20093083.0274
      1061.134         826.858
  -4462774.862 9  -3458412.43646  24015737.775    24015741.0204   24015746.2524
      3405.849        2653.908
   1603199.288 9   1243637.99246  24796468.404    24796470.5284   24796477.5634
     -1494.884       -1164.845
  -3661864.524 9  -2832794.29446  24482827.956    24482830.3804   24482836.3734
      2802.844        2184.034
 97  5  1 15 43 29.9990000  0  9 19 18  2 31  7 27 26 10 15         -0.000248134
   1389188.680 9   1015143.09648  21632608.903    21632611.9884   21632616.9464
     -1363.369       -1062.365
   3851265.001 9   2984948.97746  24194553.547    24194556.3004   24194562.4214
     -3167.654       -2468.302
  -2057953.356 9  -1594494.21548  21197860.956    21197863.4654   21197868.8644
      1428.824        1113.369
   2861131.194 9   2218939.99146  23507534.721    23507537.5404   23507542.1564
     -2561.848       -1996.245
  -5109796.736 9  -3962160.30047  22541164.589    22541167.4624   22541173.5384
      3879.397        3022.907
  -1685709.533 9  -1305660.82248  20087056.426    20087059.1104   20087063.5454
      1047.126         815.942
  -4564768.759 9  -3537888.18046  23996329.009    23996332.2714   23996337.4724
      3393.483        2644.272
   1648175.162 9   1278684.08746  24805027.030    24805029.2294   24805036.2594
     -1503.859       -1171.838
  -3745786.536 9  -2898188.02546  24466857.793    24466860.4274   24466866.4444
      2791.497        2175.192
 97  5  1 15 43 59.9990000  0  9 19 18  2 31  7 27 26 10 15         -0.000260353
   1430267.690 9   1047152.69348  21640426.003    21640429.1154   21640434.0714
     -1375.308       -1071.668
   3946338.530 9   3059032.14746  24212645.594    24212648.2544   24212654.4374
     -3170.735       -2470.703
  -2100681.453 9  -1627788.83248  21189730.016    21189732.5694   21189737.9624
      1419.286        1105.937
   2938178.709 9   2278976.96246  23522196.347    23522199.2814   23522203.9174
     -2574.727       -2006.281
  -5226020.500 9  -4052724.24247  22519047.906    22519050.7894   22519056.8664
      3868.835        3014.677
  -1716911.964 9  -1329974.40648  20081118.740    20081121.5064   20081125.9454
      1032.812         804.788
  -4666399.348 9  -3617080.83046  23976989.334    23976992.5964   23976997.7734
      3381.635        2635.040
   1693406.758 9   1313929.45346  24813634.393    24813636.5494   24813643.5774
     -1511.666       -1177.922
  -3829371.788 8  -2963319.35146  24450952.081    24450954.6984   24450960.7654
      2780.666        2166.753
 97  5  1 15 44 29.9990000  0  9 19 18  2 31  7 27 26 10 15         -0.000272528
   1471695.718 9   1079434.25448  21648309.570    21648312.6344   21648317.6094
     -1386.384       -1080.299
   4041498.999 9   3133183.09246  24230754.078    24230756.8044   24230762.8544
     -3173.288       -2472.692
  -2143114.942 9  -1660853.88148  21181655.203    21181657.7424   21181663.1494
      1409.756        1098.511
   3015605.580 9   2339309.55946  23536930.024    23536933.1534   23536937.8094
     -2586.869       -2015.742
  -5341940.542 9  -4143051.51047  22496989.014    22496991.9184   22496997.9744
      3859.262        3007.217
  -1747685.766 9  -1353953.99648  20075262.653    20075265.4524   20075269.9054
      1018.939         793.978
  -4767672.047 9  -3695994.60346  23957717.755    23957721.0704   23957726.2214
      3369.878        2625.879
   1738865.824 9   1349352.04946  24822284.928    24822287.1444   24822294.2534
     -1518.738       -1183.432
  -3912635.965 9  -3028200.46246  24435107.405    24435110.0724   24435116.1264
      2770.381        2158.738
 97  5  1 15 44 59.9990000  0  9 19 18  2 31  7 27 26 10 15         -0.000284644
   1513487.494 9   1111999.25748  21656262.239    21656265.3754   21656270.3624
     -1398.459       -1089.708
   4136771.450 9   3207421.26246  24248883.948    24248886.7034   24248892.7624
     -3176.835       -2475.456
  -2185224.200 9  -1693666.28248  21173642.052    21173644.6184   21173650.0194
      1398.832        1089.999
   3093424.064 9   2399947.30346  23551738.602    23551741.5564   23551746.2244
     -2599.610       -2025.670
  -5457545.485 9  -4233133.24647  22474990.001    22474992.9894   22474999.0254
      3849.088        2999.289
  -1778019.226 9  -1377590.46248  20069490.396    20069493.1934   20069497.6384
      1004.677         782.865
  -4868556.712 9  -3774606.01246  23938519.981    23938523.2784   23938528.4574
      3357.108        2615.928
   1784556.645 9   1384955.25246  24830979.567    24830981.8584   24830988.9424
     -1525.813       -1188.945
  -3995556.442 9  -3092813.78046  24419328.111    24419330.7884   24419336.8494
      2758.965        2149.843
 97  5  1 15 45 29.9990000  0  9 19 18  2 31  7 27 26 10 15         -0.000296723
   1555615.640 9   1144826.36048  21664279.034    21664282.1184   21664287.1154
     -1410.212       -1098.866
   4232118.472 9   3281717.56946  24267027.905    24267030.6874   24267036.6124
     -3179.936       -2477.872
  -2227034.321 9  -1726245.59348  21165685.859    21165688.4314   21165693.8304
      1388.365        1081.843
   3171578.779 9   2460847.04446  23566611.022    23566613.9654   23566618.6024
     -2610.880       -2034.452
  -5572878.026 9  -4323002.73247  22453042.896    22453045.8704   22453051.8794
      3839.442        2991.773
  -1807961.364 9  -1400921.99948  20063792.640    20063795.4094   20063799.8894
       990.987         772.198
  -4969087.967 9  -3852942.03346  23919389.489    23919392.8294   23919398.0014
      3344.594        2606.177
   1830414.213 9   1420688.37446  24839706.070    24839708.2584   24839715.3574
     -1531.644       -1193.489
  -4078167.893 9  -3157186.28846  24403607.714    24403610.4544   24403616.3424
      2748.231        2141.479
 97  5  1 15 45 59.9990000  0  9 19 18  2 31  7 27 26 10 15         -0.000308743
   1598121.660 9   1177947.91348  21672367.638    21672370.7634   21672375.7864
     -1422.910       -1108.761
   4327594.450 9   3356114.33846  24285196.239    24285199.2154   24285205.1734
     -3184.424       -2481.369
  -2268491.050 9  -1758549.52948  21157796.909    21157799.5004   21157804.8724
      1375.981        1072.193
   3250087.718 9   2522022.78146  23581550.851    23581553.7164   23581558.3834
     -2622.331       -2043.375
  -5687891.649 9  -4412623.70947  22431156.595    22431159.5044   22431165.4544
      3828.825        2983.500
  -1837454.540 9  -1423903.69848  20058180.290    20058183.0794   20058187.5424
       975.922         760.459
  -5069207.120 9  -3930956.93646  23900337.395    23900340.8094   23900345.9804
      3330.609        2595.280
   1876475.638 9   1456580.35246  24848471.263    24848473.4994   24848480.5864
     -1538.784       -1199.052
  -4160428.067 9  -3221285.06646  24387953.825    24387956.6714   24387962.6754
      2736.320        2132.197
 97  5  1 15 46 29.9990000  0  9 19 18  2 31  7 27 26 10 15         -0.000320715
   1640989.024 9   1211351.02648  21680525.031    21680528.1394   21680533.1874
     -1434.653       -1117.911
   4423173.145 9   3430591.16846  24303384.241    24303387.2794   24303393.2364
     -3187.120       -2483.470
  -2309600.404 9  -1790582.78549  21149974.091    21149976.6624   21149982.0184
      1365.116        1063.727
   3328910.938 9   2583443.44246  23596550.479    23596553.2634   23596557.9514
     -2632.344       -2051.177
  -5802607.379 9  -4502012.55647  22409326.945    22409329.8244   22409335.7764
      3819.094        2975.917
  -1866524.765 9  -1446555.82648  20052648.421    20052651.2214   20052655.6854
       962.338         749.874
  -5168923.584 9  -4008658.04946  23881361.913    23881365.3914   23881370.5014
      3317.660        2585.190
   1922748.100 9   1492636.77246  24857276.665    24857278.8994   24857286.0334
     -1545.798       -1204.518
  -4242348.207 9  -3285118.89046  24372364.986    24372367.7324   24372373.8464
      2725.340        2123.642
 97  5  1 15 46 59.9990000  0  9 19 18  2 31  7 27 26 10 15         -0.000332650
   1684219.721 9   1245037.26548  21688751.585    21688754.6854   21688759.7044
     -1447.892       -1128.227
   4518830.586 9   3505129.33546  24321587.383    24321590.2724   24321596.2574
     -3190.428       -2486.048
  -2350388.376 9  -1822365.61349  21142212.423    21142214.9604   21142220.3334
      1353.885        1054.975
   3408035.987 9   2645099.24846  23611607.665    23611610.2764   23611615.1204
     -2643.336       -2059.742
  -5917026.701 9  -4591170.43847  22387553.688    22387556.5424   22387562.5204
      3808.297        2967.504
  -1895181.756 9  -1468885.95048  20047195.185    20047198.0024   20047202.4604
       947.382         738.220
  -5268264.568 9  -4086066.58446  23862458.017    23862461.3614   23862466.5554
      3304.589        2575.004
   1969237.191 9   1528861.99046  24866123.318    24866125.5594   24866132.6984
     -1554.106       -1210.992
  -4323934.172 9  -3348692.31446  24356839.812    24356842.3994   24356848.4104
      2713.228        2114.204
 97  5  1 15 47 29.9990000  0  9 19 18  2 31  7 27 26 10 15         -0.000344557
   1727824.983 9   1279015.36748  21697049.442    21697052.5354   21697057.5794
     -1460.151       -1137.780
   4614563.309 9   3579726.17546  24339804.931    24339807.7074   24339813.6014
     -3193.148       -2488.167
  -2390873.926 9  -1853912.78549  21134508.293    21134510.8104   21134516.1974
      1344.046        1047.309
   3487478.584 9   2707002.54046  23626725.148    23626727.7144   23626732.5564
     -2654.058       -2068.097
  -6031136.957 9  -4680087.50247  22365839.224    22365842.0664   22365848.0624
      3797.925        2959.422
  -1923387.092 9  -1490864.14048  20041827.915    20041830.7164   20041835.1684
       931.762         726.048
  -5367232.094 9  -4163184.11546  23843625.029    23843628.4594   23843633.6864
      3291.987        2565.185
   2015973.002 9   1565279.46746  24875016.903    24875019.1074   24875026.2004
     -1562.847       -1217.803
  -4405178.265 9  -3411999.34346  24341379.439    24341382.2174   24341388.2234
      2701.750        2105.260
 97  5  1 15 47 59.9990000  0  9 19 18  2 31  7 27 26 10 15         -0.000356443
   1771771.140 9   1313259.10748  21705412.160    21705415.2514   21705420.2804
     -1470.359       -1145.734
   4710365.611 9   3654377.24646  24358035.707    24358038.3354   24358044.3234
     -3194.303       -2489.067
  -2431090.448 9  -1885250.32949  21126855.366    21126857.8804   21126863.2374
      1336.440        1041.382
   3567235.913 9   2769151.03846  23641902.335    23641905.0764   23641909.9674
     -2663.988       -2075.835
  -6144955.157 9  -4768776.98447  22344180.373    22344183.1784   22344189.1444
      3789.261        2952.671
  -1951144.862 9  -1512493.57648  20036545.845    20036548.5954   20036553.0414
       918.091         715.396
  -5465838.069 9  -4240019.91646  23824861.010    23824864.3854   23824869.6214
      3281.079        2556.685
   2062954.837 9   1601888.65146  24883957.320    24883959.4314   24883966.5874
     -1569.827       -1223.242
  -4486092.759 9  -3475049.53846  24325981.792    24325984.6554   24325990.6754
      2691.785        2097.495
 97  5  1 15 48 29.9990000  0  9 19 18  2 31  7 27 26 10 15         -0.000368315
   1816040.464 9   1347754.66248  21713836.437    21713839.4814   21713844.4844
     -1481.781       -1154.635
   4806212.518 9   3729063.06146  24376274.901    24376277.5064   24376283.5234
     -3196.526       -2490.799
  -2471085.265 9  -1916415.11649  21119244.651    21119247.1154   21119252.4744
      1328.989        1035.576
   3647312.390 9   2831548.28646  23657140.442    23657143.2734   23657147.9834
     -2675.483       -2084.792
  -6258496.427 9  -4857250.67347  22322574.127    22322576.9714   22322582.9404
      3779.207        2944.837
  -1978477.013 9  -1533791.36348  20031344.727    20031347.4814   20031351.9244
       903.037         703.665
  -5564105.189 9  -4316591.67446  23806161.444    23806164.7834   23806169.9954
      3269.065        2547.323
   2110147.539 9   1638662.14046  24892937.909    24892939.8964   24892947.0894
     -1577.034       -1228.858
  -4566692.933 9  -3537854.83646  24310644.181    24310646.8634   24310652.9314
      2680.697        2088.855
 97  5  1 15 48 59.9990000  0  9 19 18  2 31  7 27 26 10 15         -0.000380144
   1860672.364 9   1382532.74948  21722329.582    21722332.6634   21722337.6734
     -1493.633       -1163.870
   4902162.673 9   3803829.33346  24394533.763    24394536.2434   24394542.3624
     -3200.367       -2493.792
  -2510839.786 9  -1947392.65749  21111679.624    21111682.1034   21111687.4684
      1321.189        1029.498
   3727758.664 9   2894233.61346  23672448.934    23672451.7544   23672456.5124
     -2687.800       -2094.390
  -6371713.035 9  -4945471.38347  22301029.700    22301032.5424   22301038.4764
      3768.344        2936.372
  -2005331.280 9  -1554716.77048  20026234.566    20026237.2754   20026241.7374
       887.056         691.212
  -5661985.716 9  -4392862.20446  23787535.387    23787538.6364   23787543.9024
      3255.951        2537.105
   2157562.692 9   1675608.96946  24901960.736    24901962.6854   24901969.8894
     -1584.001       -1234.286
  -4646939.166 9  -3600384.31146  24295373.968    24295376.5034   24295382.5014
      2668.901        2079.663
 97  5  1 15 49 29.9990000  0  9 19 18  2 31  7 27 26 10 15         -0.000391931
   1905635.117 9   1417568.63848  21730885.724    21730888.8124   21730893.8284
     -1504.019       -1171.963
   4998211.498 9   3878672.47646  24412811.262    24412813.8634   24412819.9004
     -3202.976       -2495.825
  -2550369.556 9  -1978195.07249  21104157.333    21104159.8374   21104165.2044
      1313.699        1023.662
   3808559.062 9   2957194.91946  23687824.790    23687827.5944   23687832.3384
     -2698.868       -2103.014
  -6484614.405 9  -5033446.45747  22279545.277    22279548.0754   22279553.9904
      3758.341        2928.577
  -2031715.975 9  -1575276.28148  20021213.736    20021216.4374   20021220.9254
       871.948         679.440
  -5759469.313 9  -4468823.43447  23768984.861    23768988.0804   23768993.3764
      3242.886        2526.924
   2205159.024 9   1712696.97746  24911018.011    24911020.0174   24911027.2524
     -1589.185       -1238.326
  -4726841.004 9  -3662645.45646  24280169.104    24280171.6864   24280177.7084
      2657.664        2070.907
 97  5  1 15 49 59.9990000  0  9 19 18  2 31  7 27 26 10 15         -0.000403671
   1950937.600 9   1452869.24848  21739506.542    21739509.6254   21739514.6144
     -1515.160       -1180.644
   5094347.240 9   3953583.37045  24431105.164    24431107.9894   24431114.0094
     -3204.674       -2497.149
  -2589647.053 9  -2008800.90949  21096683.013    21096685.5794   21096690.9424
      1305.846        1017.542
   3889705.724 9   3020426.01246  23703266.530    23703269.2194   23703274.1674
     -2709.736       -2111.483
  -6597194.844 9  -5121171.46547  22258121.809    22258124.6994   22258130.5474
      3748.037        2920.548
  -2057632.852 9  -1595471.25748  20016281.808    20016284.5994   20016289.1024
       856.874         667.694
  -5856542.166 9  -4544464.60747  23750512.428    23750515.6854   23750521.0254
      3229.826        2516.747
   2252924.164 9   1749916.53246  24920107.411    24920109.5064   24920116.7064
     -1594.003       -1242.080
  -4806383.038 9  -3724626.23246  24265032.710    24265035.3164   24265041.3314
      2646.184        2061.961
 97  5  1 15 50 29.9990000  0  9 19 18  2 31  7 27 26 10 15         -0.000415384
   1996575.275 9   1488431.04948  21748191.031    21748194.1814   21748199.2124
     -1527.082       -1189.934
   5190519.312 9   4028522.55845  24449406.098    24449408.9284   24449415.0394
     -3206.719       -2498.742
  -2628691.479 9  -2039225.13349  21089253.118    21089255.6764   21089261.0354
      1297.155        1010.770
   3971161.494 9   3083898.02146  23718766.966    23718769.8274   23718774.6474
     -2720.412       -2119.802
  -6709464.654 9  -5208654.39647  22236757.504    22236760.4274   22236766.2844
      3736.781        2911.777
  -2083100.206 9  -1615315.95848  20011435.546    20011438.3094   20011442.8574
       841.226         655.501
  -5953225.628 9  -4619802.36147  23732114.131    23732117.4384   23732122.7644
      3215.918        2505.910
   2300827.570 9   1787243.81946  24929223.118    24929225.2274   24929232.4704
     -1599.519       -1246.378
  -4885583.986 9  -3786341.20646  24249961.066    24249963.7154   24249969.7514
      2633.959        2052.436
 97  5  1 15 50 59.9990000  0  9 19 18  2 31  7 27 26 10 15         -0.000427064
   2042554.126 9   1524258.70848  21756940.554    21756943.7014   21756948.7304
     -1537.686       -1198.197
   5286737.940 9   4103498.03945  24467715.880    24467718.8654   24467724.8064
     -3207.451       -2499.312
  -2667474.902 9  -2069445.97549  21081872.818    21081875.4124   21081880.7854
      1288.809        1004.267
   4052920.470 9   3147606.23246  23734325.130    23734328.0534   23734332.9384
     -2729.780       -2127.101
  -6821412.469 9  -5295886.44447  22215454.545    22215457.4354   22215463.2824
      3726.848        2904.037
  -2108113.882 9  -1634807.14048  20006675.592    20006678.3414   20006682.9284
       826.810         644.268
  -6049506.070 9  -4694826.06747  23713792.604    23713795.9434   23713801.2394
      3203.241        2496.032
   2348889.286 9   1824694.46246  24938368.991    24938371.1174   24938378.4184
     -1604.252       -1250.066
  -4964429.718 9  -3847779.39346  24234957.319    24234959.8404   24234965.8614
      2622.754        2043.704
 97  5  1 15 51 29.9990000  0  9 19 18  2 31  7 27 26 10 15         -0.000438727
   2088854.770 9   1560337.10448  21765751.256    21765754.4444   21765759.4984
     -1548.617       -1206.715
   5382969.724 8   4178483.76545  24486028.290    24486031.2614   24486037.1484
     -3207.510       -2499.358
  -2705996.344 9  -2099462.68049  21074542.408    21074545.0454   21074550.4184
      1279.751         997.209
   4134963.641 9   3211535.95046  23749937.595    23749940.3534   23749945.1934
     -2739.246       -2134.477
  -6933062.093 9  -5382886.12847  22194208.317    22194211.2074   22194217.0094
      3717.015        2896.375
  -2132690.263 9  -1653957.57348  20001998.843    20002001.6084   20002006.2034
       812.351         633.001
  -6145408.406 9  -4769555.13747  23695542.957    23695546.3074   23695551.6324
      3190.925        2486.435
   2397104.995 9   1862265.11746  24947544.100    24947546.2834   24947553.6194
     -1609.727       -1254.333
  -5042930.957 9  -3908949.18346  24220019.061    24220021.5074   24220027.5594
      2611.197        2034.699
 97  5  1 15 51 59.9990000  0  9 19 18  2 31  7 27 26 10 15         -0.000450375
   2135485.657 9   1596672.83848  21774624.854    21774628.0214   21774633.0934
     -1560.618       -1216.066
   5479209.027 8   4253475.34245  24504342.119    24504344.9234   24504350.9744
     -3209.124       -2500.616
  -2744255.381 9  -2129274.91148  21067261.925    21067264.5664   21067269.9314
      1270.456         989.966
   4217288.230 9   3275684.91746  23765603.474    23765606.2444   23765611.1794
     -2749.765       -2142.674
  -7044414.319 9  -5469654.07048  22173018.657    22173021.5694   22173027.3594
      3705.860        2887.683
  -2156846.771 9  -1672780.83348  19997402.035    19997404.7944   19997409.4064
       797.592         621.500
  -6240945.930 9  -4843999.95047  23677362.769    23677366.1234   23677371.5024
      3177.693        2476.124
   2445487.461 9   1899965.70246  24956750.961    24956753.2254   24956760.5314
     -1616.233       -1259.402
  -5121092.647 9  -3969854.36346  24205145.420    24205147.8684   24205153.8984
      2599.044        2025.229
 97  5  1 15 52 29.9990000  0  9 19 18  2 31  7 27 26 10 15         -0.000461981
   2182464.132 9   1633279.42248  21783564.586    21783567.7554   21783572.8594
     -1571.439       -1224.498
   5575498.571 8   4328506.08245  24522665.568    24522668.2754   24522674.4004
     -3210.746       -2501.880
  -2782237.809 9  -2158871.60348  21060034.074    21060036.7354   21060042.0944
      1261.428         982.931
   4299930.104 9   3340081.11546  23781329.777    23781332.5474   23781337.5094
     -2759.985       -2150.638
  -7155435.320 9  -5556163.89048  22151891.986    22151894.9564   22151900.7604
      3695.293        2879.449
  -2180574.359 9  -1691269.87348  19992886.830    19992889.5954   19992894.2094
       784.034         610.936
  -6336094.446 9  -4918141.63447  23659256.616    23659259.9394   23659265.4004
      3165.184        2466.377
   2494060.950 9   1937815.12046  24965994.217    24965996.5114   24966003.7954
     -1622.228       -1264.074
  -5198894.054 9  -4030478.80346  24190340.211    24190342.6584   24190348.7774
      2587.388        2016.146
 97  5  1 15 52 59.9990000  0  9 19 18  2 31  7 27 26 10 15         -0.000473533
   2229787.739 9   1670154.93548  21792569.997    21792573.1534   21792578.2604
     -1582.745       -1233.308
   5671867.060 8   4403598.32145  24541003.961    24541006.5664   24541012.7934
     -3212.956       -2503.602
  -2819922.181 9  -2188236.04548  21052862.976    21052865.6734   21052871.0094
      1251.868         975.482
   4382899.911 9   3404732.88446  23797118.469    23797121.2444   23797126.0794
     -2770.506       -2158.836
  -7266118.971 9  -5642410.86548  22130829.549    22130832.5394   22130838.3054
      3684.418        2870.975
  -2203868.837 9  -1709421.42248  19988454.055    19988456.8384   19988461.4394
       769.672         599.744
  -6430840.445 9  -4991969.66247  23641227.038    23641230.3874   23641235.8214
      3152.130        2456.205
   2542842.489 9   1975826.67346  24975277.004    24975279.3334   24975286.7024
     -1628.870       -1269.249
  -5276321.744 9  -4090812.03646  24175606.134    24175608.6584   24175614.8704
      2575.210        2006.657
 97  5  1 15 53 29.9990000  0  9 19 18  2 31  7 27 26 10 15         -0.000485049
   2277447.010 9   1707292.00648  21801639.353    21801642.4204   21801647.5574
     -1595.120       -1242.951
   5768290.618 8   4478733.46945  24559352.663    24559355.6684   24559361.7414
     -3215.746       -2505.776
  -2857335.579 9  -2217389.33848  21045743.462    21045746.1404   21045751.4794
      1241.829         967.659
   4466166.453 9   3469615.82746  23812963.752    23812966.3604   23812971.3204
     -2781.103       -2167.093
  -7376479.202 9  -5728405.81348  22109828.733    22109831.6634   22109837.4284
      3672.257        2861.499
  -2226739.368 9  -1727242.62048  19984101.961    19984104.7554   19984109.3474
       754.453         587.885
  -6525200.204 9  -5065496.72447  23623270.996    23623274.3324   23623279.6904
      3137.890        2445.109
   2591809.095 9   2013982.42046  24984595.136    24984597.3944   24984604.7904
     -1636.036       -1274.833
  -5353390.764 9  -4150865.79946  24160940.178    24160942.9094   24160949.1864
      2562.102        1996.443
 97  5  1 15 53 59.9990000  0  9 19 18  2 31  7 27 26 10 15         -0.000496522
   2325441.871 9   1744690.57348  21810772.382    21810775.5634   21810780.7134
     -1604.709       -1250.423
   5864766.683 8   4553909.53445  24577711.418    24577714.3304   24577720.4134
     -3215.958       -2505.941
  -2894487.302 9  -2246338.72948  21038673.759    21038676.4104   21038681.7524
      1234.825         962.201
   4549713.443 9   3534717.34546  23828862.224    23828864.8964   23828869.9104
     -2788.821       -2173.107
  -7486505.405 9  -5814140.49348  22088891.466    22088894.3974   22088900.1614
      3662.556        2853.940
  -2249188.900 9  -1744735.76948  19979829.947    19979832.7444   19979837.3414
       741.741         577.980
  -6619157.622 9  -5138710.28247  23605391.469    23605394.8304   23605400.2214
      3125.822        2435.705
   2640944.932 9   2052270.04346  24993945.400    24993947.6524   24993955.0404
     -1639.849       -1277.804
  -5430101.522 9  -4210640.40146  24146342.700    24146345.3474   24146351.5824
      2551.665        1988.310
 97  5  1 15 54 29.9990000  0  9 19 18  2 31  7 27 26 10 15         -0.000507964
   2373766.271 9   1782345.92448  21819968.124    21819971.3834   21819976.5774
     -1616.650       -1259.727
   5961281.873 8   4629116.10045  24596077.710    24596080.6754   24596086.6444
     -3218.058       -2507.578
  -2931382.598 9  -2275088.30748  21031652.766    21031655.4494   21031660.7864
      1225.186         954.690
   4633525.082 9   3600025.05246  23844810.997    23844813.8074   23844818.8394
     -2798.322       -2180.511
  -7596200.201 9  -5899616.93848  22068017.221    22068020.1974   22068025.9384
      3650.727        2844.722
  -2271204.922 9  -1761891.11848  19975640.355    19975643.2644   19975647.8414
       726.177         565.852
  -6712715.220 9  -5211612.29447  23587588.016    23587591.3874   23587596.7574
      3111.588        2424.614
   2690235.595 9   2090678.28946  25003325.127    25003327.3854   25003334.8004
     -1645.880       -1282.504
  -5506452.585 9  -4270134.70646  24131813.605    24131816.1624   24131822.4144
      2538.659        1978.176
 97  5  1 15 54 59.9990000  0  9 19 18  2 31  7 27 26 10 15         -0.000519381
   2422430.183 9   1820265.82848  21829228.566    21829231.8134   21829237.0354
     -1627.428       -1268.126
   6057833.849 8   4704351.34045  24614451.093    24614454.0154   24614460.0684
     -3218.209       -2507.695
  -2968021.254 9  -2303637.90748  21024680.681    21024683.3464   21024688.6854
      1217.785         948.923
   4717591.230 9   3665531.07646  23860808.079    23860811.0164   23860816.0064
     -2805.916       -2186.428
  -7705566.901 9  -5984837.71448  22047205.437    22047208.3784   22047214.1224
      3640.798        2836.985
  -2292768.876 9  -1778694.20848  19971536.936    19971539.7934   19971544.3774
       711.545         554.451
  -6805868.383 9  -5284199.15547  23569861.549    23569864.9064   23569870.2334
      3098.948        2414.765
   2739673.048 9   2129200.94546  25012732.858    25012735.0854   25012742.4984
     -1649.541       -1285.357
  -5582438.784 9  -4329344.71146  24117353.775    24117356.4374   24117362.7294
      2527.366        1969.376
 97  5  1 15 55 29.9990000  0  9 19 18  2 31  7 27 26 10 15         -0.000530774
   2471428.391 9   1858446.23048  21838552.666    21838555.8744   21838561.0904
     -1638.881       -1277.050
   6154390.210 8   4779589.98045  24632825.126    24632828.2294   24632834.3304
     -3218.585       -2507.988
  -3004428.830 9  -2332007.44448  21017752.514    21017755.1984   21017760.5454
      1209.535         942.495
   4801902.560 9   3731228.18346  23876852.057    23876855.1214   23876860.0264
     -2814.735       -2193.300
  -7814629.541 9  -6069821.56548  22026451.484    22026454.4274   22026460.1774
      3630.134        2828.676
  -2313883.742 9  -1795147.35648  19967518.906    19967521.7894   19967526.3524
       696.330         542.595
  -6898630.646 9  -5356481.42347  23552209.426    23552212.8224   23552218.1224
      3085.341        2404.162
   2789220.771 9   2167809.49746  25022161.519    25022163.6924   25022171.1344
     -1653.567       -1288.494
  -5658075.554 9  -4388282.43646  24102960.430    24102963.2044   24102969.3504
      2515.192        1959.890
 97  5  1 15 55 59.9990000  0  9 19 18  2 31  7 27 26 10 15         -0.000542146
   2520784.270 9   1896905.33648  21847944.688    21847947.9814   21847953.2144
     -1651.186       -1286.638
   6250974.688 8   4854850.53545  24651204.495    24651207.7064   24651213.8094
     -3220.067       -2509.143
  -3040579.336 9  -2360176.66648  21010873.279    21010875.9724   21010881.3184
      1200.881         935.751
   4886504.264 9   3797151.50146  23892951.350    23892954.2944   23892959.2824
     -2824.976       -2201.280
  -7923362.455 9  -6154548.48348  22005760.305    22005763.2444   22005768.9914
      3619.000        2820.000
  -2334530.688 9  -1811235.89048  19963589.957    19963592.8204   19963597.3904
       680.478         530.243
  -6990975.640 9  -5428438.54947  23534636.811    23534640.1834   23534645.4064
      3071.407        2393.304
   2838904.512 9   2206524.08446  25031616.047    25031618.2514   25031625.6494
     -1658.477       -1292.320
  -5733331.465 9  -4446923.38446  24088639.716    24088642.4574   24088648.5794
      2502.112        1949.698
 97  5  1 15 56 29.9990000  0  9 19 18  2 31  7 27 26 10 15         -0.000553502
   2570481.179 9   1935630.17448  21857401.736    21857405.0234   21857410.2894
     -1661.913       -1294.997
   6347574.015 8   4930122.64545  24669586.825    24669589.8454   24669596.1464
     -3220.007       -2509.096
  -3076497.606 9  -2388164.92548  21004038.241    21004040.9594   21004046.3024
      1193.724         930.175
   4971383.930 9   3863291.47546  23909103.622    23909106.4504   23909111.2994
     -2833.803       -2208.158
  -8031789.225 9  -6239036.85048  21985127.368    21985130.3274   21985136.0844
      3609.485        2812.586
  -2354731.096 9  -1826976.47848  19959745.967    19959748.8474   19959753.3754
       666.412         519.282
  -7082935.538 9  -5500095.59947  23517137.367    23517140.8064   23517145.9724
      3059.288        2383.861
   2888708.703 9   2245332.48946  25041093.444    25041095.7394   25041103.1174
     -1661.728       -1294.853
  -5808217.503 9  -4505276.12146  24074389.338    24074392.0984   24074398.1944
      2490.283        1940.480
 97  5  1 15 56 59.9990000  0  9 19 18  2 31  7 27 26 10 15         -0.000564843
   2620513.413 9   1974616.30548  21866922.529    21866925.8894   21866931.1504
     -1672.847       -1303.517
   6444190.946 8   5005408.48245  24687972.382    24687975.3234   24687981.8864
     -3220.464       -2509.452
  -3112186.092 9  -2415974.13348  20997246.962    20997249.6734   20997255.0104
      1186.092         924.228
   5056533.707 9   3929641.89946  23925306.977    23925309.9274   23925314.8344
     -2842.402       -2214.859
  -8139918.503 9  -6323293.39848  21964550.981    21964554.0004   21964559.7594
      3599.593        2804.878
  -2374501.315 9  -1842381.84848  19955983.852    19955986.7334   19955991.2434
       652.219         508.223
  -7174522.753 9  -5571462.24247  23499708.913    23499712.3064   23499717.4874
      3046.994        2374.281
   2938618.475 9   2284223.15746  25050591.013    25050593.3004   25050600.6884
     -1665.078       -1297.463
  -5882733.732 9  -4563340.70246  24060209.457    24060212.1554   24060218.2174
      2478.021        1930.925
 97  5  1 15 57 29.9990000  0  9 19 18  2 31  7 27 26 10 15         -0.000576180
   2670836.792 9   2013829.29948  21876498.825    21876502.1584   21876507.4154
     -1681.668       -1310.391
   6540790.579 8   5080680.84945  24706354.718    24706357.5954   24706364.3604
     -3219.405       -2508.627
  -3147671.004 9  -2443624.71748  20990494.395    20990497.1144   20990502.4534
      1179.802         919.326
   5141917.950 9   3996174.98446  23941555.152    23941557.9954   23941563.0434
     -2849.586       -2220.457
  -8247764.308 9  -6407329.07248  21944028.578    21944031.6404   21944037.4014
      3590.241        2797.590
  -2393883.977 9  -1857485.22948  19952295.478    19952298.3494   19952302.8554
       640.200         498.857
  -7265762.914 9  -5642558.45947  23482346.486    23482349.8404   23482355.0104
      3035.980        2365.699
   2988607.135 8   2323175.32045  25060103.531    25060105.6904   25060113.2674
     -1667.383       -1299.259
  -5956903.161 9  -4621135.05846  24046095.253    24046098.1054   24046104.1054
      2466.899        1922.259
 97  5  1 15 57 59.9990000  0  9 19 18  2 31  7 27 26 10 15         -0.000587505
   2721446.804 9   2053265.65148  21886129.690    21886132.9234   21886138.2094
     -1692.389       -1318.745
   6637392.999 8   5155955.38345  24724737.710    24724740.3994   24724747.3084
     -3220.916       -2509.805
  -3182942.046 9  -2471108.64148  20983782.519    20983785.2624   20983790.6004
      1171.361         912.749
   5227533.462 9   4062888.34046  23957847.168    23957850.1484   23957855.1814
     -2858.167       -2227.143
  -8355305.763 9  -6491127.59948  21923564.104    21923567.1684   21923572.9034
      3578.984        2788.819
  -2412880.385 9  -1872287.63248  19948680.640    19948683.4854   19948687.9674
       625.948         487.752
  -7356653.029 9  -5713381.90347  23465050.644    23465054.0414   23465059.2334
      3023.163        2355.711
   3038686.934 7   2362198.53855  25069633.521    25069635.1354          0.0005
     -1671.354       -1302.354
  -6030713.202 9  -4678649.34846  24032049.867    24032052.5354   24032058.6014
      2453.679        1911.958
 97  5  1 15 58 29.9990000  0  9 19 18  2 31  7 27 26 10 15         -0.000598817
   2772354.940 9   2092934.30048  21895817.131    21895820.4334   21895825.7274
     -1702.201       -1326.390
   6734016.621 8   5231246.42245  24743124.787    24743127.2974   24743134.3414
     -3221.246       -2510.062
  -3217970.091 9  -2498403.22348  20977116.884    20977119.6424   20977124.9644
      1163.111         906.320
   5313374.659 9   4129777.53246  23974182.066    23974185.1654   23974190.1394
     -2865.539       -2232.888
  -8462521.429 9  -6574672.25848  21903161.642    21903164.6784   21903170.4324
      3568.077        2780.320
  -2431459.483 9  -1886764.86248  19945145.091    19945148.0284   19945152.4904
       611.918         476.819
  -7447173.772 9  -5783917.52747  23447825.120    23447828.5094   23447833.7474
      3010.660        2345.969
   3088864.75716   2401298.05554  25079181.917    25079183.6935          0.0005
     -1674.487       -1304.795
  -6104147.971 9  -4735871.23646  24018075.653    24018078.4384   24018084.4494
      2441.251        1902.274
 97  5  1 15 58 59.9990000  0  9 19 18  2 31  7 27 26 10 15         -0.000610107
   2823565.958 9   2132838.95648  21905562.267    21905565.5674   21905570.8724
     -1710.784       -1333.078
   6830656.736 8   5306550.35145  24761514.850    24761517.2614   24761524.3284
     -3220.276       -2509.306
  -3252732.135 9  -2525490.53348  20970501.908    20970504.6584   20970509.9744
      1155.440         900.343
   5399453.255 9   4196851.72246  23990562.250    23990565.4714   23990570.4574
     -2872.095       -2237.996
  -8569395.296 9  -6657950.58848  21882824.164    21882827.2314   21882833.0244
      3557.844        2772.346
  -2449601.350 9  -1900901.39048  19941692.876    19941695.7624   19941700.2194
       598.526         466.384
  -7537290.134 9  -5854138.05547  23430676.509    23430679.9094   23430685.1954
      2997.951        2336.066
   3139159.49917   2440488.72054  25088752.486           0.0005          0.0005
     -1677.537       -1307.172
  -6177198.750 9  -4792793.91346  24004174.548    24004177.3334   24004183.3134
      2429.758        1893.318
 97  5  1 15 59 29.9990000  0  8 19 18  2 31  7 27 26 15            -0.000621379
   2875056.917 9   2172961.75648  21915360.756    21915363.9894   21915369.3344
     -1722.350       -1342.091
   6927275.909 8   5381837.93945  24779900.911    24779903.4444   24779910.2514
     -3221.301       -2510.105
  -3287247.053 9  -2552385.27248  20963933.914    20963936.6984   20963942.0024
      1145.286         892.431
   5485754.661 9   4264099.48446  24006984.850    24006988.0134   24006993.1174
     -2881.787       -2245.548
  -8675939.666 9  -6740972.16648  21862549.409    21862552.4594   21862558.2534
      3544.937        2762.289
  -2467312.666 9  -1914702.42148  19938322.481    19938325.4174   19938329.8694
       581.819         453.365
  -7626991.476 9  -5924035.19047  23413606.798    23413610.3144   23413615.6194
      2981.990        2323.629
  -6249884.275 9  -4849431.97346  23990342.984    23990345.7514   23990351.8024
      2415.585        1882.274
 97  5  1 15 59 59.9990000  0  8 19 18  2 31  7 27 26 15            -0.000632632
   2926866.385 9   2213332.73748  21925219.708    21925223.0434   21925228.3794
     -1732.073       -1349.667
   7023890.624 8   5457122.03945  24798286.071    24798288.6974   24798295.5964
     -3219.829       -2508.958
  -3321494.053 9  -2579071.25048  20957416.954    20957419.7244   20957425.0234
      1137.615         886.453
   5572302.470 9   4331539.30446  24023454.362    24023457.5654   24023462.6014
     -2888.583       -2250.844
  -8782145.569 9  -6823729.98648  21842339.055    21842342.1134   21842347.8954
      3534.964        2754.517
  -2484549.532 9  -1928133.75348  19935042.402    19935045.3664   19935049.8084
       567.072         441.874
  -7716255.572 9  -5993591.61947  23396620.331    23396623.8954   23396629.2094
      2968.589        2313.186
  -6322181.203 9  -4905767.24446  23976585.395    23976588.0734   23976594.0984
      2403.808        1873.097
 97  5  1 16  0 29.9990000  0  8 19 18  2 31  7 27 26 15            -0.000643867
   2978996.788 9   2253953.80348  21935139.844    21935143.1844   21935148.5254
     -1743.638       -1358.679
   7120475.794 8   5532383.15345  24816665.485    24816668.3494   24816675.0414
     -3219.487       -2508.691
  -3355492.800 9  -2605563.78148  20950947.181    20950949.9714   20950955.2694
      1128.679         879.490
   5659084.242 9   4399161.42346  24039968.337    24039971.6184   24039976.7564
     -2897.409       -2257.721
  -8888020.157 9  -6906229.65748  21822191.709    21822194.8204   21822200.6124
      3523.061        2745.242
  -2501324.519 9  -1941205.17848  19931850.209    19931853.1914   19931857.6264
       551.069         429.404
  -7805086.190 9  -6062810.28147  23379716.452    23379719.9704   23379725.2604
      2953.153        2301.158
  -6394100.989 9  -4961808.62846  23962899.581    23962902.2064   23962908.1574
      2390.399        1862.649
 97  5  1 16  0 59.9990000  0  8 19 18  2 31  7 27 26 15            -0.000655063
   3031469.950 9   2294841.95348  21945125.192    21945128.5374   21945133.8884
     -1754.353       -1367.028
   7217044.293 8   5607631.25945  24835042.034    24835044.6964   24835051.6054
     -3218.196       -2507.685
  -3389234.350 9  -2631855.89948  20944526.354    20944529.1564   20944534.4664
      1121.102         873.586
   5746128.001 9   4466987.67546  24056532.503    24056535.4864   24056540.7554
     -2905.294       -2263.865
  -8993548.269 9  -6988459.33748  21802110.378    21802113.4774   21802119.2704
      3512.315        2736.869
  -2517634.864 9  -1953914.54048  19928746.563    19928749.4574   19928753.8914
       536.511         418.061
  -7893463.274 9  -6131675.53447  23362898.793    23362902.3414   23362907.6234
      2939.162        2290.256
  -6465623.099 9  -5017540.13546  23949289.292    23949291.9814   23949297.9844
      2377.944        1852.943
 97  5  1 16  1 29.9990000  0  8 19 18  2 31  7 27 26 15            -0.000666246
   3084275.782 9   2335989.32248  21955173.816    21955177.1744   21955182.5544
     -1766.581       -1376.557
   7313575.328 8   5682850.15246  24853411.364    24853414.1674   24853421.0814
     -3217.910       -2507.462
  -3422758.647 9  -2657978.72648  20938146.872    20938149.6544   20938154.9984
      1113.336         867.535
   5833402.904 9   4534994.01546  24073140.232    24073143.4074   24073148.6834
     -2913.682       -2270.401
  -9098748.248 9  -7070433.33848  21782091.495    21782094.5584   21782100.3574
      3500.519        2727.677
  -2533499.781 9  -1966276.81948  19925727.551    19925730.4624   19925734.9124
       520.664         405.712
  -7981436.314 9  -6200225.94947  23346158.079    23346161.6594   23346166.9404
      2925.250        2279.416
  -6536765.575 9  -5072975.81346  23935751.360    23935753.9934   23935760.0044
      2364.311        1842.320
 97  5  1 16  1 59.9990000  0  8 19 18  2 31  7 27 26 15            -0.000677415
   3137423.967 9   2377403.45648  21965287.583    21965290.9634   21965296.3534
     -1777.177       -1384.813
   7410085.430 8   5758052.75545  24871776.824    24871779.7174   24871786.4334
     -3216.770       -2506.574
  -3456075.159 9  -2683939.64348  20931806.943    20931809.7314   20931815.0914
      1107.031         862.622
   5920898.831 9   4603172.61746  24089790.305    24089793.4404   24089798.6734
     -2920.193       -2275.475
  -9203621.618 9  -7152152.82648  21762134.706    21762137.8044   21762143.6214
      3490.203        2719.639
  -2548924.001 9  -1978295.70148  19922792.392    19922795.3254   19922799.7844
       506.893         394.982
  -8069020.457 9  -6268473.33647  23329491.381    23329494.9254   23329500.2014
      2912.879        2269.776
  -6607521.486 9  -5128110.27646  23922286.943    23922289.6274   23922295.6084
      2351.967        1832.702
 97  5  1 16  2 29.9990000  0  8 19 18  2 31  7 27 26 15            -0.000688562
   3190904.089 9   2419076.24648  21975464.519    21975467.9034   21975473.2784
     -1787.707       -1393.018
   7506579.255 8   5833242.69145  24890138.836    24890141.8064   24890148.4304
     -3215.979       -2505.958
  -3489177.075 9  -2709733.34348  20925507.877    20925510.6624   20925516.0344
      1099.963         857.114
   6008613.659 9   4671521.75046  24106481.972    24106485.0014   24106490.2204
     -2927.256       -2280.979
  -9308153.523 9  -7233606.24748  21742242.906    21742246.0124   21742251.8564
      3478.829        2710.776
  -2563908.066 9  -1989971.60348  19919940.997    19919943.9694   19919948.4284
       492.172         383.511
  -8156200.287 9  -6336405.66947  23312901.593    23312905.1944   23312910.4614
      2899.246        2259.153
  -6677880.307 9  -5182935.33546  23908898.119    23908900.8364   23908906.7344
      2338.820        1822.457
 97  5  1 16  2 59.9990000  0  8 19 18  2 31  7 27 26 15            -0.000699694
   3244692.132 9   2460988.97548  21985700.074    21985703.4334   21985708.8414
     -1797.822       -1400.900
   7603047.971 7   5908413.05345  24908496.312    24908498.8224   24908505.8754
     -3215.016       -2505.207
  -3522064.540 9  -2735359.94148  20919249.605    20919252.3944   20919257.7614
      1092.920         851.626
   6096531.909 9   4740029.42346  24123212.243    24123215.3054   24123220.4894
     -2933.748       -2286.037
  -9412337.828 9  -7314788.80348  21722417.197    21722420.3504   21722426.2214
      3467.097        2701.634
  -2578439.034 9  -2001294.43848  19917175.843    19917178.8074   19917183.2954
       476.796         371.529
  -8242965.977 9  -6404015.29647  23296390.654    23296394.1894   23296399.5054
      2885.414        2248.374
  -6747837.914 9  -5237447.75246  23895585.425    23895588.2954   23895594.2564
      2325.327        1811.943
 97  5  1 16  3 29.9990000  0  8 19 18  2 31  7 27 26 15            -0.000710819
   3298765.536 9   2503124.06648  21995989.882    21995993.2664   21995998.7004
     -1807.904       -1408.756
   7699468.25217   5983545.65454  24926844.179    24926848.6775          0.0005
     -3214.076       -2504.475
  -3554756.649 9  -2760834.31248  20913028.435    20913031.2784   20913036.6654
      1085.536         845.872
   6184628.758 9   4808676.28546  24139976.563    24139979.6954   24139984.8364
     -2940.419       -2291.236
  -9516183.862 9  -7395707.76948  21702655.932    21702659.0894   21702664.9494
      3455.103        2692.288
  -2592519.332 9  -2012266.10648  19914496.427    19914499.4084   19914503.9254
       461.076         359.280
  -8329318.334 9  -6471302.83347  23279958.363    23279961.9074   23279967.2054
      2870.400        2236.675
  -6817403.713 9  -5291654.86246  23882347.482    23882350.3444   23882356.2844
      2311.449        1801.129
 97  5  1 16  3 59.9990000  0  8 19 18  2 31  7 27 26 15            -0.000721916
   3353131.501 9   2545487.11848  22006335.383    22006338.7584   22006344.1954
     -1816.614       -1415.543
   7795862.43117   6058657.93854  24945187.851           0.0005          0.0005
     -3212.164       -2502.985
  -3587215.038 9  -2786126.56748  20906851.846    20906854.6694   20906860.0644
      1078.014         840.011
   6272928.033 9   4877480.86246  24156779.355    24156782.4744   24156787.7724
     -2946.619       -2296.067
  -9619675.024 9  -7476350.22148  21682962.220    21682965.3234   21682971.1964
      3444.010        2683.644
  -2606143.400 9  -2022882.27348  19911903.855    19911906.8274   19911911.3544
       446.740         348.109
  -8415215.382 9  -6538235.58747  23263612.598    23263616.2494   23263621.5144
      2855.864        2225.349
  -6886555.643 9  -5345539.49046  23869188.405    23869191.1564   23869197.1274
      2298.366        1790.935
 97  5  1 16  4 29.9990000  0  8 19 18  2 31  7 27 26 15            -0.000732995
   3407758.586 9   2588053.64348  22016730.620    22016733.9704   22016739.3664
     -1826.025       -1422.877
   7892196.46516   6133723.44154  24963519.247           0.0005          0.0005
     -3210.748       -2501.881
  -3619446.362 9  -2811241.88548  20900718.447    20900721.2484   20900726.6664
      1070.020         833.782
   6361424.512 9   4946439.10846  24173619.725    24173622.7874   24173628.0844
     -2953.922       -2301.757
  -9722823.984 9  -7556726.01048  21663333.532    21663336.7094   21663342.6044
      3431.834        2674.156
  -2619335.708 9  -2033162.00248  19909393.474    19909396.4124   19909400.9704
       432.062         336.672
  -8500677.645 9  -6604829.55647  23247349.741    23247353.3554   23247358.6204
      2840.889        2213.680
  -6955313.730 9  -5399117.20846  23856104.213    23856106.8884   23856112.9264
      2284.716        1780.298
 97  5  1 16  4 59.9990000  0  8 19 18  2 31  7 27 26 15            -0.000744036
   3462682.547 9   2630851.49748  22027182.314    22027185.7014   22027191.1184
     -1836.500       -1431.039
   7988488.12616     40688.76852  24981842.985           0.0005          0.0005
     -3209.695       -2501.061
  -3651434.445 9  -2836167.66948  20894631.287    20894634.1214   20894639.5244
      1061.765         827.349
   6450146.806 8   5015573.31145  24190503.001    24190506.1134   24190511.5574
     -2961.712       -2307.828
  -9825607.560 9  -7636817.09548  21643774.472    21643777.6374   21643783.5524
      3419.704        2664.704
  -2632089.887 9  -2043100.33348  19906966.415    19906969.3464   19906973.9384
       417.612         325.412
  -8585694.011 9  -6671076.06547  23231171.657    23231175.2524   23231180.4964
      2826.386        2202.379
  -7023656.907 9  -5452371.63046  23843098.733    23843101.6074   23843107.6334
      2270.765        1769.427
 97  5  1 16  5 29.9990000  0  7 19  2 31  7 27 26 15               -0.000755040
   3517928.447 9   2673900.21348  22037695.284    22037698.6844   22037704.1034
     -1846.540       -1438.862
  -3683168.988 9  -2860895.88548  20888592.373    20888595.2514   20888600.6564
      1053.891         821.214
   6539106.208 9   5084892.26446  24207431.623    24207434.5574   24207440.0104
     -2968.769       -2313.326
  -9928030.568 9  -7716627.20948  21624284.033    21624287.2084   21624293.1394
      3408.432        2655.921
  -2644420.971 9  -2052708.98148  19904619.818    19904622.8154   19904627.3904
       404.485         315.183
  -8670288.626 9  -6736993.94247  23215073.831    23215077.4364   23215082.6564
      2813.458        2192.305
  -7091583.078 9  -5505301.10146  23830172.681    23830175.6824   23830181.7264
      2257.692        1759.241
 97  5  1 16  5 59.9990000  0  7 19  2 31  7 27 26 15               -0.000766034
   3573471.953 9   2717180.83248  22048264.849    22048268.2874   22048273.6924
     -1856.449       -1446.584
  -3714668.737 9  -2885441.14748  20882598.192    20882601.0614   20882606.4634
      1046.042         815.098
   6628271.843 9   5154371.92946  24224399.321    24224402.3184   24224407.6564
     -2975.636       -2318.677
 -10030117.947 9  -7796175.80248  21604857.478    21604860.6844   21604866.5874
      3397.178        2647.152
  -2656357.397 9  -2062010.09948  19902348.360    19902351.4134   19902355.9974
       390.956         304.641
  -8754513.780 9  -6802623.92747  23199046.266    23199049.9334   23199055.1264
      2801.352        2182.872
  -7159120.191 9  -5557927.42346  23817321.003    23817323.8504   23817329.8554
      2244.664        1749.089
 97  5  1 16  6 29.9990000  0  7 19  2 31  7 27 26 15               -0.000777019
   3629327.562 9   2760704.64148  22058893.825    22058897.2924   22058902.7144
     -1866.430       -1454.361
  -3745927.345 9  -2909798.50448  20876649.882    20876652.7564   20876658.1364
      1038.832         809.479
   6717640.611 8   5224009.88145  24241405.654    24241408.7794   24241413.9904
     -2981.351       -2323.131
 -10131848.700 9  -7875446.49648  21585498.748    21585501.9694   21585507.8894
      3385.754        2638.250
  -2667868.462 9  -2070979.76848  19900157.884    19900160.9584   19900165.5284
       377.177         293.904
  -8838358.655 9  -6867957.59347  23183091.122    23183094.8024   23183099.9604
      2789.100        2173.325
  -7226250.976 9  -5610237.11046  23804546.337    23804549.2944   23804555.3154
      2231.515        1738.843
 97  5  1 16  6 59.9990000  0  7 19  2 31  7 27 26 15               -0.000788014
   3685480.651 9   2804460.25648  22069579.504    22069582.9324   22069588.3384
     -1876.910       -1462.527
  -3776966.756 9  -2933985.06148  20870743.333    20870746.1464   20870751.5304
      1030.629         803.088
   6807175.929 8   5293777.59245  24258443.770    24258446.6654   24258452.0054
     -2987.361       -2327.814
 -10233243.615 9  -7954455.50948  21566203.962    21566207.1964   21566213.1194
      3374.110        2629.177
  -2678954.348 9  -2079618.13048  19898048.369    19898051.3794   19898055.9744
       361.832         281.947
  -8921832.175 9  -6933001.89147  23167206.751    23167210.3434   23167215.4324
      2775.800        2162.961
  -7292987.177 9  -5662239.34246  23791846.767    23791849.7284   23791855.8134
      2217.616        1728.012
 97  5  1 16  7 29.9990000  0  7 19  2 31  7 27 26 15               -0.000799013
   3741937.921 9   2848452.89848  22080323.069    22080326.4014   22080331.8314
     -1886.338       -1469.874
  -3807757.909 9  -2957978.16748  20864883.977    20864886.8024   20864892.1664
      1022.591         796.824
   6896890.897 9   5363685.28345  24275515.996    24275518.7784   24275524.2254
     -2993.217       -2332.377
 -10334292.388 9  -8033194.79448  21546975.052    21546978.2414   21546984.1804
      3362.849        2620.402
  -2689570.888 9  -2087890.76848  19896028.195    19896031.1484   19896035.7274
       346.144         269.723
  -9004889.266 9  -6997721.70647  23151401.502    23151405.1214   23151410.2124
      2761.566        2151.870
  -7359303.231 9  -5713914.19246  23779227.259    23779230.1944   23779236.2704
      2203.763        1717.218
 97  5  1 16  7 59.9990000  0  7 19  2 31  7 27 26 15               -0.000810035
   3798662.767 9   2892654.03548  22091117.427    22091120.8204   22091126.2634
     -1895.160       -1476.748
  -3838323.687 9  -2981795.66148  20859067.540    20859070.3384   20859075.6964
      1015.354         791.185
   6986769.251 9   5433720.33846  24292619.244    24292622.1724   24292627.5534
     -2998.476       -2336.475
 -10435008.925 9  -8111675.20048  21527809.368    21527812.5184   21527818.4334
      3351.723        2611.732
  -2699712.791 9  -2095793.55948  19894098.200    19894101.2044   19894105.8014
       330.176         257.280
  -9087511.178 9  -7062102.41147  23135679.028    23135682.6754   23135687.8034
      2746.528        2140.152
  -7425207.365 9  -5765268.05146  23766686.055    23766688.9964   23766695.1234
      2189.889        1706.407
 97  5  1 16  8 29.9990000  0  7 19  2 31  7 27 26 15               -0.000821044
   3855669.063 9   2937074.48548  22101965.345    22101968.7694   22101974.2174
     -1905.348       -1484.687
  -3868667.885 9  -3005440.49048  20853293.236    20853296.0144   20853301.3624
      1007.608         785.149
   7076823.657 8   5503892.56145  24309755.911    24309759.0604   24309764.3474
     -3005.224       -2341.733
 -10535373.405 9  -8189881.26948  21508710.656    21508713.7914   21508719.7324
      3339.154        2601.938
  -2709364.847 9  -2103314.65048  19892261.438    19892264.4814   19892269.0884
       313.288         244.121
  -9169658.854 9  -7126113.58247  23120046.844    23120050.5144   23120055.6604
      2729.987        2127.263
  -7490679.774 9  -5816285.51646  23754227.111    23754229.9414   23754236.0724
      2174.771        1694.627
 97  5  1 16  8 59.9990000  0  7 19  2 31  7 27 26 15               -0.000832031
   3912965.146 9   2981720.74548  22112868.471    22112871.8924   22112877.3754
     -1915.259       -1492.410
  -3898803.725 9  -3028922.96348  20847558.554    20847561.3834   20847566.7254
      1000.633         779.714
   7167072.050 8   5574215.94145  24326929.924    24326932.7844   24326938.2684
     -3012.088       -2347.082
 -10635378.819 9  -8267807.54948  21489680.166    21489683.4114   21489689.3444
      3326.982        2592.454
  -2718529.913 9  -2110456.27148  19890517.379    19890520.4324   19890525.0564
       297.160         231.553
  -9251327.719 9  -7189751.65347  23104505.776    23104509.4264   23104514.5854
      2713.895        2114.723
  -7555716.173 9  -5866963.22446  23741850.792    23741853.8474   23741860.0844
      2160.141        1683.227
 97  5  1 16  9 29.9990000  0  7 19  2 31  7 27 26 15               -0.000842987
   3970558.095 9   3026598.32147  22123828.073    22123831.4974   22123836.9874
     -1924.219       -1499.391
  -3928736.910 9  -3052247.52448  20841862.504    20841865.3264   20841870.6314
       994.965         775.297
   7257524.452 8   5644698.26445  24344142.385    24344145.2744   24344150.9674
     -3017.962       -2351.659
 -10735013.174 9  -8345444.69648  21470720.337    21470723.6284   21470729.5454
      3315.278        2583.334
  -2727223.196 9  -2117230.26848  19888863.122    19888866.1794   19888870.7914
       282.573         220.187
  -9332523.917 9  -7253021.40947  23089054.643    23089058.2594   23089063.4954
      2699.445        2103.464
  -7620313.930 9  -5917299.12746  23729558.458    23729561.2934   23729567.5854
      2146.404        1672.523
 97  5  1 16  9 59.9990000  0  7 19  2 31  7 27 26 15               -0.000853929
   4028427.764 9   3071691.53647  22134840.414    22134843.7824   22134849.2594
     -1933.783       -1506.844
  -3958515.116 9  -3075451.32048  20836195.915    20836198.7754   20836204.0304
       990.157         771.551
   7348141.409 8   5715308.83845  24361386.460    24361389.2014   24361394.7804
     -3023.155       -2355.705
 -10834294.115 9  -8422806.45448  21451827.836    21451831.0894   21451836.9894
      3303.516        2574.168
  -2735493.249 9  -2123674.47448  19887289.455    19887292.4744   19887297.0524
       268.952         209.573
  -9413300.566 9  -7315964.24247  23073683.366    23073686.9804   23073692.2204
      2685.647        2092.712
  -7684506.537 9  -5967319.33846  23717342.906    23717345.7674   23717352.1854
      2133.067        1662.130
 97  5  1 16 10 29.9990000  0  7 19  2 31  7 27 26 15               -0.000864838
   4086604.535 9   3117024.03648  22145911.181    22145914.5064   22145919.9834
     -1944.760       -1515.397
  -3988117.595 9  -3098518.19148  20830562.800    20830565.6154   20830570.8534
       983.120         766.067
   7438937.312 8   5786058.83645  24378664.257    24378667.1384   24378672.6644
     -3030.083       -2361.104
 -10933205.213 9  -8499880.01648  21433005.779    21433008.9594   21433014.8354
      3290.609        2564.111
  -2743343.718 9  -2129791.73448  19885795.566    19885798.5994   19885803.1644
       254.232         198.103
  -9493647.732 9  -7378572.41647  23058393.857    23058397.4634   23058402.7164
      2670.772        2081.121
  -7748277.353 9  -6017010.87146  23705207.732    23705210.5744   23705216.9444
      2118.119        1650.482
 97  5  1 16 10 59.9990000  0  7 19  2 31  7 27 26 15               -0.000875718
   4145095.965 9   3162601.72947  22157041.691    22157045.0864   22157050.5764
     -1954.869       -1523.274
  -4017512.894 9  -3121423.62048  20824969.112    20824971.8984   20824977.1194
       976.221         760.692
   7529920.546 8   5856954.79845  24395977.956    24395980.6354   24395986.3114
     -3035.506       -2365.329
 -11031755.211 9  -8576672.20948  21414252.368    21414255.5044   21414261.3944
      3279.239        2555.251
  -2750767.416 9  -2135576.44448  19884382.867    19884385.9234   19884390.5034
       240.424         187.343
  -9573561.310 9  -7440842.73047  23043186.863    23043190.4464   23043195.6824
      2656.605        2070.082
  -7811614.377 9  -6066364.39446  23693155.274    23693158.0224   23693164.2594
      2104.082        1639.544
 97  5  1 16 11 29.9990000  0  7 19  2 31  7 27 26 15               -0.000886590
   4203888.203 9   3208413.82247  22168229.487    22168232.8784   22168238.3574
     -1965.102       -1531.248
  -4046688.281 9  -3144157.68948  20819417.200    20819419.9864   20819425.2134
       968.260         754.488
   7621054.149 8   5927967.92345  24413320.006    24413322.8374   24413328.5484
     -3040.754       -2369.419
 -11129969.618 9  -8653202.90248  21395562.722    21395565.8974   21395571.7664
      3267.829        2546.360
  -2757766.883 9  -2141030.58548  19883051.005    19883054.0104   19883058.5654
       225.566         175.766
  -9653048.245 9  -7502780.60447  23028061.007    23028064.5974   23028069.8044
      2641.858        2058.591
  -7874528.715 9  -6115388.54246  23681183.069    23681185.8214   23681191.9854
      2089.587        1628.250
 97  5  1 16 11 59.9990000  0  7 19  2 31  7 27 26 15               -0.000897444
   4262986.787 9   3254464.61848  22179475.633    22179478.9774   22179484.4814
     -1974.587       -1538.639
  -4075624.783 9  -3166705.61848  20813910.790    20813913.5554   20813918.7644
       960.860         748.722
   7712341.654 8   5999101.02145  24430691.487    24430694.2864   24430699.9364
     -3044.977       -2372.709
 -11227843.819 9  -8729468.49848  21376937.864    21376941.0754   21376946.9354
      3257.083        2537.987
  -2764323.311 9  -2146139.50448  19881803.392    19881806.3794   19881810.9144
       211.501         164.806
  -9732080.475 9  -7564364.15147  23013021.708    23013025.2854   23013030.4714
      2627.141        2047.123
  -7937007.448 9  -6164073.25746  23669293.768    23669296.5234   23669302.6964
      2075.634        1617.377
 97  5  1 16 12 29.9990000  0  7 19  2 31  7 27 26 15               -0.000908293
   4322372.817 9   3300739.41147  22190776.358    22190779.8134   22190785.3254
     -1984.360       -1546.255
  -4104319.800 9  -3189065.37348  20808450.257    20808453.0324   20808458.2734
       952.391         742.123
   7803766.602 8   6070341.18245  24448089.387    24448091.9494   24448097.6104
     -3050.029       -2376.646
 -11325380.974 9  -8805471.45948  21358377.213    21358380.3554   21358386.2094
      3245.380        2528.868
  -2770436.578 9  -2150903.09848  19880640.081    19880643.0914   19880647.6074
       196.009         152.734
  -9810663.132 9  -7625597.38447  22998067.945    22998071.4904   22998076.6834
      2611.877        2035.229
  -7999053.320 9  -6212420.67846  23657486.638    23657489.5884   23657495.7644
      2060.762        1605.789
 97  5  1 16 12 59.9990000  0  7 19  2 31  7 27 26 15               -0.000919141
   4382047.163 9   3347238.85947  22202132.021    22202135.5184   22202141.0234
     -1994.949       -1554.506
  -4132780.345 9  -3211242.42548  20803034.313    20803037.1254   20803042.3994
       944.034         735.611
   7895319.348 8   6141680.90645  24465511.372    24465514.0314   24465519.6554
     -3054.876       -2380.423
 -11422568.554 9  -8881202.02948  21339882.965    21339886.1684   21339892.0224
      3232.512        2518.841
  -2776090.283 9  -2155308.59748  19879564.273    19879567.2334   19879571.7664
       179.950         140.221
  -9888794.406 9  -7686478.90447  22983200.018    22983203.6224   22983208.7384
      2595.928        2022.801
  -8060664.019 9  -6260429.01346  23645762.587    23645765.4744   23645771.6394
      2045.565        1593.947
 97  5  1 16 13 29.9990000  0  7 19  2 31  7 27 26 15               -0.000929973
   4442031.782 9   3393980.07247  22213546.850    22213550.2384   22213555.7684
     -2004.375       -1561.851
  -4160998.746 9  -3233230.79548  20797664.495    20797667.3204   20797672.5794
       936.838         730.004
   7987020.379 8   6213136.22445  24482961.419    24482964.1124   24482969.7934
     -3059.436       -2383.976
 -11519352.479 9  -8956618.06048  21321465.554    21321468.7734   21321474.6224
      3219.107        2508.395
  -2781270.445 9  -2159345.10048  19878578.445    19878581.4804   19878586.0244
       164.837         128.444
  -9966452.580 9  -7746991.75747  22968422.094    22968425.7114   22968430.8304
      2580.765        2010.986
  -8121818.699 9  -6308082.00146  23634125.278    23634128.1444   23634134.2804
      2030.810        1582.449
 97  5  1 16 13 59.9990000  0  7 19  2 31  7 27 26 15               -0.000940772
   4502294.837 9   3440938.25447  22225014.522    22225017.9384   22225023.4674
     -2012.510       -1568.190
  -4189021.672 9  -3255066.84248  20792331.918    20792334.7654   20792339.9904
       931.853         726.119
   8078857.116 8   6284697.29146  24500437.401    24500440.1454   24500445.7584
     -3062.565       -2386.414
 -11615725.243 9  -9031713.70548  21303126.406    21303129.6554   21303135.5294
      3206.254        2498.380
  -2786002.611 9  -2163032.51248  19877677.946    19877680.9774   19877685.5314
       151.020         117.678
 -10043663.971 9  -7807156.47447  22953729.217    22953732.9094   22953738.0054
      2567.312        2000.503
  -8182534.496 9  -6355392.99646  23622571.443    23622574.2904   23622580.4354
      2017.356        1571.966
 97  5  1 16 14 29.9990000  0  7 19  2 31  7 27 26 15               -0.000951565
   4562828.302 9   3488107.14147  22236533.663    22236537.0844   22236542.6604
     -2023.296       -1576.594
  -4216862.714 9  -3276761.15848  20787033.941    20787036.8014   20787042.0384
       923.974         719.980
   8170827.361 8   6356362.34246  24517938.660    24517941.5344   24517947.1654
     -3069.187       -2391.574
 -11711683.568 9  -9106486.41148  21284866.152    21284869.4094   21284875.2934
      3190.896        2486.412
  -2790275.718 9  -2166362.21448  19876864.794    19876867.8564   19876872.4244
       133.671         104.159
 -10120444.362 9  -7866985.34347  22939118.390    22939122.0634   22939127.2024
      2551.118        1987.884
  -8242813.492 9  -6402363.63346  23611100.697    23611103.5894   23611109.7394
      2001.039        1559.251
 97  5  1 16 14 59.9990000  0  7 19  2 31  7 27 26 15               -0.000962343
   4623653.605 9   3535503.43647  22248108.277    22248111.7844   22248117.3704
     -2031.992       -1583.370
  -4244499.174 9  -3298296.06948  20781774.952    20781777.7544   20781782.9804
       918.096         715.399
   8262962.797 9   6428156.11746  24535471.142    24535474.3244   24535480.1984
     -3073.525       -2394.955
 -11807217.092 9  -9180928.10748  21266686.740    21266689.9664   21266695.8434
      3177.771        2476.185
  -2794065.885 9  -2169315.60748  19876143.545    19876146.6204   19876151.1894
       118.716          92.506
 -10196768.690 9  -7926458.84947  22924594.360    22924598.0574   22924603.1504
      2536.998        1976.882
  -8302636.391 9  -6448978.87046  23599716.843    23599719.6784   23599725.8144
      1986.818        1548.170
 97  5  1 16 15 29.9990000  0  7 19  2 31  7 27 26 15               -0.000973121
   4684754.940 9   3583114.82047  22259735.359    22259738.9934   22259744.5934
     -2041.141       -1590.499
  -4271937.014 9  -3319676.20448  20776553.736    20776556.5204   20776561.7184
       911.226         710.046
   8355257.341 8   6500073.91246  24553034.550    24553037.4164   24553043.2734
     -3079.289       -2399.446
 -11902341.089 9  -9255050.69148  21248585.214    21248588.4344   21248594.3244
      3164.154        2465.575
  -2797378.398 9  -2171896.79748  19875513.243    19875516.2724   19875520.8374
       102.163          79.608
 -10272657.194 9  -7985592.73747  22910153.311    22910156.9734   22910162.0514
      2522.367        1965.481
  -8362006.556 9  -6495241.32146  23588419.102    23588421.8744   23588428.0574
      1971.324        1536.097
 97  5  1 16 15 59.9990000  0  7 19  2 31  7 27 26 15               -0.000983919
   4746125.429 9   3630935.93747  22271413.747    22271417.4094   22271423.0164
     -2050.104       -1597.484
  -4299177.761 9  -3340902.76348  20771369.992    20771372.8214   20771377.9884
       904.758         705.006
   8447708.306 8   6572113.58945  24570627.687    24570630.2444   24570636.0074
     -3083.978       -2403.100
 -11997079.643 9  -9328872.92748  21230557.039    21230560.2914   21230566.1954
      3152.142        2456.215
  -2800198.689 9  -2174094.43748  19874976.552    19874979.6014   19874984.1534
        86.125          67.110
 -10348116.566 9  -8044392.24147  22895793.859    22895797.5244   22895802.5834
      2508.365        1954.570
  -8420921.062 9  -6541148.72046  23577207.933    23577210.8104   23577216.9544
      1956.458        1524.513
 97  5  1 16 16 29.9990000  0  7 19  2 31  7 27 26 15               -0.000994745
   4807759.280 9   3678962.26847  22283142.341    22283145.9854   22283151.6124
     -2059.312       -1604.659
  -4326216.391 9  -3361971.82948  20766224.725    20766227.5554   20766232.7234
       897.401         699.274
   8540293.052 8   6644257.48846  24588245.894    24588248.6764   24588254.5054
     -3088.548       -2406.661
 -12091478.490 9  -9402430.46048  21212593.455    21212596.7814   21212602.6604
      3140.610        2447.229
  -2802554.491 9  -2175930.13748  19874528.257    19874531.3164   19874535.8884
        70.650          55.052
 -10423153.941 9  -8102862.92547  22881514.675    22881518.3444   22881523.4164
      2493.540        1943.018
  -8479393.058 9  -6586711.31346  23566081.094    23566083.9174   23566090.1134
      1941.248        1512.661
 97  5  1 16 16 59.9990000  0  7 19  2 31  7 27 26 15               -0.001005573
   4869669.813 9   3727204.18847  22294923.765    22294927.2294   22294932.8774
     -2067.679       -1611.178
  -4353044.078 9  -3382876.52648  20761119.588    20761122.4494   20761127.6044
       891.386         694.586
   8633006.067 8   6716501.40246  24605888.637    24605891.4374   24605897.1044
     -3091.933       -2409.298
 -12185527.091 9  -9475715.07048  21194696.615    21194699.9214   21194705.8004
      3129.575        2438.630
  -2804459.157 9  -2177414.30248  19874165.803    19874168.8924   19874173.4784
        56.575          44.084
 -10497743.720 9  -8160984.82547  22867320.625    22867324.3534   22867329.3904
      2479.373        1931.979
  -8537409.642 9  -6631919.02646  23555040.606    23555043.6724   23555049.8684
      1926.776        1501.384
 97  5  1 16 17 29.9980000  0  7 19  2 31  7 27 26 15               -0.001016399
   4931846.873 9   3775653.79847  22306755.678    22306759.1914   22306764.8284
     -2076.935       -1618.391
  -4379675.921 9  -3403628.61648  20756051.711    20756054.6004   20756059.7304
       884.664         689.349
   8725827.380 8   6788829.58846  24623551.970    24623554.7734   24623560.5424
     -3095.881       -2412.375
 -12279226.056 9  -9548727.23548  21176866.316    21176869.6184   21176875.4764
      3117.680        2429.361
  -2805925.715 9  -2178557.08848  19873886.685    19873889.8184   19873894.4114
        41.692          32.487
 -10571884.666 9  -8218756.98947  22853212.059    22853215.7844   22853220.7944
      2463.932        1919.947
  -8594972.111 9  -6676772.89546  23544086.858    23544089.9074   23544096.1374
      1911.412        1489.412
 97  5  1 16 17 59.9980000  0  7 19  2 31  7 27 26 15               -0.001027204
   4994309.316 9   3824325.78647  22318641.848    22318645.4304   22318651.0774
     -2087.650       -1626.740
  -4406101.824 9  -3424220.23448  20751023.055    20751025.9274   20751031.0554
       876.643         683.098
   8818758.425 9   6861243.38846  24641236.099    24641238.9264   24641244.6464
     -3099.867       -2415.481
 -12372566.708 9  -9621460.19548  21159104.174    21159107.4884   21159113.3344
      3104.635        2419.196
  -2806951.146 9  -2179356.13448  19873691.606    19873694.7024   19873699.2974
        26.323          20.511
 -10645550.714 9  -8276159.10347  22839193.921    22839197.5944   22839202.6034
      2446.643        1906.475
  -8652076.856 9  -6721270.08746  23533220.328    23533223.2444   23533229.4344
      1895.110        1476.709
 97  5  1 16 18 29.9980000  0  7 19  2 31  7 27 26 15               -0.001037962
   5057080.694 9   3873238.49547  22330587.083    22330590.4774   22330596.1114
     -2097.162       -1634.152
  -4432291.652 9  -3444627.89948  20746039.301    20746042.1714   20746047.2984
       869.478         677.515
   8911802.526 8   6933745.24445  24658941.966    24658944.7474   24658950.4644
     -3103.263       -2418.127
 -12465521.247 9  -9693892.28848  21141415.529    21141418.8024   21141424.6474
      3092.006        2409.355
  -2807526.857 9  -2179804.74848  19873582.128    19873585.1664   19873589.7644
        11.794           9.190
 -10718699.957 9  -8333158.50747  22825274.085    22825277.7634   22825282.7364
      2430.000        1893.506
  -8708703.890 9  -6765395.04446  23522444.488    23522447.4544   23522453.5934
      1879.897        1464.855
 97  5  1 16 18 59.9980000  0  7 19  2 31  7 27 26 15               -0.001048692
   5120133.241 9   3922370.30047  22342585.667    22342589.0634   22342594.6694
     -2106.465       -1641.401
  -4458272.223 9  -3464872.50448  20741095.323    20741098.1994   20741103.3304
       862.275         671.903
   9004940.091 9   7006319.90846  24676665.443    24676668.2464   24676673.9734
     -3106.376       -2420.553
 -12558089.469 9  -9766023.35448  21123800.378    21123803.6674   21123809.5234
      3079.007        2399.226
  -2807659.768 9  -2179908.32548  19873556.800    19873559.8534   19873564.4864
        -3.262          -2.542
 -10791359.741 9  -8389776.51947  22811447.401    22811451.1044   22811456.0604
      2413.847        1880.920
  -8764875.455 9  -6809165.08846  23511755.353    23511758.3504   23511764.5174
      1864.471        1452.835
 97  5  1 16 19 29.9980000  0  7 19  2 31  7 27 26 15               -0.001059410
   5183455.391 9   3971712.17747  22354635.333    22354638.9314   22354644.5074
     -2115.536       -1648.470
  -4484036.344 9  -3484948.44848  20736192.513    20736195.4164   20736200.5704
       854.838         666.108
   9098165.560 8   7078963.09345  24694405.543    24694408.5704   24694414.1864
     -3109.484       -2422.975
 -12650273.265 9  -9837854.87348  21106258.353    21106261.6664   21106267.5154
      3065.915        2389.025
  -2807346.357 9  -2179664.12248  19873616.444    19873619.5244   19873624.1424
       -18.212         -14.191
 -10863541.482 9  -8446022.04147  22797711.657    22797715.3954   22797720.3704
      2397.735        1868.365
  -8820590.409 9  -6852579.32646  23501153.153    23501156.1354   23501162.2944
      1849.181        1440.920
 97  5  1 16 19 59.9980000  0  7 19  2 31  7 27 26 15               -0.001070101
   5247056.841 9   4021271.69747  22366738.342    22366741.9504   22366747.5364
     -2124.263       -1655.270
  -4509567.234 9  -3504842.65548  20731334.126    20731337.0614   20731342.1924
       847.613         660.478
   9191501.24417   7151692.21455  24712166.591    24712170.0275   24712175.5215
     -3112.907       -2425.642
 -12742043.693 9  -9909364.28348  21088794.979    21088798.3264   21088804.1994
      3052.515        2378.583
  -2806573.319 9  -2179061.76648  19873763.517    19873766.6344   19873771.2724
       -32.967         -25.689
 -10935224.328 9  -8501878.80647  22784070.874    22784074.6044   22784079.5584
      2381.470        1855.691
  -8875828.107 9  -6895621.68346  23490642.210    23490644.7534   23490650.9224
      1833.567        1428.754
 97  5  1 16 20 29.9980000  0  6 19  2  7 27 26 15                  -0.001080780
   5310906.229 9   4071024.40947  22378888.535    22378892.1114   22378897.7184
     -2132.279       -1661.516
  -4534898.207 9  -3524581.08148  20726513.806    20726516.7364   20726521.8894
       841.354         655.601
 -12833422.862 9  -9980568.82148  21071406.077    21071409.4474   21071415.3114
      3039.316        2368.298
  -2805368.289 9  -2178122.79448  19873992.824    19873995.9454   19874000.6004
       -47.453         -36.976
 -11006440.368 9  -8557371.82247  22770518.949    22770522.6594   22770527.6204
      2366.322        1843.887
  -8930604.702 9  -6938304.74546  23480219.156    23480221.1314   23480227.2494
      1818.110        1416.709
 97  5  1 16 20 59.9980000  0  6 19  2  7 27 26 15                  -0.001091446
   5375007.623 9   4120973.49347  22391086.548    22391090.2364   22391095.8534
     -2141.079       -1668.373
  -4560041.637 9  -3544173.36848  20721729.122    20721732.0924   20721737.2724
       834.902         650.573
 -12924386.627 9 -10051449.65848  21054096.218    21054099.6034   21054105.4724
      3025.079        2357.204
  -2803713.133 9  -2176833.07248  19874307.790    19874310.9164   19874315.5814
       -62.795         -48.931
 -11077188.813 9  -8612500.48347  22757055.886    22757059.6564   22757064.6374
      2350.287        1831.392
  -8984899.833 9  -6980612.62146  23469887.039    23469889.1474   23469895.1764
      1801.583        1403.831
 97  5  1 16 21 29.9980000  0  6 19  2  7 27 26 15                  -0.001102099
   5439352.242 9   4171112.10247  22403330.879    22403334.6264   22403340.2814
     -2149.434       -1674.884
  -4585022.507 9  -3563638.99048  20716975.369    20716978.3934   20716983.5664
       829.694         646.515
 -13014951.125 9 -10122019.38548  21036862.378    21036865.7374   21036871.6024
      3011.732        2346.804
  -2801622.938 9  -2175204.36248  19874705.513    19874708.6734   19874713.3694
       -77.460         -60.358
 -11147482.184 9  -8667274.53647  22743679.444    22743683.2354   22743688.2964
      2335.197        1819.634
  -9038722.445 9  -7022552.31546  23459645.299    23459647.0964   23459653.1084
      1785.818        1391.546
 97  5  1 16 21 59.9980000  0  6 19  2  7 27 26 15                  -0.001112746
   5503952.604 9   4221449.98847  22415623.887    22415627.6814   22415633.3844
     -2157.598       -1681.245
  -4609850.647 9  -3582985.60148  20712250.724    20712253.7684   20712258.9434
       825.153         642.976
 -13105114.943 9 -10192276.88948  21019704.775    21019708.1304   21019714.0044
      2999.039        2336.914
  -2799085.439 9  -2173227.10348  19875188.378    19875191.5424   19875196.2624
       -91.917         -71.624
 -11217329.300 9  -8721700.86647  22730388.033    22730391.8174   22730396.8954
      2321.008        1808.578
  -9092074.302 9  -7064125.17646  23449493.229    23449494.5654   23449500.6094
      1770.688        1379.757
 97  5  1 16 22 29.9980000  0  6 19  2  7 27 26 15                  -0.001123401
   5568824.225 9   4271999.24447  22427968.686    22427972.3894   22427978.0824
     -2166.983       -1688.558
  -4634515.783 9  -3602205.19448  20707557.099    20707560.1224   20707565.3094
       819.316         638.428
 -13194884.186 9 -10262226.93448  21002622.214    21002625.5954   21002631.4404
      2985.575        2326.422
  -2796085.973 9  -2170889.86448  19875759.128    19875762.3244   19875767.0544
      -108.062         -84.204
 -11286739.354 9  -8775786.61747  22717179.758    22717183.5314   22717188.6354
      2306.341        1797.149
  -9144949.420 9  -7105326.56046  23439429.616    23439432.7334   23439438.7434
      1754.448        1367.102
 97  5  1 16 22 59.9980000  0  6 19  2  7 27 26 15                  -0.001134061
   5633978.079 9   4322768.43147  22440367.180    22440370.7854   22440376.4894
     -2176.399       -1695.895
  -4659001.013 9  -3621284.60248  20702897.729    20702900.7454   20702905.9384
       812.944         633.463
 -13284241.124 9 -10331855.70348  20985618.139    20985621.5144   20985627.3834
      2971.866        2315.740
  -2792595.936 9  -2168170.37048  19876423.312    19876426.4694   19876431.2144
      -124.446         -96.971
 -11355705.865 9  -8829526.76347  22704055.910    22704059.6784   22704064.7664
      2291.582        1785.648
  -9197336.729 9  -7146147.83446  23429460.834    23429463.7344   23429469.7014
      1738.158        1354.409
 97  5  1 16 23 29.9980000  0  6 19  2  7 27 26 15                  -0.001144744
   5699413.269 9   4373756.83147  22452819.184    22452822.7534   22452828.4504
     -2185.730       -1703.166
  -4683284.861 9  -3640207.09148  20698276.710    20698279.7324   20698284.9194
       806.155         628.173
 -13373199.979 9 -10401174.28148  20968689.827    20968693.2094   20968699.0574
      2958.849        2305.597
  -2788609.838 9  -2165064.32948  19877181.886    19877184.9954   19877189.7674
      -141.100        -109.948
 -11424228.134 9  -8882920.74247  22691016.581    22691020.3324   22691025.4124
      2276.550        1773.935
  -9249238.039 9  -7186590.41646  23419583.940    23419587.2374   23419593.1774
      1721.991        1341.811
 97  5  1 16 23 59.9980000  0  6 19  2  7 27 26 15                  -0.001155443
   5765119.524 9   4424956.44347  22465322.632    22465326.2324   22465331.9944
     -2195.129       -1710.490
  -4707370.594 9  -3658975.19848  20693693.372    20693696.3704   20693701.5684
       799.129         622.698
 -13461771.488 9 -10470191.02248  20951835.219    20951838.5904   20951844.4534
      2945.507        2295.200
  -2784131.856 9  -2161575.00448  19878033.967    19878037.1324   19878041.8984
      -157.703        -122.885
 -11492292.164 9  -8935957.65247  22678064.432    22678068.1804   22678073.2164
      2260.454        1761.393
  -9300655.531 9  -7226655.97346  23409800.344    23409802.8204   23409808.7634
      1705.362        1328.854
 97  5  1 16 24 29.9980000  0  6 19  2  7 27 26 15                  -0.001166150
   5831092.055 9   4476363.56147  22477876.853    22477880.4804   22477886.2274
     -2203.518       -1717.027
  -4731253.522 9  -3677585.27748  20689148.592    20689151.5854   20689156.7844
       792.745         617.723
 -13549951.899 9 -10538903.02048  20935054.998    20935058.4074   20935064.2394
      2932.598        2285.141
  -2779166.803 9  -2157706.15448  19878978.806    19878981.9664   19878986.7564
      -173.676        -135.332
 -11559871.617 9  -8988616.96847  22665204.428    22665208.2244   22665213.2584
      2244.290        1748.797
  -9351583.707 9  -7266340.24846  23400107.125    23400111.4864   23400117.5014
      1689.372        1316.394
 97  5  1 16 24 59.9980000  0  6 19  2  7 27 26 15                  -0.001176840
   5897335.009 9   4527981.38547  22490482.571    22490486.1384   22490491.8814
     -2213.047       -1724.452
  -4754934.416 9  -3696037.92548  20684642.289    20684645.2814   20684650.4674
       785.654         612.198
 -13637732.298 9 -10607303.32048  20918350.989    20918354.3554   20918360.1734
      2919.246        2274.737
  -2773723.337 9  -2153464.50448  19880014.604    19880017.8384   19880022.6274
      -189.446        -147.620
 -11626942.318 9  -9040879.85447  22652441.321    22652445.0584   22652450.1414
      2226.906        1735.251
  -9402022.239 9  -7305643.00846  23390508.668    23390513.3184   23390519.3434
      1672.863        1303.530
 97  5  1 16 25 29.9980000  0  6 19  2  7 27 26 15                  -0.001187498
   5963861.350 9   4579820.03747  22503142.297    22503145.7234   22503151.4584
     -2222.395       -1731.736
  -4778408.268 9  -3714329.24448  20680175.366    20680178.3854   20680183.5644
       779.116         607.103
 -13725118.713 9 -10675396.61648  20901721.881    20901725.2774   20901731.0844
      2905.938        2264.367
  -2767816.845 9  -2148862.05748  19881138.600    19881141.8184   19881146.6204
      -204.532        -159.376
 -11693491.971 9  -9092736.72047  22639777.283    22639781.0354   22639786.1304
      2209.528        1721.710
  -9451966.613 9  -7344560.68646  23381005.240    23381009.2314   23381015.2524
      1656.488        1290.770
 97  5  1 16 25 59.9980000  0  6 19  2  7 27 26 15                  -0.001198107
   6030687.559 9   4631892.35547  22515858.869    22515862.3764   22515868.1184
     -2232.141       -1739.331
  -4801677.656 9  -3732461.24148  20675747.356    20675750.3684   20675755.5584
       772.556         601.992
 -13812072.886 9 -10743153.10048  20885174.993    20885178.4174   20885184.2304
      2891.461        2253.086
  -2761451.083 9  -2143901.73448  19882349.989    19882353.1974   19882358.0164
      -219.506        -171.044
 -11759516.773 9  -9144184.62147  22627213.157    22627216.9164   22627221.9604
      2192.707        1708.603
  -9501406.558 9  -7383085.30646  23371597.625    23371601.1144   23371607.1604
      1639.918        1277.858
 97  5  1 16 26 29.9980000  0  6 19  2  7 27 26 15                  -0.001208691
   6097787.116 9   4684177.66847  22528627.389    22528631.0814   22528636.7954
     -2240.942       -1746.188
  -4824758.133 9  -3750446.03348  20671355.260    20671358.3154   20671363.4954
       766.393         597.189
 -13898603.060 9 -10810579.19548  20868708.826    20868712.2454   20868718.0554
      2877.415        2242.142
  -2754643.501 9  -2138597.14248  19883645.412    19883648.6424   19883653.4574
      -234.203        -182.496
 -11825054.215 9  -9195252.75947  22614741.817    22614745.5604   22614750.5804
      2176.796        1696.205
  -9550362.252 9  -7421232.59346  23362282.886    23362285.2174   23362291.1974
      1623.906        1265.381
 97  5  1 16 26 59.9980000  0  6 19  2  7 27 26 15                  -0.001219256
   6165160.408 9   4736676.27347  22541448.298    22541451.8064   22541457.5644
     -2250.155       -1753.368
  -4847642.082 9  -3768277.68348  20667000.634    20667003.6504   20667008.8384
       759.578         591.879
 -13984699.971 9 -10877667.68348  20852325.136    20852328.5444   20852334.3544
      2862.665        2230.648
  -2747384.092 9  -2132940.47048  19885026.863    19885030.0644   19885034.8904
      -249.643        -194.527
 -11890110.512 9  -9245945.97447  22602362.096    22602365.8154   22602370.7854
      2160.753        1683.704
  -9598820.883 9  -7458992.56046  23353062.728    23353063.8604   23353069.8754
      1606.925        1252.149
 97  5  1 16 27 29.9980000  0  6 19  2  7 27 26 15                  -0.001229817
   6232789.978 9   4789374.58447  22554317.746    22554321.2954   22554327.0894
     -2258.093       -1759.553
  -4870333.362 9  -3785959.20848  20662682.644    20662685.6404   20662690.8204
       753.475         587.123
 -14070350.223 9 -10944408.12548  20836026.425    20836029.8144   20836035.6264
      2847.666        2218.961
  -2739655.754 9  -2126918.40248  19886497.535    19886500.7554   19886505.5704
      -265.431        -206.829
 -11954693.224 9  -9296270.16747  22590072.408    22590076.1544   22590081.1034
      2144.976        1671.410
  -9646772.220 9  -7496357.22546  23343937.852    23343939.0164   23343944.9944
      1590.118        1239.053
 97  5  1 16 27 59.9980000  0  6 19  2  7 27 26 15                  -0.001240395
   6300641.374 9   4842245.72847  22567229.369    22567233.0174   22567238.8354
     -2265.487       -1765.315
  -4892848.665 9  -3803503.60448  20658398.138    20658401.1154   20658406.3024
       747.284         582.299
 -14155574.150 9 -11010816.36548  20819808.837    20819812.2134   20819818.0154
      2834.047        2208.348
  -2731456.177 9  -2120529.13648  19888057.894    19888061.0904   19888065.9194
      -281.438        -219.302
 -12018809.092 9  -9346230.57947  22577871.563    22577875.3194   22577880.2534
      2129.091        1659.032
  -9694229.536 9  -7533336.94446  23334905.684    23334908.1314   23334914.1084
      1573.513        1226.114
 97  5  1 16 28 29.9980000  0  6 19  2  7 27 26 15                  -0.001250988
   6368715.059 9   4895290.10747  22580183.336    22580187.0744   22580192.8834
     -2273.263       -1771.374
  -4915172.622 9  -3820898.90348  20654150.068    20654153.0264   20654158.2084
       740.611         577.099
 -14240401.976 9 -11076915.95548  20803666.664    20803670.0204   20803675.7964
      2820.760        2197.995
  -2722767.387 9  -2113758.66648  19889711.409    19889714.5404   19889719.3694
      -298.085        -232.274
 -12082430.831 9  -9395805.96047  22565764.803    22565768.5514   22565773.4804
      2112.043        1645.748
  -9741182.524 9  -7569923.66646  23325970.235    23325973.2714   23325979.2674
      1556.287        1212.691
 97  5  1 16 28 59.9980000  0  6 19  2  7 27 26 15                  -0.001261581
   6437029.944 9   4948522.41047  22593183.395    22593187.0404   22593192.8174
     -2280.917       -1777.338
  -4937289.925 9  -3838133.17148  20649941.273    20649944.2334   20649949.4154
       734.168         572.079
 -14324829.442 9 -11142703.57548  20787600.632    20787603.9554   20787609.7214
      2807.870        2187.951
  -2713578.694 9  -2106598.65748  19891459.976    19891463.1164   19891467.9354
      -314.347        -244.946
 -12145534.121 9  -9444977.35547  22553756.683    22553760.3754   22553765.3524
      2095.040        1632.499
  -9787614.458 9  -7606104.39646  23317134.172    23317137.6024   23317143.5364
      1539.325        1199.474
 97  5  1 16 29 29.9980000  0  6 19  2  7 27 26 15                  -0.001272181
   6505576.004 9   5001934.85447  22606227.425    22606230.9844   22606236.7604
     -2289.529       -1784.049
  -4959226.832 9  -3855226.86848  20645766.844    20645769.8044   20645774.9954
       727.457         566.850
 -14408884.179 9 -11208200.75748  20771605.438    20771608.8104   20771614.5764
      2795.071        2177.977
  -2703915.686 9  -2099069.05548  19893298.821    19893301.9504   19893306.7674
      -330.507        -257.538
 -12208132.018 9  -9493754.93247  22541844.592    22541848.3454   22541853.3904
      2077.447        1618.790
  -9833549.346 9  -7641897.80646  23308393.098    23308396.4974   23308402.4804
      1522.291        1186.201
 97  5  1 16 29 59.9980000  0  6 19  2  7 27 26 15                  -0.001282773
   6574378.553 9   5055547.16447  22619320.188    22619323.6944   22619329.4874
     -2298.177       -1790.787
  -4980963.768 9  -3872164.74848  20641630.430    20641633.4154   20641638.5984
       720.890         561.732
 -14492566.791 9 -11273407.97648  20755681.160    20755684.5554   20755690.2974
      2782.650        2168.299
  -2693782.255 9  -2091172.88748  19895227.099    19895230.3064   19895235.1264
      -345.848        -269.492
 -12270213.098 9  -9542129.79347  22530030.933    22530034.6734   22530039.7364
      2060.501        1605.585
  -9878983.478 9  -7677301.03146  23299748.194    23299750.7544   23299756.6264
      1505.709        1173.280
 97  5  1 16 30 29.9980000  0  6 19  2  7 27 26 15                  -0.001293346
   6643455.411 9   5109373.22647  22632465.131    22632468.6434   22632474.4424
     -2306.755       -1797.471
  -5002494.161 9  -3888941.68348  20637533.309    20637536.2934   20637541.5254
       714.782         556.973
 -14575838.362 9 -11338294.89648  20739835.117    20739838.4964   20739844.2344
      2768.868        2157.559
  -2683177.027 9  -2082909.08748  19897245.257    19897248.4224   19897253.2444
      -360.896        -281.218
 -12331774.670 9  -9590099.85247  22518316.156    22518319.8824   22518324.9674
      2043.938        1592.679
  -9923901.023 9  -7712301.70146  23291200.603    23291203.1714   23291209.0894
      1489.036        1160.288
 97  5  1 16 30 59.9980000  0  6 19  2  7 27 26 15                  -0.001303897
   6712802.073 9   5163409.52047  22645661.262    22645664.8964   22645670.7274
     -2316.203       -1804.834
  -5023832.338 9  -3905568.83948  20633472.776    20633475.7814   20633481.0104
       707.887         551.600
 -14658677.314 9 -11402844.71148  20724071.332    20724074.7354   20724080.4714
      2753.711        2145.749
  -2672117.831 9  -2074291.53948  19899349.746    19899352.9454   19899357.7874
      -376.378        -293.281
 -12392835.992 9  -9637680.10747  22506696.610    22506700.3084   22506705.3794
      2026.883        1579.389
  -9968308.079 9  -7746904.59946  23282750.562    23282752.7544   23282758.6494
      1471.492        1146.617
 97  5  1 16 31 29.9980000  0  6 19  2  7 27 26 15                  -0.001314421
   6782421.116 9   5217658.06747  22658909.285    22658913.0244   22658918.8434
     -2324.537       -1811.328
  -5044973.203 9  -3922042.24348  20629449.780    20629452.8044   20629458.0504
       701.755         546.822
 -14741064.720 9 -11467042.67548  20708393.523    20708396.9374   20708402.6774
      2739.126        2134.384
  -2660604.251 9  -2065319.93448  19901540.702    19901543.9124   19901548.7334
      -390.891        -304.590
 -12453391.737 9  -9684866.40647  22495173.292    22495176.9764   22495182.0154
      2010.538        1566.653
 -10012196.189 9  -7781103.11246  23274398.688    23274401.0574   23274407.0434
      1454.722        1133.550
 97  5  1 16 31 59.9980000  0  6 19  2  7 27 26 15                  -0.001324934
   6852275.832 9   5272090.24947  22672202.268    22672205.9724   22672211.8184
     -2332.094       -1817.216
  -5065931.707 9  -3938373.54948  20625461.476    20625464.5114   20625469.7884
       695.993         542.332
 -14823009.061 9 -11530895.38848  20692800.018    20692803.4694   20692809.1904
      2724.251        2122.793
  -2648652.836 9  -2056007.15748  19903815.006    19903818.2094   19903823.0364
      -405.467        -315.948
 -12513461.240 9  -9731673.81847  22483742.480    22483746.1554   22483751.2124
      1994.458        1554.123
 -10055579.643 9  -7814908.39446  23266143.263    23266145.4694   23266151.4674
      1437.803        1120.366
 97  5  1 16 32 29.9980000  0  6 19  2  7 27 26 15                  -0.001335430
   6922370.312 9   5326709.25447  22685540.831    22685544.5444   22685550.4084
     -2340.566       -1823.818
  -5086708.272 9  -3954563.08748  20621507.818    20621510.8474   20621516.1194
       689.444         537.229
 -14904495.455 9 -11594391.26248  20677293.732    20677297.1164   20677302.8544
      2708.722        2110.692
  -2636251.573 9  -2046343.85448  19906174.890    19906178.0934   19906182.9294
      -420.860        -327.943
 -12573033.008 9  -9778093.37647  22472406.392    22472410.0414   22472415.1034
      1977.358        1540.798
 -10098439.131 9  -7848305.40146  23257987.401    23257989.5884   23257995.6174
      1419.885        1106.404
 97  5  1 16 32 59.9980000  0  6 19  2  7 27 26 15                  -0.001345904
   6992711.138 9   5381520.22947  22698926.362    22698929.9984   22698935.8654
     -2348.692       -1830.150
  -5107296.036 9  -3970605.50448  20617590.070    20617593.1144   20617598.4024
       683.155         532.329
 -14985533.469 9 -11657537.75248  20661872.661    20661876.0474   20661881.8084
      2693.834        2099.091
  -2623404.833 9  -2036333.41748  19908619.541    19908622.7454   19908627.6054
      -435.629        -339.451
 -12632099.016 9  -9824118.84147  22461166.414    22461170.1184   22461175.2154
      1960.525        1527.682
 -10140771.480 9  -7881291.64446  23249931.382    23249934.0554   23249940.0114
      1402.341        1092.733
 97  5  1 16 33 29.9980000  0  6 19  2  7 27 26 15                  -0.001356369
   7063276.533 9   5436506.18147  22712354.445    22712358.1894   22712364.0694
     -2356.506       -1836.238
  -5127711.981 9  -3986514.04248  20613705.082    20613708.0994   20613713.3824
       677.125         527.630
 -15066140.659 9 -11720348.53348  20646533.574    20646537.0014   20646542.7744
      2679.267        2087.740
  -2610119.800 9  -2025981.45648  19911147.598    19911150.7964   19911155.6844
      -450.830        -351.296
 -12690670.043 9  -9869758.59947  22450020.660    22450024.3794   22450029.4874
      1943.588        1514.484
 -10182592.408 9  -7913879.38046  23241973.346    23241975.7734   23241981.7404
      1385.018        1079.235
 97  5  1 16 33 59.9980000  0  6 19  2  7 27 26 15                  -0.001366820
   7134091.684 9   5491686.75547  22725830.191    22725833.9484   22725839.8694
     -2364.832       -1842.726
  -5147937.981 9  -4002274.56448  20609856.266    20609859.2454   20609864.5084
       671.146         522.971
 -15146297.069 9 -11782808.06148  20631280.333    20631283.7624   20631289.5264
      2664.365        2076.129
  -2596360.746 9  -2015260.13148  19913765.868    19913769.0624   19913773.9584
      -466.629        -363.607
 -12748727.414 9  -9914998.10947  22438972.718    22438976.4324   22438981.5674
      1926.670        1501.301
 -10223881.616 9  -7946052.78646  23234115.596    23234118.6904   23234124.6564
      1367.404        1065.510
 97  5  1 16 34 29.9980000  0  6 19  2  7 27 26 15                  -0.001377266
   7205146.661 9   5547054.19347  22739351.682    22739355.3584   22739361.2584
     -2372.204       -1848.471
  -5167997.226 9  -4017905.15148  20606039.095    20606042.1024   20606047.3694
       666.044         518.995
 -15226024.629 9 -11844933.42248  20616108.633    20616112.0854   20616117.8844
      2650.789        2065.550
  -2582138.038 9  -2004177.52148  19916472.403    19916475.5834   19916480.4954
      -481.718        -375.365
 -12806289.740 9  -9959851.87847  22428019.008    22428022.7174   22428027.8314
      1910.748        1488.895
 -10264655.689 9  -7977824.79446  23226357.074    23226359.6124   23226365.6464
      1350.811        1052.580
 97  5  1 16 34 59.9980000  0  6 19  2  7 27 26 15                  -0.001387711
   7276456.083 9   5602619.90947  22752921.436    22752925.1664   22752931.0474
     -2381.903       -1856.028
  -5187866.688 9  -4033387.85448  20602258.020    20602261.0674   20602266.3214
       658.439         513.069
 -15305307.564 9 -11906712.31848  20601021.646    20601025.0494   20601030.8474
      2634.648        2052.972
  -2567420.404 9  -1992709.25048  19919273.078    19919276.2594   19919281.1674
      -499.742        -389.409
 -12863342.179 9 -10004308.33648  22417162.358    22417166.0914   22417171.1114
      1892.621        1474.770
 -10304898.831 9  -8009183.08946  23218698.654    23218701.5424   23218707.6664
      1331.843        1037.800
 97  5  1 16 35 29.9980000  0  6 19  2  7 27 26 15                  -0.001398163
   7348019.244 9   5658383.33947  22766539.386    22766543.2164   22766549.1464
     -2389.773       -1862.161
  -5207547.042 9  -4048723.20448  20598512.931    20598516.0024   20598521.2524
       652.627         508.541
 -15384156.285 9 -11968152.86648  20586017.177    20586020.6194   20586026.4284
      2621.140        2042.447
  -2552193.212 9  -1980843.91848  19922170.707    19922173.9084   19922178.8404
      -516.193        -402.228
 -12919888.688 9 -10048370.56748  22406401.928    22406405.7164   22406410.6514
      1876.341        1462.084
 -10344610.921 9  -8040127.57546  23211141.680    23211144.5884   23211150.7074
      1314.763        1024.491
 97  5  1 16 35 59.9980000  0  6 19  2  7 27 26 15                  -0.001408628
   7419834.688 9   5714343.35047  22780205.383    22780209.2654   22780215.2114
     -2397.449       -1868.142
  -5227034.031 9  -4063907.87948  20594804.669    20594807.7304   20594812.9964
       646.924         504.097
 -15462584.390 9 -12029265.66048  20571092.830    20571096.2674   20571102.0444
      2607.818        2032.066
  -2536460.842 9  -1968584.95148  19925164.445    19925167.6784   19925172.6284
      -532.126        -414.644
 -12975935.441 9 -10092043.37148  22395736.588    22395740.3764   22395745.3004
      1860.418        1449.676
 -10383790.009 9  -8070656.74846  23203686.066    23203689.1054   23203695.2084
      1297.566        1011.090
 97  5  1 16 36 29.9980000  0  6 19  2  7 27 26 15                  -0.001419105
   7491896.572 9   5770495.39547  22793918.348    22793922.2264   22793928.2024
     -2405.288       -1874.250
  -5246327.533 9  -4078941.78248  20591133.251    20591136.3034   20591141.5634
       640.650         499.208
 -15540602.785 9 -12090059.20148  20556246.382    20556249.8264   20556255.5994
      2594.702        2021.846
  -2520238.269 9  -1955943.99848  19928251.508    19928254.7544   19928259.7124
      -547.973        -426.992
 -13031484.377 9 -10135328.26147  22385165.987    22385169.7674   22385174.7114
      1844.180        1437.023
 -10422435.885 9  -8100770.41647  23196332.075    23196335.0924   23196341.1304
      1280.191         997.551
 97  5  1 16 36 59.9980000  0  6 19  2  7 27 26 15                  -0.001429588
   7564213.248 9   5826845.97547  22807679.829    22807683.6894   22807689.6564
     -2414.636       -1881.534
  -5265419.283 9  -4093818.47948  20587500.211    20587503.2464   20587508.5244
       633.146         493.361
 -15618210.145 9 -12150532.45249  20541478.137    20541481.5924   20541487.3574
      2580.221        2010.562
  -2503536.880 9  -1942929.94448  19931429.705    19931432.9264   19931437.9094
      -564.312        -439.724
 -13086530.892 9 -10178221.64547  22374690.892    22374694.7164   22374699.7034
      1826.637        1423.354
 -10460549.188 9  -8130469.08447  23189079.693    23189082.3914   23189088.3584
      1261.780         983.205
 97  5  1 16 37 29.9980000  0  6 19  2  7 27 26 15                  -0.001440080
   7636769.287 9   5883383.07547  22821486.949    22821490.7154   22821496.6984
     -2423.420       -1888.379
  -5284315.677 9  -4108542.94748  20583904.275    20583907.3594   20583912.6914
       625.558         487.448
 -15695417.784 9 -12210694.23248  20526786.006    20526789.4464   20526795.2084
      2565.648        1999.206
  -2486380.163 9  -1929561.09548  19934694.526    19934697.7404   19934702.7284
      -580.476        -452.319
 -13141080.470 9 -10220727.81547  22364310.453    22364314.2354   22364319.2904
      1808.829        1409.477
 -10498141.340 9  -8159761.68946  23181926.119    23181928.9124   23181934.7774
      1243.259         968.773
 97  5  1 16 37 59.9980000  0  6 19  2  7 27 26 15                  -0.001450552
   7709585.060 9   5940122.56447  22835343.394    22835347.1384   22835353.2044
     -2430.502       -1893.898
  -5302991.116 9  -4123095.24948  20580350.550    20580353.5654   20580358.8804
       619.936         483.067
 -15772175.257 9 -12270505.23949  20512179.562    20512182.9934   20512188.7434
      2551.863        1988.465
  -2468742.240 9  -1915817.27948  19938050.942    19938054.1594   19938059.1574
      -594.958        -463.604
 -13195090.072 9 -10262813.22748  22354032.689    22354036.4894   22354041.6194
      1792.087        1396.431
 -10535175.802 9  -8188619.72147  23174878.528    23174881.5024   23174887.3744
      1226.095         955.399
 97  5  1 16 38 29.9980000  0  6 19  2  7 27 26 15                  -0.001461011
   7782627.148 9   5997038.39847  22849243.074    22849246.6314   22849252.7254
     -2438.310       -1899.982
  -5321474.978 9  -4137498.26248  20576833.198    20576836.2084   20576841.5064
       613.011         477.671
 -15848498.453 9 -12329977.84648  20497655.754    20497659.1984   20497664.9584
      2536.927        1976.826
  -2450647.095 9  -1901717.17948  19941494.360    19941497.5654   19941502.5614
      -610.877        -476.008
 -13248569.242 9 -10304485.31248  22343856.007    22343859.7864   22343864.8964
      1773.847        1382.218
 -10571676.065 9  -8217061.49147  23167933.005    23167935.6884   23167941.6164
      1207.810         941.151
 97  5  1 16 38 59.9980000  0  6 19  2  7 27 26 15                  -0.001471464
   7855885.020 9   6054122.38847  22863183.551    22863187.1854   22863193.3174
     -2444.821       -1905.055
  -5339770.562 9  -4151754.56948  20573351.717    20573354.6704   20573359.9614
       607.326         473.241
 -15924381.321 9 -12389107.34149  20483215.736    20483219.1564   20483224.9154
      2522.602        1965.664
  -2432084.295 9  -1887252.67748  19945026.728    19945029.9504   19945034.9494
      -626.115        -487.882
 -13301515.524 9 -10345742.16648  22333780.739    22333784.4924   22333789.5394
      1756.590        1368.771
 -10607639.413 9  -8245084.89247  23161089.103    23161092.0464   23161098.0104
      1190.342         927.539
 97  5  1 16 39 29.9980000  0  6 19  2  7 27 26 15                  -0.001481912
   7929349.313 9   6111367.21747  22877163.338    22877167.0124   22877173.1704
     -2452.270       -1910.860
  -5357885.612 9  -4165870.19748  20569904.518    20569907.5104   20569912.7914
       601.049         468.350
 -15999818.094 9 -12447889.22549  20468860.590    20468864.0114   20468869.7894
      2507.074        1953.564
  -2413038.772 9  -1872412.02148  19948651.007    19948654.1954   19948659.2214
      -643.037        -501.068
 -13353925.866 9 -10386581.39548  22323807.437    22323811.1894   22323816.2044
      1737.972        1354.264
 -10643058.036 9  -8272683.82247  23154349.079    23154352.0644   23154358.1364
      1171.453         912.821
 97  5  1 16 39 59.9980000  0  6 19  2  7 27 26 15                  -0.001492359
   8003013.573 9   6168767.87047  22891181.148    22891184.9444   22891191.0914
     -2459.190       -1916.252
  -5375846.337 9  -4179865.57648  20566486.714    20566489.7194   20566494.9744
       595.835         464.287
 -16074827.318 9 -12506337.95849  20454586.753    20454590.2074   20454595.9694
      2493.128        1942.697
  -2393513.534 9  -1857197.56548  19952366.541    19952369.7534   19952374.7914
      -659.091        -513.577
 -13405808.606 9 -10427009.51248  22313934.459    22313938.2204   22313943.2374
      1720.601        1340.728
 -10677940.824 9  -8299865.23847  23147710.853    23147714.0694   23147720.2294
      1153.683         898.974
 97  5  1 16 40 29.9980000  0  6 19  2  7 27 26 15                  -0.001502815
   8076890.188 9   6226333.98247  22905239.598    22905243.2734   22905249.4284
     -2466.329       -1921.815
  -5393642.871 9  -4193733.01348  20563100.214    20563103.1664   20563108.3854
       590.438         460.082
 -16149420.845 9 -12564462.77649  20440392.087    20440395.5494   20440401.2974
      2479.465        1932.051
  -2373505.124 9  -1841606.61448  19956173.998    19956177.2254   19956182.2754
      -674.977        -525.956
 -13457181.179 9 -10467040.09647  22304158.568    22304162.2914   22304167.3634
      1704.139        1327.900
 -10712291.381 9  -8326631.91747  23141174.314    23141177.4334   23141183.5234
      1136.113         885.283
 97  5  1 16 40 59.9980000  0  6 19  2  7 27 26 15                  -0.001513280
   8150996.362 9   6284078.97247  22919341.791    22919345.2674   22919351.4284
     -2474.837       -1928.444
  -5411280.180 9  -4207476.37848  20559743.920    20559746.8794   20559752.1194
       584.665         455.583
 -16223593.319 9 -12622259.49649  20426277.568    20426281.0004   20426286.7544
      2464.672        1920.524
  -2353024.466 9  -1825647.67548  19960071.382    19960074.5814   19960079.6354
      -691.059        -538.488
 -13508062.351 9 -10506687.76647  22294476.176    22294479.8914   22294485.0164
      1687.198        1314.700
 -10746112.857 9  -8352986.31747  23134738.419    23134741.4274   23134747.5064
      1117.956         871.135
 97  5  1 16 41 29.9980000  0  6 19  2  7 27 26 15                  -0.001523727
   8225364.071 9   6342027.76047  22933493.592    22933496.9814   22933503.2204
     -2483.265       -1935.012
  -5428739.885 9  -4221081.34548  20556421.475    20556424.4234   20556429.6784
       579.034         451.195
 -16297312.961 9 -12679703.35849  20412249.225    20412252.6234   20412258.3804
      2449.607        1908.785
  -2332058.462 9  -1809310.54648  19964061.099    19964064.2934   19964069.3494
      -706.923        -550.849
 -13558422.797 9 -10545929.67148  22284892.851    22284896.6034   22284901.7614
      1669.889        1301.212
 -10779381.534 9  -8378909.98047  23128407.875    23128410.7244   23128416.7334
      1099.653         856.872
 97  5  1 16 41 59.9980000  0  6 19  2  7 27 26 15                  -0.001534163
   8299982.743 9   6400172.11147  22947693.055    22947696.5194   22947702.7754
     -2491.467       -1941.403
  -5446023.780 9  -4234549.32148  20553132.480    20553135.4434   20553140.6704
       573.086         446.561
 -16370578.681 9 -12736793.51949  20398307.227    20398310.6584   20398316.3934
      2434.438        1896.965
  -2310621.034 9  -1792606.07748  19968140.490    19968143.7164   19968148.7804
      -722.301        -562.832
 -13608274.436 9 -10584775.11248  22275406.351    22275410.1734   22275415.3304
      1653.348        1288.323
 -10812099.088 9  -8404404.19447  23122181.829    23122184.8084   23122190.7284
      1081.327         842.592
 97  5  1 16 42 29.9980000  0  6 19  2  7 27 26 15                  -0.001544598
   8374828.027 9   6458493.02647  22961935.402    22961939.1334   22961945.4364
     -2498.645       -1946.996
  -5463150.865 9  -4247895.10748  20549873.268    20549876.2694   20549881.5104
       568.168         442.728
 -16443386.052 9 -12793526.52149  20384452.403    20384455.8424   20384461.5714
      2418.794        1884.774
  -2288743.876 9  -1775558.95848  19972303.542    19972306.8034   19972311.8604
      -736.833        -574.156
 -13657640.282 9 -10623242.01248  22266012.422    22266016.2214   22266021.3224
      1636.995        1275.581
 -10844280.829 9  -8429480.87547  23116057.774    23116060.8044   23116066.6514
      1063.439         828.654
 97  5  1 16 42 59.9980000  0  6 19  2  7 27 26 15                  -0.001555018
   8449891.296 9   6516983.81447  22976219.447    22976223.2404   22976229.6434
     -2505.827       -1952.592
  -5480122.816 9  -4261120.00948  20546643.522    20546646.5864   20546651.8624
       562.842         438.578
 -16515710.431 9 -12849883.16649  20370689.494    20370692.9614   20370698.7084
      2402.503        1872.080
  -2266414.229 9  -1758159.24648  19976552.691    19976555.9864   19976561.0404
      -752.452        -586.326
 -13706496.506 9 -10661311.80948  22256715.435    22256719.2264   22256724.2934
      1619.567        1262.000
 -10875912.387 9  -8454128.85846  23110038.619    23110041.4784   23110047.2564
      1044.861         814.177
 97  5  1 16 43 29.9980000  0  6 19  2  7 27 26 15                  -0.001565435
   8525148.220 9   6575625.49146  22990540.413    22990544.1514   22990550.6014
     -2511.476       -1956.994
  -5496941.041 9  -4274225.12448  20543443.037    20543446.1684   20543451.4794
       558.188         434.952
 -16587559.985 9 -12905869.81749  20357016.943    20357020.4294   20357026.1714
      2387.387        1860.302
  -2243617.533 9  -1740395.60648  19980890.775    19980894.0434   19980899.1054
      -767.477        -598.034
 -13754833.460 9 -10698976.98048  22247517.272    22247521.0394   22247526.1024
      1602.891        1249.006
 -10906992.578 9  -8478347.20547  23104124.362    23104127.1434   23104132.9224
      1026.997         800.257
 97  5  1 16 43 59.9980000  0  6 19  2  7 27 26 15                  -0.001575851
   8600612.502 9   6634428.73647  23004900.760    23004904.5994   23004911.0564
     -2519.063       -1962.906
  -5513579.662 9  -4287190.28648  20540276.832    20540279.9504   20540285.2564
       551.533         429.766
 -16658934.910 9 -12961486.62849  20343434.670    20343438.1924   20343443.9634
      2371.429        1847.867
  -2220334.988 9  -1722253.38648  19985321.371    19985324.6064   19985329.6634
      -784.103        -610.989
 -13802644.355 9 -10736232.23348  22238419.172    22238422.9034   22238427.9914
      1584.885        1234.975
 -10937507.600 9  -8502125.15446  23098317.695    23098320.3774   23098326.1164
      1007.850         785.338
 97  5  1 16 44 29.9980000  0  6 19  2  7 27 26 15                  -0.001586270
   8676277.966 9   6693388.76446  23019299.489    23019303.3054   23019309.8634
     -2526.083       -1968.376
  -5530046.175 9  -4300021.33648  20537143.354    20537146.4884   20537151.8024
       545.210         424.839
 -16729859.944 9 -13016752.87249  20329938.094    20329941.6134   20329947.3864
      2356.248        1836.037
  -2196588.568 9  -1703749.70148  19989840.184    19989843.4404   19989848.4784
      -799.931        -623.323
 -13849929.879 9 -10773078.09648  22229421.008    22229424.6994   22229429.8264
      1566.800        1220.883
 -10967480.188 9  -8525480.42047  23092613.707    23092616.8124   23092622.4724
       989.479         771.023
 97  5  1 16 44 59.9980000  0  6 19  2  7 27 26 15                  -0.001596673
   8752181.911 9   6752534.62146  23033743.486    23033747.4044   23033753.9784
     -2534.467       -1974.909
  -5546284.223 9  -4312674.36648  20534053.444    20534056.5024   20534061.7994
       537.172         418.576
 -16800317.051 9 -13071654.50449  20316530.565    20316534.0914   20316539.8784
      2340.744        1823.956
  -2172343.266 9  -1684857.27548  19994453.914    19994457.1954   19994462.2234
      -816.602        -636.313
 -13896647.799 9 -10809481.67848  22220530.799    22220534.5604   22220539.7244
      1547.581        1205.907
 -10996876.807 9  -8548386.88946  23087019.778    23087022.7204   23087028.5274
       970.063         755.893
 97  5  1 16 45 29.9980000  0  6 19  2  7 27 26 15                  -0.001607058
   8828327.436 9   6811868.71346  23048233.740    23048237.4294   23048244.0384
     -2542.623       -1981.265
  -5562299.357 9  -4325153.69048  20531005.784    20531008.9224   20531014.2424
       529.834         412.858
 -16870331.470 9 -13126211.18349  20303207.288    20303210.7954   20303216.5844
      2326.076        1812.527
  -2147631.280 9  -1665601.20248  19999156.423    19999159.7394   19999164.8004
      -831.566        -647.974
 -13942807.296 9 -10845450.12548  22211746.949    22211750.7074   22211755.8884
      1529.118        1191.521
 -11025710.512 9  -8570854.71646  23081532.862    23081535.7254   23081541.7404
       951.457         741.395
 97  5  1 16 45 59.9980000  0  6 19  2  7 27 26 15                  -0.001617417
   8904728.484 9   6871401.90446  23062772.486    23062776.1204   23062782.7784
     -2551.246       -1987.984
  -5578085.944 9  -4337454.93348  20528001.674    20528004.8564   20528010.1754
       522.221         406.925
 -16939893.106 9 -13180415.04649  20289970.112    20289973.6634   20289979.4304
      2310.657        1800.512
  -2122460.493 9  -1645987.62148  20003946.237    20003949.6044   20003954.6614
      -847.039        -660.030
 -13988401.221 9 -10880977.87648  22203070.740    22203074.5104   22203079.6654
      1509.900        1176.545
 -11053979.556 9  -8592882.55546  23076152.750    23076156.2114   23076162.3964
       932.554         726.665
 97  5  1 16 46 29.9980000  0  6 19  2  7 27 26 15                  -0.001627731
   8981395.681 9   6931142.49846  23077361.792    23077365.5044   23077372.1524
     -2559.689       -1994.563
  -5593643.917 9  -4349578.03048  20525041.103    20525044.2584   20525049.5664
       515.196         401.451
 -17008970.793 9 -13234241.79849  20276825.005    20276828.5994   20276834.3564
      2294.645        1788.035
  -2096815.531 9  -1626004.54948  20008826.363    20008829.6904   20008834.7604
      -862.821        -672.328
 -14033408.976 9 -10916048.86948  22194506.040    22194509.8744   22194515.0334
      1490.842        1161.695
 -11081669.761 9  -8614459.34947  23070884.070    23070886.8844   23070893.2404
       913.450         711.779
 97  5  1 16 46 59.9980000  0  6 19  2  7 27 26 15                  -0.001638029
   9058295.845 9   6991064.62046  23091995.408    23091999.1584   23092005.8084
     -2567.652       -2000.768
  -5609020.906 9  -4361560.10448  20522114.939    20522118.1214   20522123.4204
       509.366         396.909
 -17077590.109 9 -13287711.37949  20263767.163    20263770.7794   20263776.5274
      2279.197        1775.998
  -2070701.298 9  -1605655.80948  20013795.710    20013799.0884   20013804.1664
      -878.961        -684.905
 -14077869.618 9 -10950693.53748  22186045.394    22186049.2984   22186054.4544
      1472.454        1147.367
 -11108800.816 9  -8635600.44346  23065719.933    23065723.9564   23065730.5084
       894.525         697.032
 97  5  1 16 47 29.9980000  0  6 19  2  7 27 26 15                  -0.001648305
   9135425.596 9   7051165.62246  23106672.741    23106676.5654   23106683.1774
     -2575.370       -2006.782
  -5624239.576 9  -4373418.81048  20519218.955    20519222.1064   20519227.4004
       504.013         392.737
 -17145750.185 9 -13340823.11049  20250796.756    20250800.3344   20250806.0834
      2263.475        1763.747
  -2044101.570 9  -1584928.76548  20018857.488    20018860.8614   20018865.9454
      -895.664        -697.920
 -14121789.092 9 -10984916.51348  22177687.828    22177691.7294   22177696.8904
      1454.357        1133.265
 -11135372.055 9  -8656305.30046  23060663.365    23060667.5534   23060674.2064
       875.614         682.297
 97  5  1 16 47 59.9980000  0  6 19  2  7 27 26 15                  -0.001658564
   9212788.115 9   7111448.01246  23121394.324    23121398.1754   23121404.8354
     -2583.111       -2012.814
  -5639289.022 9  -4385145.65848  20516355.126    20516358.2884   20516363.5634
       498.270         388.262
 -17213426.536 9 -13393557.91349  20237918.336    20237921.9214   20237927.6684
      2247.337        1751.172
  -2016977.757 9  -1563793.34348  20024018.960    20024022.3774   20024027.4524
      -913.490        -711.810
 -14165157.595 9 -11018710.16048  22169435.101    22169438.9414   22169444.1464
      1435.933        1118.909
 -11161364.095 9  -8676558.84046  23055717.061    23055721.3414   23055728.0804
       856.094         667.086
 97  5  1 16 48 29.9980000  0  6 19  2  7 27 26 15                  -0.001668809
   9290378.357 9   7171907.84946  23136159.266    23136163.2424   23136169.9084
     -2588.778       -2017.230
  -5654159.622 9  -4396733.14148  20513525.337    20513528.5104   20513533.7694
       493.787         384.769
 -17280622.166 9 -13445918.13349  20225131.381    20225134.9604   20225140.7144
      2233.107        1740.083
  -1989321.772 9  -1542243.24248  20029281.729    20029285.1534   20029290.2364
      -929.507        -724.291
 -14207978.295 9 -11052076.95148  22161286.547    22161290.4194   22161295.6594
      1419.411        1106.034
 -11186761.698 9  -8696349.19847  23050884.385    23050888.3674   23050895.1034
       837.786         652.820
 97  5  1 16 48 59.9980000  0  6 19  2  7 27 26 15                  -0.001679068
   9368150.761 9   7232509.62046  23150959.015    23150962.9114   23150969.5274
     -2595.796       -2022.698
  -5668872.361 9  -4408197.62148  20510725.584    20510728.7664   20510734.0144
       487.046         379.516
 -17347374.580 9 -13497932.98949  20212428.835    20212432.3604   20212438.1194
      2216.957        1727.499
  -1961177.709 9  -1520312.81648  20034637.364    20034640.8024   20034645.9034
      -946.619        -737.625
 -14250284.995 9 -11085043.22748  22153235.857    22153239.7514   22153244.9564
      1400.984        1091.676
 -11211596.732 9  -8715701.16647  23046158.599    23046162.4314   23046169.1144
       817.927         637.346
 97  5  1 16 49 29.9980000  0  6 19  2  7 27 26 15                  -0.001689335
   9446105.586 9   7293253.53946  23165793.521    23165797.2964   23165803.9774
     -2601.196       -2026.906
  -5683405.336 9  -4419522.02048  20507960.038    20507963.2284   20507968.4964
       481.614         375.284
 -17413662.887 9 -13549586.19949  20199814.524    20199818.0524   20199823.8264
      2202.052        1715.885
  -1932555.442 9  -1498009.76348  20040084.069    20040087.4414   20040092.5394
      -961.613        -749.309
 -14292063.679 9 -11117598.05348  22145285.644    22145289.5184   22145294.7114
      1384.034        1078.468
 -11235862.158 9  -8734609.30347  23041541.474    23041545.0224   23041551.5324
       799.631         623.089
 97  5  1 16 49 59.9980000  0  6 19  2  7 27 26 15                  -0.001699614
   9524236.044 9   7354134.31946  23180661.241    23180665.1744   23180671.7784
     -2608.040       -2032.239
  -5697745.448 9  -4430696.14048  20505231.210    20505234.4144   20505239.6694
       473.951         369.312
 -17479480.071 9 -13600872.30449  20187289.863    20187293.4494   20187299.2214
      2185.366        1702.883
  -1903465.022 9  -1475341.91948  20045619.819    20045623.1994   20045628.2974
      -978.155        -762.199
 -14333308.427 9 -11149736.83048  22137437.027    22137440.9014   22137446.0714
      1365.112        1063.724
 -11259553.947 9  -8753070.44847  23037033.178    23037036.7364   23037043.0354
       779.373         607.304
 97  5  1 16 50 29.9980000  0  6 19  2  7 27 26 15                  -0.001709892
   9602558.416 9   7415164.63046  23195565.586    23195569.5304   23195576.1054
     -2613.105       -2036.186
  -5711882.553 9  -4441712.07348  20502540.996    20502544.2174   20502549.4794
       469.019         365.469
 -17544815.560 9 -13651783.06749  20174856.984    20174860.5394   20174866.3184
      2170.743        1691.488
  -1873904.487 9  -1452307.75248  20051245.028    20051248.4054   20051253.4884
      -992.185        -773.131
 -14374007.705 9 -11181450.56848  22129692.237    22129696.1084   22129701.2544
      1348.517        1050.792
 -11282662.625 9  -8771077.19647  23032636.455    23032639.3724   23032645.5874
       761.673         593.511
 97  5  1 16 50 59.9980000  0  6 19  2  7 27 26 15                  -0.001720163
   9681078.058 9   7476348.66646  23210507.625    23210511.4244   23210517.9974
     -2620.739       -2042.134
  -5725841.460 9  -4452589.14448  20499884.735    20499887.9274   20499893.1744
       462.378         360.295
 -17609679.913 9 -13702326.70349  20162513.722    20162517.2384   20162523.0104
      2154.414        1678.764
  -1843883.750 9  -1428914.97848  20056957.820    20056961.1734   20056966.2464
     -1008.526        -785.864
 -14414165.172 9 -11212742.10348  22122050.581    22122054.4204   22122059.5824
      1329.620        1036.068
 -11305204.837 9  -8788642.56947  23028346.972    23028349.8704   23028355.8314
       741.886         578.093
 97  5  1 16 51 29.9980000  0  6 19  2  7 27 26 15                  -0.001730419
   9759816.564 9   7537703.24246  23225491.158    23225494.9304   23225501.5004
     -2628.422       -2048.121
  -5739622.475 9  -4463327.60148  20497262.336    20497265.5004   20497270.7574
       456.359         355.604
 -17674081.005 9 -13752509.36149  20150258.518    20150262.0844   20150267.8504
      2139.142        1666.864
  -1813388.442 9  -1405152.41248  20062760.863    20062764.2294   20062769.3214
     -1024.442        -798.266
 -14453779.142 9 -11243610.14048  22114512.312    22114516.1624   22114521.3274
      1311.400        1021.870
 -11327169.237 9  -8805757.68346  23024167.517    23024170.1894   23024176.0954
       722.444         562.943
 97  5  1 16 51 59.9980000  0  6 19  2  7 27 26 15                  -0.001740663
   9838781.886 9   7599234.56046  23240517.812    23240521.6124   23240528.2874
     -2635.704       -2053.795
  -5753231.781 9  -4473932.26548  20494672.541    20494675.7484   20494680.9964
       451.184         351.572
 -17738039.660 9 -13802347.26649  20138087.633    20138091.1894   20138096.9464
      2124.935        1655.793
  -1782423.579 9  -1381023.96948  20068653.332    20068656.6684   20068661.7484
     -1039.648        -810.115
 -14492862.242 9 -11274064.52048  22107075.064    22107078.9144   22107084.0784
      1294.366        1008.597
 -11348560.651 9  -8822426.32347  23020096.805    23020099.4824   23020105.5214
       703.812         548.425
 97  5  1 16 52 29.9980000  0  6 19  2  7 27 26 15                  -0.001750888
   9917983.705 9   7660950.17146  23255589.446    23255593.3064   23255600.0074
     -2643.749       -2060.064
  -5766680.177 9  -4484411.54148  20492113.343    20492116.5644   20492121.8494
       445.758         347.344
 -17801562.793 9 -13851845.80049  20125999.678    20126003.1814   20126008.9554
      2110.390        1644.460
  -1750992.416 9  -1356532.17148  20074634.476    20074637.8634   20074642.9224
     -1055.298        -822.310
 -14531419.673 9 -11304109.28348  22099737.837    22099741.6714   22099746.8504
      1276.542         994.708
 -11369380.933 9  -8838649.92247  23016134.435    23016137.4974   23016143.5694
       684.648         533.492
 97  5  1 16 52 59.9980000  0  6 19  2  7 27 26 15                  -0.001761090
   9997421.638 9   7722849.75546  23270706.071    23270709.8994   23270716.6374
     -2651.791       -2066.331
  -5779947.302 9  -4494749.56648  20489588.685    20489591.9294   20489597.1974
       438.716         341.857
 -17864647.067 9 -13901002.36449  20113995.140    20113998.6664   20114004.4194
      2095.047        1632.504
  -1719087.519 9  -1331671.22948  20080705.846    20080709.1794   20080714.2414
     -1071.665        -835.064
 -14569434.849 9 -11333731.50948  22092503.821    22092507.6414   22092512.8004
      1258.102         980.339
 -11389620.320 9  -8854420.87347  23012283.213    23012286.1004   23012292.1134
       664.646         517.906
 97  5  1 16 53 29.9980000  0  6 19  2  7 27 26 15                  -0.001771285
  10077086.521 9   7784926.18246  23285865.906    23285869.6494   23285876.4184
     -2658.616       -2071.649
  -5793008.678 9  -4504927.27048  20487103.210    20487106.4254   20487111.6944
       432.541         337.045
 -17927263.485 9 -13949794.36849  20102079.666    20102083.1744   20102088.9354
      2079.776        1620.605
  -1686700.306 9  -1306434.46148  20086868.925    20086872.2854   20086877.3404
     -1087.004        -847.016
 -14606910.646 9 -11362933.44348  22085372.407    22085376.1914   22085381.3854
      1240.597         966.699
 -11409267.570 9  -8869730.42147  23008544.625    23008547.4484   23008553.2854
       645.658         503.110
 97  5  1 16 53 59.9980000  0  6 19  2  7 27 26 15                  -0.001781480
  10156953.982 9   7847160.46846  23301064.283    23301067.9694   23301074.8674
     -2665.492       -2077.007
  -5805882.728 9  -4514959.00948  20484653.379    20484656.5864   20484661.8594
       425.991         331.941
 -17989405.745 9 -13998216.89748  20090254.361    20090257.8854   20090263.6624
      2063.166        1607.662
  -1653843.275 9  -1280831.59748  20093121.439    20093124.7804   20093129.8474
     -1103.186        -859.625
 -14643853.991 9 -11391720.48248  22078342.278    22078346.0834   22078351.2884
      1222.473         952.576
 -11428340.246 9  -8884592.25347  23004915.625    23004918.0124   23004923.8694
       626.046         487.828
 97  5  1 16 54 29.9980000  0  6 19  2  7 27 26 15                  -0.001791679
  10237006.057 9   7909538.61146  23316297.696    23316301.4914   23316308.3544
     -2670.886       -2081.210
  -5818572.126 9  -4524846.86148  20482238.674    20482241.8784   20482247.1654
       420.363         327.555
 -18051052.460 9 -14046253.28749  20078523.356    20078526.8874   20078532.6814
      2046.960        1595.034
  -1620517.340 9  -1254863.35648  20099463.145    20099466.4904   20099471.5684
     -1118.242        -871.357
 -14680256.341 9 -11420085.95748  22071415.166    22071418.9794   22071424.2064
      1204.818         938.819
 -11446838.606 9  -8899006.55347  23001395.232    23001397.8554   23001403.7264
       607.549         473.415
 97  5  1 16 54 59.9980000  0  6 19  2  7 27 26 15                  -0.001801885
  10317242.848 9   7972060.69446  23331566.428    23331570.1524   23331577.0504
     -2678.096       -2086.828
  -5831061.531 9  -4534578.87048  20479862.012    20479865.2414   20479870.5054
       412.550         321.468
 -18112178.631 9 -14093884.05849  20066891.422    20066894.9824   20066900.7544
      2028.310        1580.501
  -1586715.184 9  -1228524.02948  20105895.484    20105898.8244   20105903.9294
     -1135.048        -884.453
 -14716112.485 9 -11448025.82348  22064591.936    22064595.7504   22064601.0234
      1185.929         924.101
 -11464756.740 9  -8912968.72747  22997985.173    22997988.2044   22997994.0894
       587.196         457.555
 97  5  1 16 55 29.9980000  0  6 19  2  7 27 26 15                  -0.001812093
  10397681.555 9   8034740.09346  23346873.517    23346877.2464   23346884.1114
     -2684.375       -2091.721
  -5843352.018 9  -4544155.88448  20477523.223    20477526.4524   20477531.7184
       406.994         317.138
 -18172776.304 9 -14141103.01748  20055360.109    20055363.6514   20055369.4074
      2011.848        1567.674
  -1552435.525 9  -1201812.62748  20112418.690    20112422.0454   20112427.1724
     -1150.186        -896.249
 -14751422.340 9 -11475540.00648  22057872.676    22057876.4884   22057881.8054
      1168.048         910.167
 -11482093.439 9  -8926477.86547  22994685.743    22994689.0754   22994695.0344
       568.713         443.153
 97  5  1 16 55 59.9980000  0  6 19  2  7 27 26 15                  -0.001822288
  10478326.862 9   8097580.49846  23362219.824    23362223.6774   23362230.5144
     -2692.256       -2097.862
  -5855453.921 9  -4553585.94648  20475220.317    20475223.5284   20475228.8164
       399.357         311.187
 -18232865.859 9 -14187926.03748  20043925.414    20043928.9794   20043934.7114
      1993.808        1553.617
  -1517680.312 9  -1174730.66748  20119032.425    20119035.7524   20119040.9064
     -1167.209        -909.514
 -14786170.163 9 -11502616.24648  22051260.447    22051264.2404   22051269.5654
      1148.264         894.751
 -11498854.930 9  -8939538.76847  22991496.482    22991499.4614   22991505.5124
       548.396         427.322
 97  5  1 16 56 29.9980000  0  6 19  2  7 27 26 15                  -0.001832473
  10559181.609 9   8160584.09846  23377605.980    23377609.9124   23377616.6884
     -2698.554       -2102.769
  -5867355.747 9  -4562860.10548  20472955.463    20472958.6744   20472963.9504
       393.690         306.771
 -18292452.061 9 -14234356.84049  20032586.536    20032590.1084   20032595.8384
      1978.412        1541.620
  -1482445.039 9  -1147274.63848  20125737.445    20125740.8324   20125745.9874
     -1182.243        -921.228
 -14820355.081 9 -11529253.85748  22044755.349    22044759.1074   22044764.4364
      1130.512         880.918
 -11515037.251 9  -8952148.38047  22988417.090    22988419.9394   22988426.1784
       530.030         413.010
 97  5  1 16 56 59.9980000  0  6 19  2  7 27 26 15                  -0.001842649
  10640258.642 9   8223760.89246  23393034.515    23393038.4614   23393045.2634
     -2706.235       -2108.755
  -5879051.859 9  -4571973.96948  20470729.769    20470733.0044   20470738.2394
       386.486         301.158
 -18351554.437 9 -14280410.63048  20021339.701    20021343.2744   20021349.0184
      1962.043        1528.865
  -1446725.200 9  -1119441.02248  20132534.723    20132538.1014   20132543.2564
     -1198.794        -934.125
 -14853982.598 9 -11555457.12948  22038356.262    22038360.0434   22038365.3444
      1111.627         866.203
 -11530635.589 9  -8964302.93547  22985448.044    22985451.7014   22985457.9144
       510.070         397.457
 97  5  1 16 57 29.9980000  0  6 19  2  7 27 26 15                  -0.001852819
  10721524.768 9   8287085.04846  23408499.019    23408503.0044   23408509.7054
     -2711.229       -2112.646
  -5890585.738 9  -4580961.41848  20468534.979    20468538.1854   20468543.4264
       382.600         298.130
 -18410204.605 9 -14326112.05249  20010178.989    20010182.5154   20010188.2504
      1947.996        1517.919
  -1410540.875 9  -1091245.46848  20139420.391    20139423.7544   20139428.9394
     -1213.518        -945.598
 -14887072.603 9 -11581241.57048  22032059.371    22032063.1934   22032068.4884
      1094.435         852.806
 -11545665.249 9  -8976014.35747  22982587.942    22982591.6624   22982597.9514
       491.965         383.349
 97  5  1 16 57 59.9980000  0  6 19  2  7 27 26 15                  -0.001862981
  10802955.898 9   8350537.76746  23423995.056    23423998.9324   23424005.7024
     -2717.001       -2117.144
  -5901975.201 9  -4589836.33248  20466367.673    20466370.8534   20466376.0914
       377.115         293.856
 -18468397.087 9 -14371456.83448  19999105.263    19999108.8484   19999114.5924
      1931.943        1505.410
  -1373883.511 9  -1062681.31648  20146396.091    20146399.4414   20146404.6104
     -1229.801        -958.286
 -14919619.490 9 -11606602.78648  22025865.851    22025869.6554   22025874.9814
      1076.023         838.459
 -11560118.128 9  -8987276.37247  22979837.546    22979841.3564   22979847.7654
       471.972         367.770
 97  5  1 16 58 29.9980000  0  6 19  2  7 27 26 15                  -0.001873148
  10884534.602 9   8414105.48146  23439518.953    23439522.8824   23439529.7344
     -2722.685       -2121.573
  -5913221.495 9  -4598599.68948  20464227.576    20464230.7584   20464235.9904
       371.648         289.596
 -18526131.345 9 -14416444.55948  19988118.786    19988122.3854   19988128.1474
      1916.046        1493.023
  -1336762.890 9  -1033756.18148  20153459.885    20153463.2634   20153468.4504
     -1245.745        -970.710
 -14951639.086 9 -11631553.12648  22019772.579    22019776.4764   22019781.8134
      1057.698         824.180
 -11573990.273 9  -8998085.85247  22977197.724    22977201.6284   22977208.0644
       451.876         352.111
 97  5  1 16 58 59.9980000  0  6 19  2  7 27 26 15                  -0.001883315
  10966258.332 9   8477786.20146  23455070.484    23455074.4694   23455081.3864
     -2726.668       -2124.676
  -5924321.934 9  -4607249.38848  20462115.198    20462118.4214   20462123.6664
       367.516         286.376
 -18583404.242 9 -14461072.78348  19977220.107    19977223.6874   19977229.4344
      1900.938        1481.250
  -1299184.437 9  -1004474.29248  20160610.851    20160614.2244   20160619.3954
     -1260.613        -982.296
 -14983124.786 9 -11656087.44648  22013781.055    22013784.9614   22013790.2904
      1040.272         810.601
 -11587278.985 9  -9008440.70647  22974669.204    22974672.7964   22974679.2374
       432.960         337.371
 97  5  1 16 59 29.9980000  0  6 19  2  7 27 26 15                  -0.001893473
  11048129.516 9   8541581.81446  23470650.123    23470654.0794   23470661.0354
     -2731.579       -2128.503
  -5935281.225 9  -4615789.10448  20460029.733    20460032.9454   20460038.1724
       362.723         282.641
 -18640202.587 9 -14505331.23048  19966411.726    19966415.3114   19966421.0584
      1885.664        1469.349
  -1261134.319 9   -974824.87548  20167851.556    20167854.9384   20167860.1134
     -1276.089        -994.355
 -15014058.224 9 -11680191.43448  22007894.714    22007898.5714   22007903.9064
      1021.822         796.225
 -11599982.391 9  -9018339.47347  22972251.715    22972255.3874   22972261.8514
       413.890         322.512
 97  5  1 16 59 59.9980000  0  6 19  2  7 27 26 15                  -0.001903618
  11130170.278 9   8605509.57546  23486262.251    23486266.0014   23486272.9694
     -2737.397       -2133.037
  -5946058.923 9  -4624187.32048  20457978.828    20457982.0114   20457987.2454
       356.164         277.530
 -18696533.451 9 -14549225.40348  19955692.318    19955695.9034   19955701.6414
      1870.254        1457.341
  -1222613.626 9   -944808.77748  20175181.768    20175185.2084   20175190.3774
     -1291.459       -1006.332
 -15044425.952 9 -11703854.60448  22002116.008    22002119.8404   22002125.1724
      1003.240         781.745
 -11612102.073 9  -9027783.39747  22969945.377    22969949.0914   22969955.6524
       394.603         307.483
 97  5  1 17  0 29.9980000  0  6 19  2  7 27 26 15                  -0.001913746
  11212418.198 9   8669598.74346  23501913.520    23501917.3034   23501924.3374
     -2746.286       -2139.963
  -5956618.529 9  -4632415.59348  20455969.355    20455972.5674   20455977.7974
       347.470         270.756
 -18752386.830 9 -14592747.50448  19945063.757    19945067.3594   19945073.1174
      1852.698        1443.661
  -1183611.710 9   -914417.69748  20182603.633    20182607.0544   20182612.2224
     -1309.213       -1020.166
 -15074220.478 9 -11727071.12748  21996446.302    21996450.1444   21996455.4754
       982.473         765.563
 -11623625.340 9  -9036762.56946  22967752.380    22967756.3184   22967762.7994
       373.164         290.777
 97  5  1 17  0 59.9980000  0  6 19  2  7 27 26 15                  -0.001923846
  11294882.015 9   8733856.14346  23517605.849    23517609.7034   23517616.7714
     -2752.079       -2144.477
  -5966984.242 9  -4640492.77948  20453996.775    20454000.0434   20454005.2864
       342.916         267.207
 -18807765.773 9 -14635899.92048  19934525.472    19934529.1024   19934534.8414
      1838.383        1432.506
  -1144122.413 9   -883646.84548  20190118.211    20190121.6504   20190126.8054
     -1324.188       -1031.835
 -15103441.447 9 -11749840.71848  21990885.710    21990889.6124   21990894.9324
       964.840         751.823
 -11634559.353 9  -9045282.61347  22965671.752    22965675.4804   22965681.9894
       354.950         276.584
 97  5  1 17  1 29.9980000  0  6 19  2  7 27 26 15                  -0.001933916
  11377568.613 9   8798287.14046  23533340.624    23533344.4864   23533351.6604
     -2759.788       -2150.484
  -5977159.162 9  -4648421.29948  20452060.597    20452063.8244   20452069.0704
       335.722         261.601
 -18862668.637 9 -14678681.36548  19924077.826    19924081.4364   19924087.1594
      1822.277        1419.956
  -1104144.325 9   -852495.11648  20197725.806    20197729.2424   20197734.4134
     -1340.545       -1044.581
 -15132093.017 9 -11772166.62748  21985433.562    21985437.4174   21985442.7564
       945.655         736.874
 -11644899.794 9  -9053340.10647  22963704.173    22963707.8174   22963714.2924
       334.785         260.871
 97  5  1 17  1 59.9980000  0  6 19  2  7 27 26 15                  -0.001943981
  11460445.959 9   8862866.76146  23549111.843    23549115.6344   23549122.7634
     -2766.378       -2155.619
  -5987160.731 9  -4656214.73548  20450157.389    20450160.5954   20450165.8194
       330.101         257.221
 -18917118.677 9 -14721109.95548  19913716.355    19913719.9504   19913725.6564
      1806.475        1407.643
  -1063715.084 9   -820991.83348  20205419.243    20205422.6864   20205427.8654
     -1356.057       -1056.668
 -15160213.618 9 -11794078.78348  21980082.366    21980086.2504   21980091.5654
       927.958         723.084
 -11654668.302 9  -9060951.96447  22961845.275    22961848.8634   22961855.4714
       315.301         245.689
 97  5  1 17  2 29.9980000  0  6 19  2  7 27 26 15                  -0.001954028
  11543526.228 9   8927604.51446  23564921.870    23564925.4164   23564932.5704
     -2772.641       -2160.499
  -5996990.861 9  -4663874.58848  20448286.733    20448289.9964   20448295.2054
       324.925         253.188
 -18971071.521 9 -14763151.12648  19903449.442    19903453.0404   19903458.7734
      1790.015        1394.817
  -1022799.801 9   -789109.82448  20213205.208    20213208.6204   20213213.8194
     -1371.863       -1068.984
 -15187787.099 9 -11815564.62348  21974835.319    21974839.1684   21974844.5084
       910.018         709.105
 -11663834.089 9  -9068094.15447  22960101.233    22960104.7224   22960111.2634
       295.460         230.228
 97  5  1 17  2 59.9980000  0  6 19  2  7 27 26 15                  -0.001964059
  11626800.230 9   8992493.22646  23580768.652    23580771.9784   23580779.2264
     -2778.697       -2165.218
  -6006652.714 9  -4671403.31248  20446448.149    20446451.4254   20446456.6514
       319.291         248.798
 -19024529.301 9 -14804806.52748  19893276.722    19893280.3414   19893286.0664
      1774.082        1382.402
   -981410.530 9   -756858.46648  20221081.344    20221084.7554   20221089.9514
     -1387.020       -1080.795
 -15214815.315 9 -11836625.57348  21969692.023    21969695.8514   21969701.1784
       892.163         695.192
 -11672400.163 9  -9074769.05947  22958471.032    22958474.7244   22958481.2404
       275.787         214.899
 97  5  1 17  3 29.9980000  0  6 19  2  7 27 26 15                  -0.001974101
  11710237.101 9   9057508.84646  23596646.250    23596649.5444   23596656.8904
     -2784.562       -2169.789
  -6016148.822 9  -4678802.88348  20444641.158    20444644.4084   20444649.6184
       313.128         243.996
 -19077528.610 9 -14846104.68348  19883191.309    19883194.8834   19883200.6124
      1758.402        1370.183
   -939593.981 9   -724274.16848  20229038.807    20229042.1944   20229047.3974
     -1401.543       -1092.111
 -15241329.830 9 -11857286.24248  21964646.525    21964650.3224   21964655.6414
       874.675         681.565
 -11680391.966 9  -9080996.44947  22956950.751    22956953.9724   22956960.4064
       256.218         199.650
 97  5  1 17  3 59.9980000  0  6 19  2  7 27 26 15                  -0.001984150
  11793842.118 9   9122655.49746  23612555.545    23612559.1134   23612566.5094
     -2789.896       -2173.945
  -6025473.969 9  -4686069.23648  20442866.706    20442869.9134   20442875.1414
       307.674         239.746
 -19130057.488 9 -14887036.26448  19873195.346    19873198.9454   19873204.6894
      1742.641        1357.902
   -897343.373 9   -691351.64048  20237078.836    20237082.2314   20237087.4394
     -1416.014       -1103.388
 -15267324.728 9 -11877542.02048  21959699.922    21959703.6814   21959708.9824
       857.422         668.121
 -11687799.957 9  -9086768.92747  22955541.047    22955544.3584   22955550.6794
       236.849         184.558
 97  5  1 17  4 29.9980000  0  6 19  2  7 27 26 15                  -0.001994209
  11877609.435 9   9187928.60446  23628496.041    23628499.5434   23628506.9974
     -2794.996       -2177.919
  -6034627.055 9  -4693201.52548  20441124.917    20441128.1254   20441133.3524
       302.042         235.357
 -19182117.885 9 -14927602.79848  19863288.542    19863292.1354   19863297.8654
      1727.720        1346.275
   -854668.730 9   -658098.69948  20245199.565    20245202.9474   20245208.1724
     -1429.412       -1113.828
 -15292798.563 9 -11897391.77348  21954852.385    21954856.1794   21954861.4894
       840.419         654.872
 -11694628.777 9  -9092090.11447  22954241.349    22954244.8224   22954251.2374
       218.022         169.887
 97  5  1 17  4 59.9980000  0  6 19  2  7 27 26 15                  -0.002004259
  11961569.321 9   9253351.77046  23644473.012    23644476.6764   23644484.0924
     -2801.669       -2183.119
  -6043570.339 9  -4700170.32548  20439423.034    20439426.2814   20439431.5044
       294.873         229.771
 -19233696.111 9 -14967793.61448  19853473.517    19853477.1214   19853482.8634
      1711.396        1333.555
   -811552.868 9   -624501.95148  20253404.298    20253407.6574   20253412.9044
     -1444.381       -1125.492
 -15317721.649 9 -11916812.37048  21950109.633    21950113.4844   21950118.8074
       821.758         640.331
 -11700852.533 9  -9096939.82146  22953057.215    22953060.4934   22953066.8814
       197.522         153.913
 97  5  1 17  5 29.9970000  0  6 19  2  7 27 26 15                  -0.002014311
  12045694.218 9   9318903.51946  23660481.660    23660485.2094   23660492.6374
     -2806.364       -2186.777
  -6052324.390 9  -4706991.67248  20437757.217    20437760.4514   20437765.6644
       289.253         225.392
 -19284797.801 9 -15007613.10548  19843749.201    19843752.7934   19843758.5424
      1695.890        1321.473
   -768011.811 9   -590573.88348  20261689.834    20261693.2584   20261698.5244
     -1458.249       -1136.298
 -15342108.248 9 -11935814.92548  21945469.024    21945472.8884   21945478.2464
       804.437         626.834
 -11706487.804 9  -9101330.96347  22951985.278    22951988.2274   22951994.5174
       178.585         139.157
 97  5  1 17  5 59.9970000  0  6 19  2  7 27 26 15                  -0.002024367
  12129981.767 9   9384582.01046  23676520.950    23676524.7714   23676532.1544
     -2812.195       -2191.321
  -6060887.221 9  -4713664.01948  20436127.828    20436131.0074   20436136.2284
       282.081         219.803
 -19335408.196 9 -15047049.77248  19834118.401    19834121.9474   19834127.7044
      1678.838        1308.185
   -724017.905 9   -556292.94648  20270061.631    20270065.0454   20270070.3154
     -1474.112       -1148.659
 -15365947.411 9 -11954390.91148  21940932.611    21940936.4264   21940941.8074
       785.361         611.970
 -11711531.921 9  -9105261.48546  22951025.324    22951028.3344   22951034.6054
       158.315         123.362
 97  5  1 17  6 29.9970000  0  6 19  2  7 27 26 15                  -0.002034423
  12214419.685 9   9450377.64446  23692588.852    23692592.8134   23692600.3574
     -2817.519       -2195.469
  -6069257.100 9  -4720186.00948  20434535.081    20434538.2724   20434543.5034
       275.575         214.734
 -19385539.376 9 -15086113.01648  19824578.728    19824582.2714   19824588.0354
      1662.768        1295.663
   -679576.289 9   -521663.14048  20278518.583    20278522.0274   20278527.3204
     -1489.219       -1160.430
 -15389230.514 9 -11972533.60248  21936501.998    21936505.8354   21936511.2284
       766.466         597.246
 -11715992.958 9  -9108737.64247  22950176.541    22950179.5574   22950185.7864
       138.681         108.063
 97  5  1 17  6 59.9970000  0  6 19  2  7 27 26 15                  -0.002044466
  12299025.941 9   9516304.46546  23708689.107    23708692.9204   23708700.6144
     -2823.159       -2199.864
  -6077430.089 9  -4726554.57948  20432979.743    20432983.0184   20432988.2384
       268.953         209.574
 -19435173.377 9 -15124788.85548  19815133.681    19815137.2564   19815143.0244
      1645.803        1282.444
   -634667.467 9   -486669.28048  20287064.474    20287067.9244   20287073.2234
     -1505.145       -1172.840
 -15411940.411 9 -11990229.63948  21932180.431    21932184.3104   21932189.6814
       747.118         582.170
 -11719859.660 9  -9111750.69447  22949440.768    22949443.7824   22949450.0364
       118.697          92.491
 97  5  1 17  7 29.9970000  0  6 19  2  7 27 26 15                  -0.002054492
  12383787.516 9   9582352.30846  23724818.706    23724822.6654   23724830.3064
     -2827.959       -2203.604
  -6085407.868 9  -4732771.04548  20431461.673    20431464.9344   20431470.1394
       262.657         204.668
 -19484303.395 9 -15163071.98048  19805784.589    19805788.1494   19805793.9114
      1629.212        1269.516
   -589270.185 9   -451294.80348  20295703.352    20295706.7584   20295712.0794
     -1521.760       -1185.787
 -15434063.804 9 -12007468.66448  21927970.471    21927974.3864   21927979.7614
       727.498         566.882
 -11723132.396 9  -9114300.90647  22948818.027    22948820.9734   22948827.2274
        99.128          77.243
 97  5  1 17  7 59.9970000  0  6 19  2  7 27 26 15                  -0.002064490
  12468714.004 9   9648528.66746  23740979.663    23740983.7594   23740991.3924
     -2832.835       -2207.404
  -6093190.115 9  -4738835.14148  20429980.753    20429984.0184   20429989.2444
       257.134         200.364
 -19532930.043 9 -15200962.86548  19796531.251    19796534.8454   19796540.5964
      1613.572        1257.329
   -543361.375 9   -415521.73048  20304439.439    20304442.9304   20304448.2774
     -1537.596       -1198.127
 -15455589.588 9 -12024242.01848  21923874.250    21923878.1544   21923883.5384
       708.641         552.188
 -11725804.601 9  -9116383.14847  22948309.405    22948312.6264   22948318.7734
        80.029          62.360
 97  5  1 17  8 29.9970000  0  6 19  2  7 27 26 15                  -0.002074463
  12553803.545 9   9714832.07346  23757171.847    23757175.8974   23757183.4904
     -2838.585       -2211.884
  -6100792.624 9  -4744759.19048  20428534.022    20428537.3144   20428542.5464
       251.086         195.651
 -19581067.556 9 -15238472.61048  19787370.990    19787374.6034   19787380.3464
      1596.770        1244.236
   -496970.901 9   -379373.33648  20313267.269    20313270.7634   20313276.1254
     -1553.794       -1210.749
 -15476537.148 9 -12040564.80648  21919888.017    21919891.9754   21919897.3664
       689.284         537.104
 -11727888.678 9  -9118007.12747  22947912.792    22947916.0974   22947922.1084
        60.186          46.898
 97  5  1 17  8 59.9970000  0  6 19  2  7 27 26 15                  -0.002084417
  12639056.317 9   9781262.68246  23773394.989    23773399.0514   23773406.6224
     -2844.837       -2216.756
  -6108225.697 9  -4750551.20248  20427119.626    20427122.8744   20427128.1004
       244.393         190.436
 -19628703.886 9 -15275591.81848  19778306.075    19778309.6974   19778315.4354
      1579.072        1230.446
   -450092.772 9   -342844.94848  20322187.873    20322191.3774   20322196.7504
     -1571.390       -1224.460
 -15496916.258 9 -12056444.64048  21916010.016    21916013.9524   21916019.3694
       669.387         521.600
 -11729382.887 9  -9119171.48247  22947628.427    22947631.7714   22947637.8474
        39.372          30.679
 97  5  1 17  9 29.9970000  0  6 19  2  7 27 26 15                  -0.002094359
  12724458.606 8   9847809.77445  23789646.461    23789650.6934   23789658.2874
     -2849.769       -2220.599
  -6115500.239 9  -4756219.68948  20425735.325    20425738.5654   20425743.8024
       239.543         186.657
 -19675855.870 9 -15312333.61648  19769333.358    19769336.9544   19769342.6654
      1563.284        1218.143
   -402731.121 9   -305939.79748  20331200.502    20331204.0014   20331209.4054
     -1586.834       -1236.494
 -15516744.284 9 -12071895.06048  21912236.839    21912240.8164   21912246.2354
       651.614         507.751
 -11730291.238 9  -9119879.31747  22947455.731    22947458.9664   22947465.1514
        20.119          15.677
 97  5  1 17  9 59.9970000  0  6 19  2  7 27 26 15                  -0.002104283
  12810045.427 9   9914500.68145  23805933.607    23805937.4834   23805945.0304
     -2855.789       -2225.290
  -6122601.784 9  -4761753.37248  20424383.909    20424387.1814   20424392.4224
       233.836         182.210
 -19722504.954 9 -15348683.54448  19760456.274    19760459.8884   19760465.5944
      1546.758        1205.266
   -354901.883 9   -268670.29048  20340302.133    20340305.6344   20340311.0434
     -1601.579       -1247.984
 -15536026.457 9 -12086920.14548  21908567.570    21908571.5464   21908576.9714
       633.938         493.978
 -11730594.867 9  -9120115.92147  22947397.981    22947401.2114   22947407.3734
         0.224           0.175
 97  5  1 17 10 29.9970000  0  6 19  2  7 27 26 15                  -0.002114204
  12895801.435 8   9981323.40745  23822252.272    23822256.2854   23822263.8964
     -2861.046       -2229.386
  -6129535.588 9  -4767156.34848  20423064.487    20423067.6944   20423072.9764
       228.718         178.222
 -19768655.979 9 -15384645.37748  19751674.052    19751677.6444   19751683.3344
      1530.218        1192.378
   -306636.054 9   -231060.58248  20349486.820    20349490.3054   20349495.7464
     -1616.181       -1259.362
 -15554776.836 9 -12101530.84148  21904999.545    21905003.4634   21905008.9254
       616.264         480.206
 -11730300.683 9  -9119886.70547  22947454.029    22947457.2174   22947463.4174
       -19.634         -15.299
 97  5  1 17 10 59.9970000  0  6 19  2  7 27 26 15                  -0.002124117
  12981721.543 8  10048274.00045  23838602.182    23838606.4344   23838614.1544
     -2866.539       -2233.667
  -6136313.446 9  -4772437.80948  20421774.627    20421777.9174   20421783.1774
       223.231         173.946
 -19814318.005 9 -15420226.17148  19742984.843    19742988.4624   19742994.1434
      1514.338        1180.004
   -257918.275 9   -193098.70348  20358757.505    20358761.0074   20358766.4514
     -1631.313       -1271.153
 -15572995.783 9 -12115727.43348  21901532.538    21901536.4824   21901541.9134
       598.730         466.543
 -11729408.977 9  -9119191.89847  22947623.698    22947626.8284   22947633.0874
       -39.520         -30.795
 97  5  1 17 11 29.9970000  0  6 19  2  7 27 26 15                  -0.002134027
  13067809.710 8  10115355.55245  23854984.348    23854988.5774   23854996.3364
     -2872.230       -2238.101
  -6142917.588 9  -4777583.90448  20420517.904    20420521.2014   20420526.4674
       217.420         169.418
 -19859510.466 9 -15455441.06548  19734385.014    19734388.6424   19734394.3204
      1498.740        1167.849
   -208761.171 9   -154794.48948  20368111.821    20368115.3244   20368120.7654
     -1645.372       -1282.108
 -15590694.051 9 -12129518.30448  21898164.700    21898168.6214   21898174.0534
       581.553         453.158
 -11727921.977 9  -9118033.22547  22947906.716    22947909.8304   22947916.1514
       -59.119         -46.067
 97  5  1 17 11 59.9970000  0  6 19  2  7 27 26 15                  -0.002143939
  13154069.382 8  10182570.72645  23871399.231    23871403.4024   23871411.0424
     -2878.402       -2242.911
  -6149342.965 9  -4782590.70148  20419295.174    20419298.4954   20419303.7724
       210.686         164.171
 -19904231.900 9 -15490288.92848  19725874.790    19725878.4194   19725884.1134
      1482.509        1155.202
   -159179.952 9   -116159.80448  20377546.845    20377550.3434   20377555.7704
     -1660.481       -1293.881
 -15607872.973 9 -12142904.48348  21894895.672    21894899.6064   21894905.0034
       563.390         439.005
 -11725846.036 9  -9116415.64547  22948301.695    22948304.7594   22948311.1944
       -79.420         -61.886
 97  5  1 17 12 29.9970000  0  6 19  2  7 27 26 15                  -0.002153838
  13240497.797 8  10249917.40945  23887845.972    23887850.2014   23887857.9904
     -2883.671       -2247.016
  -6155573.433 9  -4787445.62448  20418109.593    20418112.8774   20418118.1674
       204.470         159.327
 -19948477.100 9 -15524765.70348  19717455.172    19717458.8574   19717464.5514
      1466.931        1143.063
   -109140.896 9    -77168.36548  20387068.935    20387072.4684   20387077.9194
     -1675.734       -1305.767
 -15624505.655 9 -12155865.02848  21891730.619    21891734.5594   21891739.9324
       545.259         424.877
 -11723170.672 9  -9114330.96747  22948810.689    22948813.9174   22948820.3564
       -99.199         -77.298
 97  5  1 17 12 59.9970000  0  6 19  2  7 27 26 15                  -0.002163725
  13327095.170 8  10317395.73345  23904325.419    23904329.2964   23904337.1144
     -2889.263       -2251.374
  -6161599.854 9  -4792141.54648  20416962.855    20416966.0804   20416971.3974
       197.191         153.655
 -19992258.406 9 -15558881.00048  19709123.925    19709127.5594   19709133.2594
      1451.562        1131.087
    -58640.276 9    -37817.26148  20396678.957    20396682.4374   20396687.8954
     -1690.819       -1317.521
 -15640594.524 9 -12168401.81348  21888669.041    21888672.9864   21888678.3424
       527.331         410.907
 -11719899.273 9  -9111781.83747  22949433.238    22949436.4564   22949442.8334
      -118.985         -92.716
 97  5  1 17 13 29.9970000  0  6 19  2  7 27 26 15                  -0.002173670
  13413837.781 8  10384987.23845  23920831.795    23920836.0764   23920843.8424
     -2893.286       -2254.508
  -6167421.838 9  -4796678.16848  20415854.920    20415858.1954   20415863.4984
       191.340         149.096
 -20035572.860 9 -15592632.51948  19700881.444    19700885.0804   19700890.7834
      1436.161        1119.086
     -7712.582 9      1866.62548  20406370.160    20406373.6524   20406379.1544
     -1704.273       -1328.005
 -15656158.512 9 -12180529.60148  21885707.277    21885711.2274   21885716.6164
       510.410         397.722
 -11716046.812 9  -9108779.93447  22950166.135    22950169.5384   22950175.8704
      -137.604        -107.224
 97  5  1 17 13 59.9970000  0  6 19  2  7 27 26 15                  -0.002183612
  13500720.087 8  10452687.58845  23937365.468    23937369.2554   23937376.9194
     -2898.556       -2258.615
  -6173044.787 9  -4801059.69348  20414784.883    20414788.1904   20414793.4954
       183.788         143.211
 -20078396.847 9 -15626001.85048  19692732.294    19692735.9234   19692741.6254
      1418.970        1105.691
     43659.049 9     41896.43748  20416145.869    20416149.3714   20416154.8894
     -1720.380       -1340.556
 -15671182.330 9 -12192236.47348  21882848.335    21882852.3044   21882857.6864
       491.324         382.850
 -11711607.446 9  -9105320.72347  22951011.457    22951014.3764   22951020.6804
      -158.180        -123.257
 97  5  1 17 14 29.9970000  0  6 19  2  7 27 26 15                  -0.002193550
  13587727.537 8  10520485.46245  23953922.488    23953926.2994   23953934.1604
     -2901.975       -2261.279
  -6178459.395 9  -4805278.87848  20413754.537    20413757.8234   20413763.1114
       177.398         138.232
 -20120716.115 9 -15658977.89848  19684679.231    19684682.8614   19684688.5274
      1402.458        1092.824
     95497.066 9     82289.66648  20426010.301    20426013.8324   20426019.3484
     -1735.279       -1352.165
 -15685651.227 9 -12203510.94548  21880095.010    21880098.9984   21880104.3864
       473.498         368.959
 -11706568.808 9  -9101394.51046  22951970.360    22951973.2694   22951979.5924
      -177.621        -138.406
 97  5  1 17 14 59.9970000  0  6 19  2  7 27 26 15                  -0.002203497
  13674844.800 8  10588368.91045  23970500.963    23970504.3324   23970512.0514
     -2905.797       -2264.257
  -6183685.404 9  -4809351.09948  20412760.081    20412763.3924   20412768.6714
       171.212         133.412
 -20162536.285 9 -15691565.03648  19676721.110    19676724.7354   19676730.4014
      1385.390        1079.525
    147784.467 9    123033.06548  20435960.310    20435963.8014   20435969.3554
     -1750.544       -1364.060
 -15699588.527 9 -12214371.18348  21877442.805    21877446.8194   21877452.2054
       455.678         355.074
 -11700944.933 9  -9097012.31046  22953040.647    22953043.3544   22953049.7514
      -197.324        -153.759
 97  5  1 17 15 29.9970000  0  6 19  2  7 27 26 15                  -0.002213440
  13762076.630 8  10656341.62445  23987100.468    23987104.0124   23987111.9334
     -2909.579       -2267.204
  -6188742.159 9  -4813291.44148  20411797.897    20411801.1584   20411806.4184
       165.978         129.334
 -20203838.820 9 -15723748.82748  19668861.462    19668865.1014   19668870.7814
      1368.422        1066.303
    200532.603 9    164135.47548  20445998.000    20446001.4604   20446007.0244
     -1766.012       -1376.113
 -15712988.246 9 -12224812.53248  21874892.933    21874896.9604   21874902.3484
       437.616         340.999
 -11694731.950 9  -9092171.04346  22954222.687    22954225.6414   22954232.1584
      -216.861        -168.983
 97  5  1 17 15 59.9970000  0  6 19  2  7 27 26 15                  -0.002223345
  13849417.701 8  10724399.45545  24003721.281    24003724.6594   24003732.7364
     -2913.193       -2270.021
  -6193651.065 9  -4817116.57148  20410863.765    20410867.0374   20410872.2704
       161.155         125.575
 -20244651.754 9 -15755551.10648  19661094.996    19661098.6584   19661104.3384
      1352.347        1053.777
    253744.595 9    205599.33248  20456123.933    20456127.3664   20456132.9624
     -1781.464       -1388.154
 -15725839.285 9 -12234826.33348  21872447.474    21872451.4614   21872456.8804
       419.007         326.499
 -11687935.742 9  -9086875.31947  22955516.325    22955518.9294   22955525.4734
      -236.322        -184.147
 97  5  1 17 16 29.9970000  0  6 19  2  7 27 26 15                  -0.002233210
  13936865.508 8  10792540.45145  24020362.837    24020365.5374   24020373.7244
     -2916.635       -2272.703
  -6198417.095 9  -4820830.37248  20409956.766    20409960.1054   20409965.3274
       156.803         122.184
 -20284984.181 9 -15786978.96548  19653419.994    19653423.6284   19653429.3054
      1336.856        1041.706
    307406.840 9    247414.03548  20466335.529    20466338.9814   20466344.5744
     -1795.623       -1399.187
 -15738131.778 9 -12244404.91048  21870108.354    21870112.3084   21870117.6894
       400.840         312.343
 -11680558.083 9  -9081126.50546  22956920.096    22956922.9344   22956929.3574
      -255.213        -198.867
 97  5  1 17 16 59.9970000  0  7 19  2  9  7 27 26 15               -0.002243033
  14024458.898 8  10860794.90245  24037031.102    24037034.1154   24037042.4004
     -2922.422       -2277.212
  -6203027.424 9  -4824422.84348  20409079.456    20409082.8044   20409088.0064
       150.845         117.541
   -641534.95119   -478001.74756  24458444.884    24458447.5785   24458455.0345
      3874.699        3019.246
 -20324835.595 9 -15818032.01148  19645836.523    19645840.1154   19645845.7824
      1320.320        1028.821
    361512.195 9    289574.02448  20476631.414    20476634.8964   20476640.5084
     -1810.988       -1411.159
 -15749854.282 9 -12253539.34148  21867877.672    21867881.6154   21867887.0254
       381.035         296.910
 -11672588.873 9  -9074916.73146  22958436.395    22958439.5244   22958445.8274
      -275.664        -214.803
 97  5  1 17 17 29.9970000  0  7 19  2  9  7 27 26 15               -0.002252818
  14112193.202 8  10929159.14345  24053725.848    24053729.4314   24053737.6614
     -2927.182       -2280.921
  -6207476.350 9  -4827889.54648  20408232.872    20408236.2314   20408241.4284
       144.939         112.939
   -757780.573 9   -568582.73646  24436323.909    24436327.0724   24436334.2564
      3874.299        3018.934
 -20364219.992 9 -15848721.14448  19638341.899    19638345.5314   19638351.1804
      1304.694        1016.645
    416043.381 9    332065.82748  20487008.295    20487011.8624   20487017.4754
     -1825.186       -1422.223
 -15761003.223 9 -12262226.84448  21865756.140    21865760.0674   21865765.4664
       361.653         281.808
 -11664031.757 9  -9068248.88946  22960064.602    22960067.7734   22960074.2704
      -295.525        -230.279
 97  5  1 17 17 59.9970000  0  7 19  2  9  7 27 26 15               -0.002262572
  14200068.583 8  10997633.30945  24070447.109    24070451.7784   24070459.9884
     -2931.664       -2284.414
  -6211747.176 9  -4831217.46948  20407420.176    20407423.5384   20407428.7374
       139.269         108.521
   -874009.010 9   -659150.33846  24414206.246    24414209.5534   24414216.6194
      3873.870        3018.600
 -20403139.751 9 -15879048.22448  19630935.661    19630939.3064   19630944.9654
      1289.351        1004.689
    470996.889 9    374886.71148  20497465.622    20497469.1764   20497474.7954
     -1838.755       -1432.796
 -15771577.997 9 -12270466.94048  21863743.776    21863747.7544   21863753.1364
       343.186         267.418
 -11654883.682 9  -9061120.54246  22961805.482    22961808.6154   22961815.0414
      -314.805        -245.303
 97  5  1 17 18 29.9970000  0  7 19  2  9  7 27 26 15               -0.002272324
  14288106.253 8  11066233.92845  24087200.640    24087204.9754   24087213.1714
     -2937.527       -2288.982
  -6215815.319 9  -4834387.46048  20406646.052    20406649.3964   20406654.6194
       132.102         102.937
   -990204.730 9   -749692.44646  24392094.920    24392098.2774   24392105.3454
      3872.604        3017.613
 -20441569.415 9 -15908993.41348  19623622.700    19623626.3814   19623632.0374
      1272.630         991.660
    526375.679 9    418038.98548  20508003.891    20508007.4394   20508013.0724
     -1853.228       -1444.074
 -15781593.860 9 -12278271.52448  21861837.839    21861841.8044   21861847.1594
       324.752         253.054
 -11645137.111 9  -9053525.82546  22963660.176    22963663.3274   22963669.7484
      -334.932        -260.986
 97  5  1 17 18 59.9970000  0  7 19  2  9  7 27 26 15               -0.002282093
  14376293.862 8  11134951.38645  24103981.687    24103986.6494   24103994.8254
     -2941.821       -2292.328
  -6219693.309 9  -4837409.27948  20405908.118    20405911.4584   20405916.6844
       126.305          98.419
  -1106391.520 9   -840227.58846  24369985.257    24369988.6114   24369995.7514
      3872.868        3017.819
 -20479523.413 9 -15938567.95448  19616400.343    19616403.9894   19616409.6564
      1257.375         979.773
    582176.536 9    461520.14048  20518622.452    20518626.0164   20518631.6514
     -1867.124       -1454.902
 -15791089.376 9 -12285670.63848  21860030.961    21860034.9134   21860040.2444
       308.066         240.051
 -11634811.613 9  -9045479.99646  22965625.211    22965628.3154   22965634.6054
      -353.680        -275.595
 97  5  1 17 19 29.9970000  0  7 19  2  9  7 27 26 15               -0.002291881
  14464615.156 8  11203773.03445  24120788.963    24120793.6764   24120801.9314
     -2947.004       -2296.367
  -6223392.646 9  -4840291.89348  20405204.172    20405207.4994   20405212.7594
       119.715          93.284
  -1222572.918 9   -930758.53646  24347876.633    24347880.0224   24347887.1554
      3872.001        3017.144
 -20517002.528 9 -15967772.45748  19609268.282    19609271.9734   19609277.6304
      1240.484         966.611
    638409.902 9    505338.31748  20529323.343    20529326.9074   20529332.5314
     -1882.376       -1466.786
 -15800078.626 9 -12292675.26648  21858320.338    21858324.3104   21858329.6634
       290.579         226.425
 -11623914.885 9  -9036989.09346  22967698.813    22967701.8894   22967708.3214
      -373.423        -290.979
 97  5  1 17 19 59.9970000  0  7 19  2  9  7 27 26 15               -0.002301673
  14553102.524 8  11272724.09845  24137627.456    24137632.2294   24137640.6204
     -2951.545       -2299.905
  -6226899.126 9  -4843024.22348  20404536.838    20404540.2024   20404545.4944
       114.475          89.201
  -1338726.041 9  -1021267.44846  24325773.358    24325776.8044   24325783.9164
      3872.020        3017.158
 -20553972.014 9 -15996579.84548  19602233.278    19602236.9404   19602242.5984
      1224.578         954.217
    695101.605 9    549513.63848  20540111.479    20540115.0084   20540120.6214
     -1896.476       -1477.774
 -15808542.296 9 -12299270.34348  21856709.752    21856713.7244   21856719.0994
       274.111         213.593
 -11612423.667 9  -9028034.88446  22969885.489    22969888.6274   22969894.9364
      -392.066        -305.506
 97  5  1 17 20 29.9970000  0  7 19  2  9  7 27 26 15               -0.002311473
  14641747.038 8  11341797.61845  24154496.018    24154501.0774   24154509.2074
     -2958.271       -2305.146
  -6230217.324 9  -4845609.83748  20403905.385    20403908.7724   20403914.0754
       106.518          83.001
  -1454849.633 9  -1111753.34946  24303675.745    24303679.2654   24303686.3074
      3869.223        3014.979
 -20590435.078 9 -16024992.61248  19595294.664    19595298.2704   19595303.9194
      1205.944         939.697
    752243.024 9    594039.39448  20550985.132    20550988.6844   20550994.3024
     -1913.396       -1490.958
 -15816481.638 9 -12305456.85148  21855198.919    21855202.9604   21855208.3024
       254.598         198.388
 -11600346.552 9  -9018624.18546  22972183.634    22972186.7164   22972193.2514
      -413.463        -322.179
 97  5  1 17 20 59.9970000  0  8 19  4  2  9  7 27 26 15            -0.002321249
  14730546.784 8  11410992.07945  24171394.875    24171399.1664   24171407.4524
     -2962.189       -2308.199
   -275985.71518   -191549.87055  24183900.908           0.0005   24183905.8965
      3950.079        3077.984
  -6233347.830 9  -4848049.19848  20403309.673    20403313.0494   20403318.3734
       101.387          79.003
  -1570932.995 9  -1202207.91046  24281585.878    24281589.3614   24281596.3604
      3868.980        3014.790
 -20626390.111 9 -16053009.51448  19588452.658    19588456.2454   19588461.8814
      1190.275         927.487
    809847.006 9    638925.58648  20561946.834    20561950.3624   20561955.9834
     -1927.549       -1501.986
 -15823866.929 9 -12311211.63548  21853793.577    21853797.5634   21853802.9154
       237.002         184.677
 -11587670.433 9  -9008746.71646  22974595.826    22974598.9514   22974605.3954
      -432.326        -336.877
 97  5  1 17 21 29.9970000  0  8 19  4  2  9  7 27 26 15            -0.002331016
  14819471.451 8  11480283.89845  24188316.827    24188320.9774   24188329.2974
     -2966.737       -2311.743
   -394540.560 8   -283930.18845  24161335.071    24161340.7505   24161351.3644
      3952.876        3080.163
  -6236310.616 9  -4850357.87348  20402745.812    20402749.2504   20402754.5804
        95.293          74.254
  -1686990.517 9  -1292642.31246  24259500.906    24259504.3144   24259511.3444
      3867.504        3013.639
 -20661848.658 9 -16080639.54648  19581705.089    19581708.6884   19581714.3064
      1172.832         913.895
    867879.421 9    684145.61848  20572990.070    20572993.5804   20572999.2124
     -1941.953       -1513.210
 -15830706.434 9 -12316541.12848  21852492.000    21852495.9924   21852501.3494
       218.237         170.055
 -11574413.777 9  -8998416.87346  22977118.437    22977121.5924   22977128.0604
      -452.222        -352.381
 97  5  1 17 21 59.9970000  0  8 19  4  2  9  7 27 26 15            -0.002340774
  14908528.759 8  11549679.08745  24205263.829    24205268.2684   24205276.4104
     -2970.266       -2314.493
   -513179.092 8   -376375.70855  24138758.311    24138765.3064   24138771.6635
      3956.415        3082.921
  -6239079.411 9  -4852515.38148  20402218.857    20402222.3334   20402227.7094
        89.261          69.554
  -1802992.697 9  -1383033.60646  24237426.384    24237429.8684   24237436.8454
      3866.030        3012.491
 -20696783.069 9 -16107861.16248  19575057.296    19575060.8924   19575066.5214
      1156.244         900.969
    926348.780 9    729706.12548  20584116.400    20584119.9554   20584125.5894
     -1956.088       -1524.224
 -15836977.580 9 -12321427.74548  21851298.591    21851302.5804   21851307.9634
       199.929         155.789
 -11560558.291 9  -8987620.40646  22979754.880    22979758.2314   22979764.7534
      -471.445        -367.360
 97  5  1 17 22 29.9970000  0  8 19  4  2  9  7 27 26 15            -0.002350525
  14997679.551 8  11619147.09945  24222228.269    24222233.1634   24222241.3824
     -2973.763       -2317.218
   -631912.736 8   -468895.42045  24116165.104    24116170.2135   24116178.6394
      3958.713        3084.711
  -6241656.242 9  -4854523.30848  20401728.584    20401731.9694   20401737.3654
        82.170          64.029
  -1918956.129 9  -1473394.69946  24215359.189    24215362.6824   24215369.6994
      3864.576        3011.358
 -20731222.977 9 -16134697.44648  19568503.596    19568507.1794   19568512.8164
      1139.387         887.834
    985250.176 9    775603.28248  20595324.998    20595328.5414   20595334.1614
     -1971.094       -1535.917
 -15842700.855 9 -12325887.44648  21850209.485    21850213.5174   21850218.8964
       181.146         141.153
 -11546120.542 9  -8976370.26146  22982502.448    22982505.4884   22982512.1214
      -491.541        -383.019
 97  5  1 17 22 59.9970000  0  8 19  4  2  9  7 27 26 15            -0.002360262
  15086932.226 8  11688694.49446  24239212.230    24239217.4654   24239225.7734
     -2976.484       -2319.338
   -750713.738 8   -561467.51745  24093558.074    24093563.1354   24093571.5804
      3961.283        3086.714
  -6244025.846 9  -4856369.76148  20401277.616    20401281.0334   20401286.4484
        75.750          59.026
  -2034889.677 9  -1563732.50146  24193297.688    24193301.2294   24193308.2694
      3864.339        3011.173
 -20765167.067 9 -16161147.38148  19562044.319    19562047.8364   19562053.4954
      1123.536         875.483
   1044593.898 9    821845.11348  20606617.783    20606621.2974   20606626.9254
     -1985.074       -1546.811
 -15847867.046 9 -12329913.06048  21849226.486    21849230.4944   21849235.8524
       163.480         127.387
 -11531087.707 9  -8964656.38246  22985363.067    22985366.2184   22985372.7564
      -510.624        -397.889
 97  5  1 17 23 29.9970000  0  8 19  4  2  9  7 27 26 15            -0.002369997
  15176283.511 8  11758318.74746  24256215.417    24256220.5204   24256228.8894
     -2980.078       -2322.139
   -869577.802 8   -654088.86145  24070939.300    24070944.0734   24070953.0364
      3963.475        3088.422
  -6246182.084 9  -4858049.95048  20400867.314    20400870.7464   20400876.1474
        68.420          53.314
  -2150790.336 9  -1654044.67046  24171242.619    24171246.0934   24171253.0724
      3862.887        3010.042
 -20798616.529 9 -16187211.88848  19555679.096    19555682.6174   19555688.2644
      1107.032         862.622
   1104371.995 9    868425.41948  20617993.189    20617996.7014   20618002.3494
     -1999.675       -1558.188
 -15852491.291 9 -12333516.37948  21848346.555    21848350.5604   21848355.9044
       145.304         113.224
 -11515463.079 9  -8952481.36846  22988336.246    22988339.5504   22988346.0874
      -530.550        -413.416
 97  5  1 17 23 59.9970000  0  8 19  4  2  9  7 27 26 15            -0.002379719
  15265744.625 8  11828028.54846  24273239.455    24273244.5624   24273253.0334
     -2983.815       -2325.051
   -988505.929 8   -746760.03845  24048308.070    24048312.6584   24048321.5244
      3965.023        3089.628
  -6248118.126 9  -4859558.56348  20400498.969    20400502.3454   20400507.7334
        61.110          47.618
  -2266659.670 9  -1744332.44846  24149193.401    24149196.8564   24149203.7404
      3862.018        3009.365
 -20831596.633 9 -16212910.66848  19549403.247    19549406.7294   19549412.3654
      1092.012         850.918
   1164587.092 9    915346.24048  20629451.844    20629455.2824   20629460.9444
     -2014.506       -1569.745
 -15856574.886 9 -12336698.41148  21847569.506    21847573.5234   21847578.8584
       127.242          99.150
 -11499245.907 9  -8939844.64846  22991422.350    22991425.6064   22991432.1754
      -550.324        -428.824
 97  5  1 17 24 29.9970000  0  8 19  4  2  9  7 27 26 15            -0.002389416
  15355312.653 8  11897821.68446  24290283.893    24290288.8634   24290297.3174
     -2986.973       -2327.511
  -1107487.067 8   -839472.56945  24025666.651    24025671.0824   24025680.1974
      3967.609        3091.643
  -6249859.946 9  -4860915.83448  20400167.558    20400170.8914   20400176.2784
        55.845          43.516
  -2382524.321 9  -1834616.55546  24127145.102    24127148.5824   24127155.4324
      3862.693        3009.891
 -20864148.760 9 -16238275.95448  19543208.753    19543212.2524   19543217.8784
      1078.565         840.440
   1225223.242 9    962595.15448  20640990.502    20640993.9904   20640999.6394
     -2027.272       -1579.692
 -15860130.241 9 -12339468.82348  21846892.962    21846896.9564   21846902.3414
       110.388          86.017
 -11482454.393 9  -8926760.38247  22994617.589    22994620.9714   22994627.5724
      -568.575        -443.045
 97  5  1 17 24 59.9970000  0  8 19  4  2  9  7 27 26 15            -0.002399084
  15445006.009 8  11967712.44646  24307352.261    24307357.0954   24307365.6104
     -2991.603       -2331.119
  -1226514.822 8   -932221.39745  24003016.329    24003020.8334   24003029.5804
      3968.618        3092.430
  -6251423.873 9  -4862134.48248  20399870.037    20399873.2854   20399878.6554
        49.218          38.352
  -2498362.558 9  -1924880.08546  24105101.774    24105105.3054   24105112.1694
      3860.503        3008.184
 -20896261.355 9 -16263298.74348  19537097.983    19537101.3974   19537107.0684
      1063.042         828.344
   1286269.627 9   1010163.73448  20652607.262    20652610.7574   20652616.4114
     -2041.656       -1590.901
 -15863148.418 9 -12341820.65648  21846318.599    21846322.6414   21846328.0204
        91.846          71.568
 -11465085.671 9  -8913226.29846  22997923.146    22997926.3624   22997932.6594
      -588.513        -458.582
 97  5  1 17 25 29.9970000  0  8 19  4  2  9  7 27 26 15            -0.002408729
  15534824.148 8  12037700.43046  24324444.010    24324448.9734   24324457.5354
     -2996.252       -2334.742
  -1345593.568 8  -1025009.93545  23980356.401    23980360.8634   23980369.5434
      3969.929        3093.451
  -6252803.899 9  -4863209.83248  20399607.393    20399610.6884   20399616.0374
        42.676          33.254
  -2614143.894 8  -2015099.26546  24083069.315    24083072.8084   24083079.8014
      3858.211        3006.398
 -20927922.648 9 -16287969.87048  19531073.055    19531076.4604   19531082.1274
      1047.600         816.312
   1347728.829 9   1058053.98548  20664302.637    20664306.0884   20664311.7484
     -2055.830       -1601.945
 -15865629.823 9 -12343754.23748  21845846.387    21845850.4074   21845855.7984
        73.501          57.274
 -11447136.458 9  -8899239.97546  23001338.540    23001341.8704   23001348.3754
      -608.248        -473.959
 97  5  1 17 25 59.9970000  0  8 19  4  2  9  7 27 26 15            -0.002418339
  15624770.785 9  12107788.55946  24341560.556    24341565.3244   24341573.9994
     -3000.479       -2338.035
  -1464718.614 8  -1117834.59445  23957687.876    23957692.0214   23957700.8674
      3971.208        3094.448
  -6253996.314 9  -4864138.98648  20399380.483    20399383.8174   20399389.1514
        36.368          28.339
  -2729865.442 8  -2105271.85746  24061048.187    24061051.6844   24061058.6304
      3855.868        3004.572
 -20959127.513 9 -16312285.34348  19525134.874    19525138.3474   19525144.0054
      1032.150         804.273
   1409614.618 9   1106276.64148  20676079.083    20676082.6004   20676088.2744
     -2070.264       -1613.193
 -15867565.664 9 -12345262.69348  21845478.011    21845482.0254   21845487.4204
        55.160          42.982
 -11428603.841 9  -8884799.02346  23004865.316    23004868.5824   23004875.0764
      -627.799        -489.194
 97  5  1 17 26 29.9970000  0  8 19  4  2  9  7 27 26 15            -0.002427925
  15714842.033 8  12177973.79646  24358700.861    24358705.3484   24358714.1824
     -3004.294       -2341.008
  -1583891.580 8  -1210696.54945  23935010.021    23935014.1654   23935023.0624
      3973.518        3096.248
  -6254999.582 9  -4864920.75648  20399189.608    20399192.9224   20399198.2384
        30.260          23.579
  -2845505.152 8  -2195380.68445  24039042.563    24039046.0204   24039053.1224
      3853.266        3002.545
 -20989845.003 9 -16336221.04348  19519289.588    19519293.0164   19519298.6564
      1015.435         791.248
   1471928.695 9   1154833.03248  20687937.113    20687940.6074   20687946.2654
     -2084.123       -1623.992
 -15868955.492 9 -12346345.68548  21845213.591    21845217.5574   21845222.9774
        37.466          29.194
 -11409481.094 9  -8869898.16146  23008504.324    23008507.7874   23008514.0854
      -647.194        -504.307
 97  5  1 17 26 59.9970000  0  7  4  2  9  7 27 26 15               -0.002437523
  -1703133.721 8  -1303612.41845  23912318.811    23912323.0144   23912331.9004
      3975.770        3098.003
  -6255802.707 9  -4865546.57348  20399036.805    20399040.1194   20399045.4264
        23.029          17.945
  -2961057.944 8  -2285421.76645  24017053.404    24017057.0454   24017064.0174
      3850.335        3000.261
 -21020053.616 9 -16359760.21448  19513541.109    19513544.4944   19513550.1144
       998.345         777.931
   1534663.797 9   1203717.49148  20699875.217    20699878.7184   20699884.3744
     -2098.439       -1635.147
 -15869824.614 9 -12347022.93548  21845048.247    21845052.1834   21845057.6504
        20.333          15.844
 -11389773.142 9  -8854541.37246  23012254.432    23012257.9664   23012264.4204
      -666.834        -519.611
 97  5  1 17 27 29.9970000  0  7  4  2  9  7 27 26 15               -0.002447145
  -1822459.719 8  -1396593.65845  23889611.969    23889616.1104   23889624.7334
      3978.839        3100.394
  -6256400.466 9  -4866012.36248  20398923.114    20398926.3914   20398931.6944
        16.712          13.022
  -3076553.265 8  -2375418.07845  23995075.223    23995078.9074   23995086.0124
      3849.306        2999.459
 -21049764.305 9 -16382911.39648  19507887.339    19507890.7674   19507896.3664
       982.150         765.312
   1597815.779 9   1252926.79348  20711892.702    20711896.1674   20711901.8274
     -2111.923       -1645.654
 -15870195.128 9 -12347311.65848  21844977.782    21844981.7004   21844987.1724
         4.145           3.230
 -11369489.779 9  -8838736.20946  23016114.260    23016117.6844   23016124.2304
      -685.595        -534.230
 97  5  1 17 27 59.9970000  0  7  4  2  9  7 27 26 15               -0.002456793
  -1941872.481 8  -1489642.45145  23866888.619    23866892.5984   23866901.2494
      3982.004        3102.860
  -6256802.634 9  -4866325.74648  20398846.594    20398849.8564   20398855.1494
        10.273           8.005
  -3192013.027 8  -2465386.68245  23973104.237    23973107.7804   23973114.7564
      3848.142        2998.552
 -21078979.648 9 -16405676.59248  19502327.822    19502331.2704   19502336.8594
       965.683         752.480
   1661377.836 9   1302455.62748  20723988.114    20723991.6614   20723997.3104
     -2125.239       -1656.030
 -15870070.630 9 -12347214.66048  21845001.441    21845005.4184   21845010.8894
       -12.379          -9.646
 -11348635.235 9  -8822485.92346  23020082.638    23020086.2314   23020092.8564
      -704.568        -549.014
 97  5  1 17 28 29.9970000  0  7  4  2  9  7 27 26 15               -0.002466468
  -2061362.109 8  -1582751.15445  23844150.366    23844154.5104   23844163.0364
      3984.974        3105.175
  -6257001.219 9  -4866480.48948  20398808.778    20398812.0954   20398817.3914
         4.072           3.173
  -3307426.916 8  -2555319.55545  23951141.509    23951145.1524   23951152.2174
      3847.281        2997.881
 -21107681.413 9 -16428041.59848  19496866.057    19496869.4994   19496875.1034
       949.041         739.512
   1725342.746 9   1352298.37648  20736160.246    20736163.8114   20736169.4514
     -2138.150       -1666.091
 -15869438.810 9 -12346722.34048  21845121.688    21845125.6644   21845131.1194
       -28.693         -22.358
 -11327201.533 9  -8805784.35746  23024161.413    23024164.8834   23024171.4044
      -723.233        -563.558
 97  5  1 17 28 59.9970000  0  7  4  2  9  7 27 26 15               -0.002476105
  -2180947.121 8  -1675934.20545  23821394.004    23821398.2004   23821406.7134
      3987.055        3106.796
  -6257021.530 9  -4866496.32248  20398804.860    20398808.2454   20398813.5344
        -2.747          -2.141
  -3422824.339 8  -2645239.57845  23929181.910    23929185.7894   23929192.7634
      3845.763        2996.698
 -21135907.432 9 -16450035.89348  19491494.850    19491498.2584   19491503.8704
       932.597         726.699
   1789696.410 9   1402444.05548  20748406.410    20748409.9404   20748415.5944
     -2152.202       -1677.041
 -15868310.720 9 -12345843.31848  21845336.319    21845340.3114   21845345.7444
       -46.806         -36.472
 -11305212.626 9  -8788650.19846  23028345.609    23028349.2874   23028355.7524
      -742.839        -578.836
 97  5  1 17 29 29.9970000  0  7  4  2  9  7 27 26 15               -0.002485760
  -2300602.791 8  -1769172.30545  23798624.438    23798628.7114   23798637.1294
      3989.707        3108.863
  -6256869.713 9  -4866378.02948  20398833.709    20398837.1584   20398842.4314
        -7.432          -5.791
  -3538194.822 8  -2735138.62945  23907227.677    23907231.5024   23907238.5284
      3845.220        2996.275
 -21163660.743 9 -16471661.84448  19486213.518    19486216.9414   19486222.5864
       917.380         714.841
   1854446.920 9   1452898.95948  20760728.009    20760731.5714   20760737.2424
     -2164.654       -1686.743
 -15866650.513 9 -12344549.66248  21845652.311    21845656.2784   21845661.6994
       -64.074         -49.928
 -11282656.022 9  -8771073.66046  23032637.968    23032641.6064   23032648.2434
      -761.117        -593.078
 97  5  1 17 29 59.9970000  0  7  4  2  9  7 27 26 15               -0.002495406
  -2420319.277 8  -1862457.79545  23775842.849    23775847.3404   23775855.7984
      3991.848        3110.531
  -6256569.514 9  -4866144.11448  20398890.906    20398894.3264   20398899.5714
       -12.063          -9.400
  -3653519.115 8  -2825001.69445  23885282.310    23885286.1004   23885292.8424
      3843.439        2994.888
 -21190944.966 9 -16492922.26748  19481021.482    19481024.9274   19481030.5914
       902.058         702.902
   1919582.340 9   1503653.79648  20773122.896    20773126.4484   20773132.1354
     -2177.247       -1696.556
 -15864456.242 9 -12342839.84948  21846069.920    21846073.8334   21846079.2544
       -81.621         -63.601
 -11259541.323 9  -8753062.23346  23037036.827    23037040.2814   23037046.9054
      -779.358        -607.292
 97  5  1 17 30 29.9970000  0  7  4  2  9  7 27 26 15               -0.002505076
  -2540094.977 8  -1955789.42945  23753050.348    23753054.8814   23753063.0454
      3993.047        3111.465
  -6256139.147 9  -4865808.76848  20398972.864    20398976.2474   20398981.4934
       -16.885         -13.157
  -3768785.848 8  -2914819.87445  23863347.824    23863351.3444   23863358.2394
      3840.989        2992.978
 -21217768.716 9 -16513823.88848  19475917.148    19475920.5744   19475926.2094
       886.267         690.598
   1985100.961 9   1554707.22148  20785590.714    20785594.2494   20785599.9324
     -2191.025       -1707.292
 -15861741.531 9 -12340724.50148  21846586.428    21846590.4044   21846595.8574
       -99.362         -77.425
 -11235881.257 9  -8734625.84046  23041539.047    23041542.6654   23041549.2184
      -798.115        -621.908
 97  5  1 17 30 59.9970000  0  7  4  2  9  7 27 26 15               -0.002514702
  -2659900.412 8  -2049144.24145  23730252.092    23730256.5834   23730264.7524
      3994.256        3112.407
  -6255563.348 9  -4865360.09348  20399082.469    20399085.8234   20399091.0814
       -21.191         -16.512
  -3883986.039 8  -3004586.23945  23841425.983    23841429.5454   23841436.4104
      3839.462        2991.789
 -21244132.876 9 -16534367.38248  19470900.234    19470903.6454   19470909.2604
       871.473         679.070
   2051034.312 9   1606083.82348  20798137.417    20798140.9884   20798146.6744
     -2204.061       -1717.450
 -15858501.569 9 -12338199.86848  21847202.920    21847206.9564   21847212.4044
      -116.219         -90.560
 -11211659.645 9  -8715751.86446  23046148.556    23046151.9974   23046158.4264
      -816.364        -636.128
 97  5  1 17 31 29.9970000  0  7  4  2  9  7 27 26 15               -0.002524319
  -2779726.673 8  -2142515.26345  23707449.904    23707454.3674   23707462.4344
      3994.113        3112.296
  -6254842.247 9  -4864798.19548  20399219.623    20399223.0274   20399228.2874
       -26.944         -20.995
  -3999126.516 9  -3094306.05345  23819515.237    23819518.7844   23819525.7674
      3836.646        2989.594
 -21270031.204 9 -16554547.89248  19465971.934    19465975.3454   19465980.9444
       855.058         666.279
   2117367.792 9   1657772.20848  20810760.353    20810763.8674   20810769.5474
     -2218.230       -1728.491
 -15854756.337 9 -12335281.51648  21847915.621    21847919.6334   21847925.1224
      -133.352        -103.911
 -11186882.814 9  -8696445.31746  23050863.624    23050866.6694   23050873.3984
      -835.416        -650.974
 97  5  1 17 31 59.9970000  0  7  4  2  9  7 27 26 15               -0.002533924
  -2899565.555 8  -2235896.14445  23684645.237    23684649.7444   23684657.7574
      3995.101        3113.066
  -6253943.080 9  -4864097.54948  20399390.817    20399394.1394   20399399.4224
       -33.179         -25.854
  -4114202.738 9  -3183975.80645  23797617.436    23797620.4614   23797627.3264
      3835.219        2988.482
 -21295454.826 9 -16574358.50248  19461133.911    19461137.3774   19461142.9434
       839.768         654.365
   2184126.882 9   1709792.23748  20823464.214    20823467.7514   20823473.4354
     -2232.415       -1739.544
 -15850512.313 9 -12331974.49848  21848723.241    21848727.2784   21848732.7394
      -149.582        -116.557
 -11161546.662 9  -8676702.87546  23055684.883    23055688.0484   23055694.7994
      -853.721        -665.237
 97  5  1 17 32 29.9970000  0  7  4  2  9  7 27 26 15               -0.002543530
  -3019438.817 9  -2329303.79445  23661834.053    23661838.5414   23661846.4154
      3996.743        3114.345
  -6252853.057 9  -4863248.18748  20399598.261    20399601.5484   20399606.8694
       -39.248         -30.583
  -4229257.845 9  -3273629.10945  23775723.006    23775726.2414   23775732.9304
      3835.351        2988.585
 -21320429.857 9 -16593819.56248  19456381.326    19456384.8064   19456390.3584
       825.605         643.329
   2251308.863 9   1762141.79048  20836248.571    20836252.0824   20836257.7884
     -2246.133       -1750.234
 -15845786.959 9 -12328292.41748  21849622.501    21849626.4664   21849631.9414
      -165.152        -128.690
 -11135665.600 9  -8656535.86446  23060610.047    23060613.0694   23060619.7854
      -871.426        -679.033
 97  5  1 17 32 59.9970000  0  7  4  2  9  7 27 26 15               -0.002553131
  -3139347.553 9  -2422739.09045  23639016.272    23639020.5204   23639028.4904
      3997.960        3115.294
  -6251557.500 9  -4862238.66348  20399844.831    20399848.0544   20399853.3904
       -46.284         -36.065
  -4344291.279 9  -3363265.52145  23753832.730    23753836.0114   23753842.7744
      3834.134        2987.637
 -21344963.872 9 -16612936.96848  19451712.723    19451716.1454   19451721.6824
       810.487         631.548
   2318919.720 9   1814825.53448  20849114.490    20849118.0444   20849123.7444
     -2260.375       -1761.331
 -15840572.812 9 -12324229.46248  21850614.730    21850618.6854   21850624.1594
      -181.829        -141.685
 -11109234.966 9  -8635940.60046  23065639.492    23065642.5604   23065649.2594
      -889.912        -693.438
 97  5  1 17 33 29.9970000  0  7  4  2  9  7 27 26 15               -0.002562720
  -3259294.883 9  -2516204.45245  23616191.007    23616195.2744   23616203.1734
      3999.442        3116.448
  -6250041.257 9  -4861057.17948  20400133.322    20400136.5704   20400141.9314
       -53.845         -41.957
  -4459262.994 9  -3452853.83245  23731954.356    23731957.6984   23731964.3434
      3831.566        2985.636
 -21369029.027 9 -16631689.03448  19447133.216    19447136.6764   19447142.2324
       794.915         619.414
   2386966.615 9   1867849.04648  20862063.439    20862066.9794   20862072.6704
     -2275.059       -1772.773
 -15834843.189 9 -12319764.83648  21851705.063    21851708.9664   21851714.4214
      -199.164        -155.193
 -11082242.910 9  -8614907.85346  23070775.932    23070779.0134   23070785.6234
      -908.621        -708.016
 97  5  1 17 33 59.9970000  0  7  4  2  9  7 27 26 15               -0.002572300
  -3379299.870 9  -2609714.74345  23593354.901    23593358.9744   23593366.8604
      4000.794        3117.502
  -6248307.655 9  -4859706.32148  20400463.200    20400466.4744   20400471.8374
       -61.583         -47.987
  -4574166.143 9  -3542388.71745  23710089.065    23710092.3554   23710099.0294
      3828.323        2983.109
 -21392637.806 9 -16650085.48048  19442640.609    19442644.0664   19442649.6464
       778.873         606.914
   2455434.907 9   1921200.92348  20875092.595    20875096.1024   20875101.7824
     -2289.378       -1783.931
 -15828597.151 9 -12314897.81148  21852893.638    21852897.5554   21852903.0114
      -217.377        -169.385
 -11054697.470 9  -8593443.87746  23076017.513    23076020.8284   23076027.3444
      -927.907        -723.044
 97  5  1 17 34 29.9970000  0  7  4  2  9  7 27 26 15               -0.002581876
  -3499369.161 9  -2703275.13245  23570506.360    23570510.5354   23570518.3364
      4003.135        3119.326
  -6246390.623 9  -4858212.53248  20400828.000    20400831.3034   20400836.6474
       -66.871         -52.107
  -4688984.121 8  -3631857.23245  23688239.953    23688243.0964   23688249.9814
      3825.293        2980.748
 -21415784.525 9 -16668121.88148  19438235.967    19438239.3974   19438244.9704
       763.588         595.004
   2524287.617 9   1974852.33348  20888194.851    20888198.3744   20888204.0564
     -2301.526       -1793.397
 -15821830.461 9 -12309625.08548  21854181.311    21854185.2364   21854190.6784
      -234.484        -182.715
 -11026599.904 9  -8571549.71846  23081364.340    23081367.5244   23081374.2804
      -946.049        -737.181
 97  5  1 17 34 59.9970000  0  7  4  2  9  7 27 26 15               -0.002591456
  -3619505.632 9  -2796887.88046  23547644.936    23547649.2734   23547657.1014
      4005.599        3121.246
  -6244317.065 9  -4856596.77348  20401222.553    20401225.8784   20401231.2384
       -71.695         -55.866
  -4803698.440 8  -3721244.96245  23666410.378    23666413.7904   23666420.4844
      3822.187        2978.328
 -21438465.880 9 -16685795.65648  19433919.878    19433923.2924   19433928.8494
       748.189         583.004
   2593495.555 9   2028780.55548  20901364.700    20901368.2464   20901373.9564
     -2312.554       -1801.990
 -15814550.965 9 -12303952.76048  21855566.552    21855570.4604   21855575.9454
      -251.112        -195.672
 -10997956.508 9  -8549230.21746  23086814.925    23086818.1334   23086824.9024
      -963.847        -751.050
 97  5  1 17 35 29.9970000  0  7  4  2  9  7 27 26 15               -0.002601053
  -3739710.087 9  -2890553.58646  23524770.705    23524775.1084   23524782.8304
      4007.684        3122.871
  -6242098.006 9  -4854867.63748  20401644.867    20401648.1914   20401653.5314
       -76.367         -59.507
  -4918332.343 8  -3810570.03345  23644596.067    23644599.6304   23644606.3964
      3820.158        2976.746
 -21460693.628 9 -16703115.97648  19429690.104    19429693.4814   19429699.0444
       733.687         571.704
   2663022.397 9   2082957.26648  20914595.281    20914598.8054   20914604.5304
     -2322.796       -1809.971
 -15806780.593 9 -12297897.93648  21857045.174    21857049.1154   21857054.6074
      -266.903        -207.976
 -10968780.875 9  -8526495.99246  23092366.945    23092370.1864   23092376.8014
      -981.282        -764.635
 97  5  1 17 35 59.9970000  0  7  4  2  9  7 27 26 15               -0.002610657
  -3859936.639 9  -2984236.49046  23501892.431    23501896.7884   23501904.4594
      4007.676        3122.864
  -6239716.605 9  -4853012.00148  20402097.942    20402101.3684   20402106.7214
       -81.893         -63.813
  -5032890.320 8  -3899835.92145  23622795.795    23622799.8924   23622806.6394
      3817.514        2974.686
 -21482459.497 9 -16720076.38648  19425548.160    19425551.5784   19425557.1484
       717.876         559.384
   2732886.751 9   2137396.97948  20927890.006    20927893.5684   20927899.3284
     -2334.704       -1819.250
 -15798514.752 9 -12291457.03548  21858618.200    21858622.0924   21858627.5894
      -283.725        -221.084
 -10939054.316 9  -8503332.46946  23098023.604    23098027.0544   23098033.6354
     -1000.045        -779.256
 97  5  1 17 36 29.9970000  0  7  4  2  9  7 27 26 15               -0.002620266
  -3980177.354 9  -3077930.43746  23479011.352    23479015.5244   23479023.4294
      4008.192        3123.266
  -6237194.986 9  -4851047.10648  20402577.819    20402581.2304   20402586.5414
       -86.611         -67.489
  -5147400.283 8  -3989064.39946  23601005.743    23601009.3964   23601016.1374
      3816.463        2973.867
 -21503785.769 9 -16736694.25648  19421489.829    19421493.3004   19421498.8744
       703.894         548.489
   2803095.143 9   2192104.76848  20941250.250    20941253.8004   20941259.5694
     -2346.235       -1828.235
 -15789771.535 9 -12284644.15848  21860281.965    21860285.8974   21860291.3634
      -299.269        -233.197
 -10908791.628 9  -8479751.20846  23103782.442    23103785.8974   23103792.5714
     -1017.580        -792.919
 97  5  1 17 36 59.9970000  0  7  4  2  9  7 27 26 15               -0.002629871
  -4100412.274 9  -3171619.87746  23456131.232    23456135.3894   23456143.3244
      4007.546        3122.763
  -6234500.549 9  -4848947.54948  20403090.590    20403093.9894   20403099.3014
       -93.060         -72.514
  -5261868.012 9  -4078259.97946  23579223.368    23579226.9414   23579233.7574
      3814.749        2972.532
 -21524679.786 9 -16752975.29948  19417513.766    19417517.2974   19417522.8744
       688.999         536.882
   2873674.361 9   2247101.51848  20954681.039    20954684.6004   20954690.3714
     -2359.096       -1838.257
 -15780545.798 9 -12277455.28348  21862037.574    21862041.5264   21862046.9754
      -315.743        -246.034
 -10877988.306 9  -8455748.64846  23109644.290    23109647.6934   23109654.3174
     -1035.918        -807.209
 97  5  1 17 37 29.9970000  0  7  4  2  9  7 27 26 15               -0.002639467
  -4220632.255 9  -3265297.66746  23433254.044    23433258.3574   23433266.0344
      4007.181        3122.479
  -6231615.306 9  -4846699.31048  20403639.549    20403643.0654   20403648.3374
       -99.236         -77.327
  -5376289.980 9  -4167419.90746  23557449.337    23557453.0884   23557459.8684
      3813.293        2971.397
 -21545132.112 9 -16768912.17048  19413621.850    19413625.3424   19413630.9034
       674.408         525.513
   2944644.712 9   2302403.05048  20968186.259    20968189.8424   20968195.6184
     -2372.334       -1848.572
 -15770822.986 9 -12269879.07948  21863887.854    21863891.7584   21863897.1714
      -332.332        -258.960
 -10846639.520 9  -8431321.05246  23115609.685    23115613.1984   23115619.6524
     -1053.888        -821.211
 97  5  1 17 37 59.9970000  0  7  4  2  9  7 27 26 15               -0.002649050
  -4340851.374 9  -3358974.78046  23410377.175    23410381.3504   23410388.9964
      4007.980        3123.101
  -6228544.683 9  -4844306.62048  20404224.004    20404227.3974   20404232.6884
      -105.009         -81.825
  -5490656.598 9  -4256536.72046  23535686.059    23535689.7644   23535696.5534
      3811.527        2970.021
 -21565142.956 9 -16784505.03248  19409813.930    19409817.3694   19409822.9324
       660.024         514.304
   3016016.596 9   2358017.45548  20981767.921    20981771.5044   20981777.2764
     -2385.318       -1858.689
 -15760602.834 9 -12261915.34348  21865832.663    21865836.6094   21865842.0284
      -348.545        -271.594
 -10814754.533 9  -8406475.68446  23121677.298    23121680.6964   23121687.3844
     -1071.354        -834.821
 97  5  1 17 38 29.9970000  0  7  4  2  9  7 27 26 15               -0.002658629
  -4461094.845 9  -3452670.87946  23387495.509    23387499.6454   23387507.3414
      4008.897        3123.816
  -6225286.806 9  -4841768.01948  20404843.897    20404847.3394   20404852.6164
      -111.486         -86.872
  -5604954.116 9  -4345599.68446  23513936.023    23513939.7394   23513946.2884
      3808.827        2967.917
 -21584711.617 9 -16799753.33548  19406090.071    19406093.5754   19406099.1454
       645.025         502.617
   3087778.926 9   2413936.10548  20995423.872    20995427.4714   20995433.2444
     -2398.088       -1868.640
 -15749887.842 9 -12253566.01248  21867871.685    21867875.6234   21867881.0704
      -365.123        -284.511
 -10782336.604 9  -8381215.02046  23127846.029    23127849.5734   23127856.4184
     -1089.237        -848.756
 97  5  1 17 38 59.9970000  0  7  4  2  9  7 27 26 15               -0.002668213
  -4581375.620 9  -3546396.02446  23364606.758    23364610.8704   23364618.6114
      4009.434        3124.234
  -6221846.591 9  -4839087.33348  20405498.539    20405501.9874   20405507.2744
      -118.085         -92.014
  -5719164.317 9  -4434594.61346  23492202.669    23492206.2264   23492212.7114
      3804.867        2964.831
 -21603827.836 9 -16814649.08548  19402452.350    19402455.8724   19402461.4354
       629.110         490.216
   3159908.363 9   2470140.81148  21009149.680    21009153.3064   21009159.0624
     -2410.788       -1878.536
 -15738684.320 9 -12244836.00648  21870003.630    21870007.5734   21870013.0304
      -381.920        -297.600
 -10749387.823 9  -8355540.66846  23134116.131    23134119.4974   23134126.2474
     -1107.615        -863.077
 97  5  1 17 39 29.9970000  0  7  4  2  9  7 27 26 15               -0.002677804
  -4701684.914 9  -3640143.43146  23341712.642    23341716.7764   23341724.4164
      4010.805        3125.303
  -6218228.656 9  -4836268.16548  20406187.059    20406190.4684   20406195.7344
      -123.304         -96.081
  -5833274.446 9  -4523511.57146  23470488.243    23470491.8294   23470498.1814
      3802.271        2962.809
 -21622485.733 9 -16829187.70148  19398901.829    19398905.3624   19398910.9154
       614.517         478.844
   3232395.922 9   2526624.57448  21022943.721    21022947.2874   21022953.0314
     -2422.017       -1887.286
 -15727003.178 9 -12235733.83748  21872226.425    21872230.4054   21872235.8634
      -396.882        -309.259
 -10715905.490 9  -8329450.60946  23140487.781    23140491.0084   23140497.8594
     -1124.759        -876.436
 97  5  1 17 39 59.9970000  0  7  4  2  9  7 27 26 15               -0.002687406
  -4822013.366 9  -3733905.73746  23318814.833    23318818.9424   23318826.6024
      4010.972        3125.433
  -6214439.612 9  -4833315.66648  20406907.977    20406911.4944   20406916.7654
      -129.334        -100.780
  -5947285.111 9  -4612351.01446  23448792.793    23448796.2694   23448802.5014
      3798.478        2959.853
 -21640687.677 9 -16843371.03148  19395438.163    19395441.6684   19395447.2224
       598.863         466.646
   3305234.643 9   2583381.97448  21036804.500    21036808.0974   21036813.8324
     -2433.983       -1896.610
 -15714867.488 9 -12226277.47148  21874535.751    21874539.7814   21874545.2034
      -412.337        -321.302
 -10681891.393 9  -8302946.15646  23146960.438    23146963.7734   23146970.5414
     -1142.963        -890.620
 97  5  1 17 40 29.9970000  0  7  4  2  9  7 27 26 15               -0.002697029
  -4942360.863 9  -3827682.89446  23295913.335    23295917.4994   23295925.0874
      4011.259        3125.656
  -6210500.253 9  -4830246.03948  20407657.681    20407661.1314   20407666.4284
      -134.239        -104.602
  -6061215.736 9  -4701128.07346  23427112.504    23427115.8214   23427121.9574
      3795.971        2957.899
 -21658442.182 9 -16857205.70748  19392059.649    19392063.1364   19392068.6704
       583.855         454.952
   3378398.990 9   2640393.10448  21050727.273    21050730.8624   21050736.6074
     -2444.625       -1904.903
 -15702287.864 9 -12216475.18148  21876929.521    21876933.5664   21876938.9914
      -427.196        -332.880
 -10647358.564 9  -8276037.46946  23153531.825    23153535.2934   23153541.8734
     -1160.092        -903.968
 97  5  1 17 40 59.9970000  0  7  4  2  9  7 27 26 15               -0.002706667
  -5062692.980 9  -3921448.07946  23273014.679    23273018.9984   23273026.5444
      4010.911        3125.385
  -6206389.240 9  -4827042.65648  20408439.857    20408443.4394   20408448.7464
      -139.968        -109.066
  -6175053.997 9  -4789833.17346  23405449.641    23405453.1584   23405459.3294
      3793.380        2955.881
 -21675730.397 9 -16870677.04148  19388769.895    19388773.2974   19388778.8084
       568.709         443.150
   3451898.403 9   2697665.32848  21064713.778    21064717.3594   21064723.0874
     -2455.493       -1913.371
 -15689248.567 9 -12206314.70448  21879410.847    21879414.8674   21879420.3274
      -442.080        -344.478
 -10612298.941 9  -8248718.32946  23160203.584    23160206.9954   23160213.5594
     -1177.171        -917.276
 97  5  1 17 41 29.9970000  0  7  4  2  9  7 27 26 15               -0.002716314
  -5183002.546 9  -4015195.68946  23250120.417    23250124.7734   23250132.2334
      4009.255        3124.095
  -6202084.118 9  -4823688.01648  20409259.092    20409262.6414   20409267.9774
      -147.505        -114.939
  -6288803.546 9  -4878469.11346  23383803.600    23383807.2304   23383813.4384
      3789.411        2952.788
 -21692544.817 9 -16883779.18148  19385570.223    19385573.6474   19385579.1494
       551.637         429.847
   3525750.635 9   2755212.46548  21078767.411    21078771.0184   21078776.7794
     -2468.701       -1923.663
 -15675741.752 9 -12195789.92148  21881981.189    21881985.1634   21881990.6214
      -458.871        -357.562
 -10576710.535 9  -8220987.14446  23166975.753    23166979.1474   23166985.7124
     -1195.940        -931.901
 97  5  1 17 41 59.9970000  0  7  4  2  9  7 27 26 15               -0.002725971
  -5303305.174 9  -4108937.88946  23227227.643    23227231.8644   23227239.3424
      4009.643        3124.397
  -6197589.952 9  -4820186.07348  20410114.503    20410117.8424   20410123.1934
      -153.481        -119.596
  -6402470.943 9  -4967041.05346  23362173.277    23362177.0094   23362183.3474
      3786.967        2950.883
 -21708888.446 9 -16896514.47548  19382460.196    19382463.5724   19382469.0474
       536.738         418.237
   3599968.197 9   2813044.27648  21092890.540    21092894.1824   21092899.9544
     -2480.423       -1932.797
 -15661756.581 9 -12184892.40548  21884642.525    21884646.4594   21884651.9264
      -474.925        -370.071
 -10540596.595 9  -8192846.48146  23173848.136    23173851.4034   23173857.9244
     -1213.116        -945.285
 97  5  1 17 42 29.9970000  0  7  4  2  9  7 27 26 15               -0.002735625
  -5423600.627 9  -4202674.50846  23204336.072    23204340.2694   23204347.8214
      4009.064        3123.946
  -6192891.605 9  -4816525.03148  20411008.532    20411011.9084   20411017.2654
      -160.612        -125.152
  -6516045.204 9  -5055540.41946  23340560.765    23340564.4584   23340570.9334
      3783.751        2948.377
 -21724770.933 9 -16908890.43548  19379437.802    19379441.2154   19379446.6554
       521.305         406.212
   3674555.786 9   2871164.43248  21107084.153    21107087.7674   21107093.5654
     -2493.021       -1942.614
 -15647264.793 9 -12173600.11548  21887400.272    21887404.1884   21887409.6224
      -491.883        -383.285
 -10503950.544 9  -8164291.18946  23180821.771    23180825.0774   23180831.6904
     -1230.835        -959.092
 97  5  1 17 42 59.9970000  0  7  4  2  9  7 27 26 15               -0.002745269
  -5543882.559 9  -4296400.58446  23181447.190    23181451.2734   23181458.8554
      4008.828        3123.762
  -6187976.002 9  -4812694.69748  20411944.005    20411947.3184   20411952.6664
      -167.711        -130.684
  -6629522.067 9  -5143963.88646  23318966.651    23318970.5514   23318977.0204
      3780.748        2946.037
 -21740203.422 9 -16920915.74748  19376501.104    19376504.5044   19376509.9684
       506.870         394.964
   3749523.465 9   2929580.75848  21121350.082    21121353.6714   21121359.4924
     -2505.613       -1952.426
 -15632273.003 9 -12161918.21548  21890253.071    21890257.0484   21890262.4964
      -508.289        -396.069
 -10466773.157 9  -8135321.82746  23187896.390    23187899.7424   23187906.2514
     -1248.364        -972.751
 97  5  1 17 43 29.9970000  0  7  4  2  9  7 27 26 15               -0.002754893
  -5664145.344 9  -4390111.74046  23158561.988    23158565.9354   23158573.5574
      4007.996        3123.114
  -6182852.255 9  -4808702.17648  20412919.101    20412922.3374   20412927.6904
      -174.546        -136.010
  -6742903.774 9  -5232313.21446  23297390.875    23297394.7214   23297401.2054
      3777.290        2943.343
 -21755200.040 9 -16932601.41848  19373647.367    19373650.7414   19373656.1704
       492.267         383.585
   3824881.877 9   2988301.53648  21135690.327    21135693.9504   21135699.7844
     -2518.930       -1962.803
 -15616777.671 9 -12149843.94748  21893201.752    21893205.7354   21893211.1574
      -525.259        -409.293
 -10429059.977 9  -8105934.96346  23195073.090    23195076.4774   23195082.9444
     -1266.534        -986.910
 97  5  1 17 43 59.9970000  0  7  4  2  9  7 27 26 15               -0.002764486
  -5784370.083 9  -4483793.26546  23135684.051    23135687.8794   23135695.4444
      4006.808        3122.188
  -6177516.777 9  -4804544.66648  20413934.379    20413937.6534   20413942.9864
      -181.348        -141.310
  -6856177.672 9  -5320578.53146  23275835.641    23275839.4064   23275845.8774
      3774.003        2940.782
 -21769764.001 9 -16943949.95548  19370875.860    19370879.2864   19370884.7204
       478.509         372.864
   3900630.601 9   3047326.46448  21150104.907    21150108.4994   21150114.3514
     -2531.065       -1972.258
 -15600771.306 9 -12137371.47248  21896247.680    21896251.6104   21896257.0424
      -541.926        -422.280
 -10390802.091 9  -8076123.67846  23202353.340    23202356.7594   23202363.2594
     -1284.136       -1000.625
 97  5  1 17 44 29.9970000  0  7  4  2  9  7 27 26 15               -0.002774053
  -5904535.541 9  -4577428.59446  23112817.074    23112821.0134   23112828.5804
      4004.702        3120.547
  -6171960.323 9  -4800214.97048  20414991.640    20414995.0434   20415000.3554
      -188.433        -146.831
  -6969335.554 9  -5408753.45746  23254302.416    23254306.1254   23254312.5994
      3770.276        2937.877
 -21783889.745 9 -16954957.02748  19368187.784    19368191.2524   19368196.6834
       463.610         361.255
   3976752.727 9   3106642.36048  21164590.568    21164594.0904   21164599.9804
     -2543.240       -1981.745
 -15584267.463 9 -12124511.35448  21899388.304    21899392.2304   21899397.6424
      -557.763        -434.620
 -10352006.096 9  -8045893.08146  23209736.022    23209739.3684   23209745.8254
     -1301.701       -1014.312
 97  5  1 17 44 59.9970000  0  7  4  2  9  7 27 26 15               -0.002783601
  -6024627.984 9  -4671007.02946  23089964.173    23089968.0704   23089975.5814
      4002.365        3118.726
  -6166191.215 9  -4795719.56748  20416089.493    20416092.8854   20416098.1654
      -195.257        -152.148
  -7082366.940 9  -5496829.79646  23232793.117    23232796.9214   23232803.3654
      3765.946        2934.503
 -21797559.091 9 -16965608.46148  19365586.643    19365590.0934   19365595.5114
       448.474         349.460
   4053246.590 9   3166247.91348  21179146.884    21179150.4314   21179156.3344
     -2555.521       -1991.315
 -15567285.734 9 -12111278.84948  21902619.814    21902623.7474   21902629.2074
      -573.639        -446.991
 -10312674.465 9  -8015245.12846  23217220.714    23217223.9484   23217230.5324
     -1319.554       -1028.224
 97  5  1 17 45 29.9970000  0  7  4  2  9  7 27 26 15               -0.002793130
  -6144656.605 9  -4764535.72446  23067123.276    23067127.2504   23067134.7494
      4000.738        3117.458
  -6160226.559 9  -4791071.78948  20417224.534    20417227.9244   20417233.2144
      -201.455        -156.978
  -7195259.695 9  -5584798.13646  23211310.061    23211314.1064   23211320.4454
      3761.330        2930.906
 -21810769.098 9 -16975901.97348  19363072.855    19363076.3124   19363081.7024
       433.141         337.512
   4130107.905 9   3226139.79848  21193773.103    21193776.7004   21193782.6134
     -2567.461       -2000.619
 -15549822.051 9 -12097670.79848  21905943.028    21905946.9794   21905952.4674
      -589.339        -459.225
 -10272805.284 9  -7984178.29346  23224807.731    23224810.8274   23224817.3844
     -1337.254       -1042.016
 97  5  1 17 45 59.9970000  0  7  4  2  9  7 27 26 15               -0.002802652
  -6264630.654 9  -4858021.92246  23044292.874    23044296.8954   23044304.3214
      3998.168        3115.456
  -6154064.509 9  -4786270.20348  20418397.289    20418400.5494   20418405.8244
      -208.492        -162.461
  -7308009.463 9  -5672655.04646  23189854.397    23189858.4094   23189864.7804
      3755.933        2926.701
 -21823505.185 9 -16985826.19448  19360649.168    19360652.7184   19360658.1174
       416.631         324.648
   4207328.153 9   3286311.35948  21208467.805    21208471.2424   21208477.1674
     -2579.828       -2010.255
 -15531885.198 9 -12083694.04548  21909356.284    21909360.2614   21909365.7414
      -605.732        -471.999
 -10232403.481 9  -7952696.40246  23232495.960    23232498.9664   23232505.5714
     -1355.535       -1056.261
 97  5  1 17 46 29.9970000  0  7  4  2  9  7 27 26 15               -0.002812167
  -6384539.957 9  -4951457.64946  23021474.824    23021478.9174   23021486.2504
      3995.827        3113.631
  -6147719.041 9  -4781325.68648  20419604.890    20419608.0344   20419613.3174
      -214.452        -167.105
  -7420612.745 9  -5760397.81046  23168426.965    23168430.7114   23168437.0064
      3751.053        2922.898
 -21835761.053 9 -16995376.21848  19358316.980    19358320.4964   19358325.8954
       400.446         312.036
   4284909.191 9   3346764.07247  21223230.985    21223234.4574   21223240.3974
     -2592.224       -2019.915
 -15513474.543 9 -12069348.09148  21912859.709    21912863.6864   21912869.1644
      -621.680        -484.426
 -10191469.453 9  -7920799.84046  23240285.256    23240288.4614   23240295.2544
     -1373.427       -1070.203
 97  5  1 17 46 59.9970000  0  7  4  2  9  7 27 26 15               -0.002821673
  -6504393.582 9  -5044849.99846  22998667.189    22998671.4664   22998678.8004
      3994.227        3112.385
  -6141206.329 9  -4776250.85048  20420844.169    20420847.3674   20420852.6514
      -220.162        -171.555
  -7533082.827 9  -5848036.78846  23147024.717    23147028.3544   23147034.6274
      3746.804        2919.588
 -21847547.604 9 -17004560.54248  19356074.045    19356077.5544   19356082.9794
       385.133         300.104
   4362857.694 9   3407503.09648  21238064.143    21238067.5864   21238073.5294
     -2604.637       -2029.587
 -15494583.270 9 -12054627.63548  21916454.664    21916458.5984   21916464.0564
      -638.044        -497.177
 -10150003.168 9  -7888488.47846  23248176.077    23248179.3184   23248186.0294
     -1391.215       -1084.064
 97  5  1 17 47 29.9970000  0  7  4  2  9  7 27 26 15               -0.002831169
  -6624199.221 9  -5138204.94146  22975868.808    22975873.0564   22975880.4384
      3992.799        3111.272
  -6134510.668 9  -4771033.45848  20422118.232    20422121.5284   20422126.8124
      -226.343        -176.371
  -7645426.855 9  -5935577.52846  23125646.439    23125649.9064   23125656.2954
      3743.079        2916.685
 -21858874.374 9 -17013386.59348  19353918.600    19353922.1074   19353927.5584
       369.964         288.284
   4441176.022 9   3468530.31748  21252967.513    21252971.0844   21252977.0574
     -2616.476       -2038.812
 -15475202.893 9 -12039526.05748  21920142.644    21920146.5814   21920152.0104
      -653.659        -509.345
 -10108004.012 9  -7855761.90746  23256168.185    23256171.5694   23256178.3184
     -1408.612       -1097.620
 97  5  1 17 47 59.9970000  0  7  4  2  9  7 27 26 15               -0.002840665
  -6743945.133 9  -5231513.34146  22953081.900    22953086.0604   22953093.4844
      3990.261        3109.294
  -6127615.662 9  -4765660.72948  20423430.248    20423433.6084   20423438.8744
      -233.243        -181.748
  -7757661.127 9  -6023032.74346  23104288.738    23104292.3854   23104298.7684
      3738.992        2913.500
 -21869746.255 9 -17021858.18548  19351849.779    19351853.2474   19351858.7214
       354.973         276.602
   4519850.304 9   3529834.90447  21267938.686    21267942.3144   21267948.3104
     -2628.390       -2048.096
 -15455360.757 9 -12024064.66848  21923918.417    21923922.3564   21923927.8174
      -669.291        -521.525
 -10065485.380 9  -7822630.54046  23264259.266    23264262.6194   23264269.3554
     -1426.060       -1111.216
 97  5  1 17 48 29.9970000  0  7  4  2  9  7 27 26 15               -0.002850147
  -6863623.246 9  -5324768.91446  22930307.642    22930311.9544   22930319.4334
      3987.615        3107.232
  -6120513.020 9  -4760126.20948  20424781.900    20424785.2134   20424790.4844
      -241.159        -187.916
  -7869770.861 9  -6110390.92446  23082955.113    23082958.5244   23082964.9264
      3734.228        2909.788
 -21880183.352 9 -17029990.98848  19349863.687    19349867.1264   19349872.6134
       340.058         264.980
   4598878.412 9   3591415.19547  21282977.287    21282980.8914   21282986.9454
     -2640.857       -2057.811
 -15435056.761 9 -12008243.38848  21927782.088    21927786.0374   21927791.5144
      -684.959        -533.734
 -10022446.471 9  -7789093.76046  23272449.277    23272452.7114   23272459.3794
     -1443.928       -1125.139
 97  5  1 17 48 59.9970000  0  7  4  2  9  7 27 26 15               -0.002859610
  -6983237.947 9  -5417975.08446  22907545.783    22907549.9664   22907557.4604
      3985.905        3105.900
  -6113171.763 9  -4754405.75148  20426178.772    20426182.2274   20426187.5004
      -249.018        -194.040
  -7981739.245 9  -6197638.95746  23061648.094    23061651.6234   23061658.0314
      3729.574        2906.162
 -21890184.276 9 -17037783.91548  19347960.604    19347964.0064   19347969.4794
       325.902         253.950
   4678268.260 9   3653277.35247  21298084.681    21298088.3134   21298094.3844
     -2652.523       -2066.901
 -15414294.229 9 -11992064.81148  21931733.068    21931737.0194   21931742.5294
      -699.941        -545.409
  -9978881.773 9  -7755147.31446  23280739.433    23280742.7404   23280749.5524
     -1461.105       -1138.523
 97  5  1 17 49 29.9970000  0  7  4  2  9  7 27 26 15               -0.002869059
  -7102794.652 9  -5511136.05246  22884794.763    22884799.0064   22884806.5324
      3984.393        3104.722
  -6105585.202 9  -4748494.15148  20427622.640    20427625.9114   20427631.1684
      -256.689        -200.017
  -8093558.776 9  -6284771.00647  23040369.552    23040373.0974   23040379.4374
      3725.056        2902.641
 -21899749.460 9 -17045237.30748  19346140.381    19346143.8464   19346149.3024
       311.670         242.860
   4758006.571 9   3715411.05647  21313258.406    21313262.0034   21313268.1674
     -2663.515       -2075.466
 -15393082.495 9 -11975536.20648  21935769.543    21935773.5184   21935779.0514
      -714.207        -556.525
  -9934800.942 9  -7720798.64146  23289127.573    23289131.0304   23289137.6754
     -1477.719       -1151.469
 97  5  1 17 49 59.9970000  0  7  4  2  9  7 27 26 15               -0.002878507
  -7222309.673 9  -5604264.54946  22862051.886    22862055.9464   22862063.4894
      3983.163        3103.763
  -6097786.457 9  -4742417.21348  20429106.751    20429109.9734   20429115.2244
      -263.247        -205.127
  -8205243.726 9  -6371798.19446  23019116.604    23019120.1344   23019126.4704
      3720.303        2898.937
 -21908894.483 9 -17052363.30148  19344400.179    19344403.5994   19344409.0294
       297.830         232.075
   4838070.504 9   3777798.47347  21328494.104    21328497.6834   21328503.8714
     -2674.340       -2083.901
 -15371439.271 9 -11958671.37248  21939888.071    21939892.1084   21939897.6644
      -729.106        -568.135
  -9890227.424 9  -7686066.09246  23297609.681    23297613.1164   23297619.6844
     -1494.102       -1164.235
 97  5  1 17 50 29.9970000  0  7  4  2  9  7 27 26 15               -0.002887937
  -7341773.736 9  -5697353.32046  22839318.392    22839322.5974   22839330.1514
      3980.969        3102.054
  -6089778.937 9  -4736177.59448  20430630.465    20430633.7614   20430638.9964
      -270.519        -210.794
  -8316769.784 9  -6458701.56746  22997893.922    22997897.4014   22997903.7444
      3714.911        2894.736
 -21917604.288 9 -17059150.15748  19342742.727    19342746.1744   19342751.6004
       282.607         220.213
   4918485.085 9   3840459.13547  21343796.510    21343800.0964   21343806.3414
     -2686.667       -2093.507
 -15349319.017 9 -11941434.82548  21944097.470    21944101.4584   21944107.0474
      -745.505        -580.913
  -9845140.834 9  -7650933.72146  23306189.551    23306192.9154   23306199.5944
     -1511.636       -1177.898
 97  5  1 17 50 59.9970000  0  7  4  2  9  7 27 26 15               -0.002897360
  -7461175.104 9  -5790393.26746  22816596.986    22816601.2684   22816608.6724
      3979.237        3100.704
  -6081576.672 9  -4729786.22448  20432191.172    20432194.6164   20432199.8554
      -276.060        -215.112
  -8428152.683 9  -6545493.37646  22976698.227    22976701.8644   22976708.2234
      3710.835        2891.560
 -21925857.738 9 -17065581.41748  19341172.104    19341175.5554   19341180.9544
       267.883         208.740
   4999249.167 9   3903392.12447  21359165.484    21359169.0554   21359175.3064
     -2697.389       -2101.861
 -15326713.181 9 -11923819.90548  21948399.235    21948403.1934   21948408.7904
      -761.297        -593.218
  -9799542.477 9  -7615402.57046  23314866.717    23314870.1214   23314876.7654
     -1528.028       -1190.671
 97  5  1 17 51 29.9970000  0  7  4  2  9  7 27 26 15               -0.002906788
  -7580511.611 9  -5883382.64246  22793887.769    22793892.1674   22793899.5814
      3976.357        3098.460
  -6073199.691 9  -4723258.71348  20433785.359    20433788.6884   20433793.9534
      -282.419        -220.067
  -8539403.442 9  -6632182.21846  22955527.784    22955531.5214   22955537.8994
      3705.720        2887.574
 -21933658.499 9 -17071659.93248  19339687.630    19339691.0834   19339696.4394
       252.178         196.502
   5080340.618 9   3966580.20147  21374596.708    21374600.2854   21374606.5364
     -2708.850       -2110.792
 -15303631.799 9 -11905834.43648  21952791.511    21952795.4694   21952801.0554
      -777.479        -605.828
  -9753445.595 9  -7579482.95146  23323638.467    23323641.9374   23323648.8544
     -1545.218       -1204.066
 97  5  1 17 51 59.9970000  0  7  4  2  9  7 27 26 15               -0.002916213
  -7699769.941 9  -5976311.10246  22771193.600    22771197.9644   22771205.4154
      3973.757        3096.434
  -6064653.996 9  -4716599.73848  20435411.690    20435414.8834   20435420.1654
      -287.791        -224.253
  -8650511.249 9  -6718759.66746  22934384.726    22934388.3484   22934394.7234
      3701.105        2883.978
 -21941011.185 9 -17077389.29548  19338288.485    19338291.9244   19338297.2354
       237.678         185.204
   5161758.519 9   4030022.66547  21390090.050    21390093.5884   21390099.9024
     -2719.377       -2118.995
 -15280077.539 9 -11887480.48848  21957273.740    21957277.7164   21957283.2984
      -793.082        -617.986
  -9706846.690 9  -7543172.14346  23332505.883    23332509.3544   23332516.2304
     -1561.679       -1216.893
 97  5  1 17 52 29.9970000  0  7  4  2  9  7 27 26 15               -0.002925642
  -7818948.485 9  -6069177.40846  22748514.681    22748518.9844   22748526.4234
      3970.557        3093.941
  -6055939.258 9  -4709809.04348  20437070.127    20437073.2294   20437078.5584
      -294.060        -229.138
  -8761485.309 9  -6805232.90847  22913267.044    22913270.6204   22913277.0164
      3696.401        2880.312
 -21947931.299 9 -17082781.58848  19336971.653    19336975.0964   19336980.3934
       222.824         173.629
   5243486.957 9   4093707.09147  21405642.408    21405646.0634   21405652.3534
     -2729.959       -2127.241
 -15256072.168 9 -11868775.01948  21961841.798    21961845.8044   21961851.3834
      -807.816        -629.467
  -9659757.543 9  -7506479.39146  23341466.694    23341470.1984   23341477.2064
     -1578.334       -1229.871
 97  5  1 17 52 59.9970000  0  7  4  2  9  7 27 26 15               -0.002935073
  -7938026.400 9  -6161965.28646  22725854.984    22725859.1734   22725866.5414
      3967.734        3091.741
  -6047027.611 9  -4702864.91148  20438766.006    20438769.0754   20438774.4064
      -300.403        -234.080
  -8872311.563 9  -6891590.99047  22892177.539    22892181.0054   22892187.3734
      3691.698        2876.648
 -21954401.215 9 -17087823.08248  19335740.501    19335743.9564   19335749.2454
       208.466         162.441
   5325528.451 9   4157635.47847  21421254.543    21421258.1084   21421264.3794
     -2739.804       -2134.912
 -15231635.383 9 -11849733.38748  21966491.940    21966495.9394   21966501.5364
      -821.487        -640.120
  -9612169.420 8  -7469397.75746  23350522.423    23350526.0044   23350532.9854
     -1594.472       -1242.446
 97  5  1 17 53 29.9970000  0  7  4  2  9  7 27 26 15               -0.002944503
  -8057014.280 9  -6254683.02746  22703212.380    22703216.4814   22703223.8464
      3964.507        3089.226
  -6037909.751 9  -4695760.09548  20440501.113    20440504.1744   20440509.5074
      -307.603        -239.691
  -8982981.065 9  -6977826.91346  22871117.672    22871121.3014   22871127.6394
      3686.196        2872.361
 -21960440.603 9 -17092529.09848  19334591.307    19334594.7484   19334600.0134
       194.012         151.178
   5407884.180 9   4221808.71347  21436926.410    21436929.9124   21436936.2204
     -2750.776       -2143.462
 -15206782.506 9 -11830367.53048  21971221.306    21971225.3224   21971230.9094
      -835.659        -651.163
  -9564091.448 9  -7431934.40646  23359671.334    23359675.0024   23359681.9794
     -1611.059       -1255.371
 97  5  1 17 53 59.9970000  0  7  4  2  9  7 27 26 15               -0.002953933
  -8175918.611 9  -6347335.65846  22680585.525    22680589.6174   22680597.0014
      3961.794        3087.112
  -6028591.970 9  -4688499.49948  20442274.277    20442277.3184   20442282.6364
      -314.123        -244.771
  -9093507.886 9  -7063951.65246  22850084.980    22850088.7294   22850095.0114
      3681.740        2868.888
 -21966066.698 9 -17096913.06948  19333520.748    19333524.1494   19333529.4134
       180.550         140.688
   5490553.315 9   4286226.16947  21452657.892    21452661.3894   21452667.7124
     -2761.138       -2151.536
 -15181517.238 9 -11810680.32848  21976029.161    21976033.1884   21976038.7984
      -849.213        -661.724
  -9515531.189 9  -7394095.28545  23368912.076    23368915.6924   23368922.7304
     -1626.888       -1267.705
 97  5  1 17 54 29.9970000  0  7  4  2  9  7 27 26 15               -0.002963351
  -8294720.277 9  -6439908.28946  22657978.339    22657982.4054   22657989.7494
      3958.484        3084.533
  -6019057.922 9  -4681070.37948  20444088.553    20444091.6054   20444096.9234
      -321.200        -250.286
  -9203880.153 9  -7149955.95846  22829081.779    22829085.5434   22829091.8514
      3676.642        2864.916
 -21971264.173 9 -17100963.04948  19332531.666    19332535.1084   19332540.3594
       166.177         129.489
   5573560.944 9   4350907.38147  21468453.716    21468457.2954   21468463.6024
     -2772.479       -2160.373
 -15155832.134 9 -11790665.97848  21980916.887    21980920.8654   21980926.4884
      -863.028        -672.489
  -9466474.889 9  -7355869.65146  23378247.285    23378250.8804   23378258.0024
     -1643.327       -1280.514
 97  5  1 17 54 59.9970000  0  7  4  2  9  7 27 26 15               -0.002972767
  -8413430.462 9  -6532409.64446  22635388.480    22635392.5454   22635399.8624
      3955.775        3082.422
  -6009323.621 9  -4673485.22448  20445940.884    20445944.0014   20445949.3054
      -327.586        -255.262
  -9314106.718 9  -7235846.73746  22808106.351    22808110.0614   22808116.4094
      3671.976        2861.280
 -21976043.830 9 -17104687.45548  19331622.107    19331625.5374   19331630.7834
       152.789         119.056
   5656896.349 9   4415843.98647  21484311.966    21484315.5614   21484321.8724
     -2782.964       -2168.543
 -15129730.711 9 -11770327.22648  21985883.817    21985887.8044   21985893.4824
      -877.031        -683.401
  -9416935.286 9  -7317267.38146  23387674.426    23387677.8654   23387684.9604
     -1659.170       -1292.860
 97  5  1 17 55 29.9970000  0  7  4  2  9  7 27 26 15               -0.002982182
  -8532063.662 9  -6624851.00846  22612813.336    22612817.3324   22612824.5974
      3952.724        3080.045
  -5999404.747 9  -4665756.24248  20447828.447    20447831.5084   20447836.8174
      -333.995        -260.256
  -9424198.268 9  -7321632.29947  22787156.418    22787160.3014   22787166.6554
      3667.150        2857.519
 -21980426.953 9 -17108102.87648  19330788.026    19330791.4454   19330796.7184
       139.023         108.330
   5740539.344 9   4481020.28347  21500228.770    21500232.3884   21500238.6654
     -2793.503       -2176.756
 -15103203.635 9 -11749656.79648  21990931.816    21990935.7734   21990941.4564
      -891.809        -694.916
  -9366926.427 9  -7278299.50146  23397190.737    23397194.3324   23397201.4234
     -1675.204       -1305.354
 97  5  1 17 55 59.9970000  0  7  4  2  9  7 27 26 15               -0.002991596
  -8650602.093 9  -6717218.52646  22590256.109    22590260.1784   22590267.4074
      3949.575        3077.591
  -5989295.599 9  -4657878.99448  20449752.230    20449755.2224   20449760.5404
      -340.250        -265.130
  -9534149.446 9  -7407308.50447  22766233.504    22766237.2764   22766243.6264
      3662.538        2853.926
 -21984391.940 9 -17111192.47548  19330033.532    19330036.9244   19330042.2194
       125.090          97.473
   5824488.105 9   4546434.85547  21516203.756    21516207.3704   21516213.6284
     -2803.400       -2184.468
 -15076235.122 9 -11728642.38748  21996063.782    21996067.7704   21996073.4154
      -906.269        -706.184
  -9316434.641 9  -7238955.26346  23406799.135    23406802.6074   23406809.8004
     -1691.166       -1317.792
 97  5  1 17 56 29.9970000  0  7  4  2  9  7 27 26 15               -0.003001022
  -8769053.805 9  -6809518.48847  22567715.379    22567719.5184   22567726.7004
      3946.791        3075.421
  -5979001.054 9  -4649857.28348  20451711.175    20451714.2284   20451719.5484
      -346.440        -269.953
  -9643967.090 9  -7492880.64447  22745335.865    22745339.6734   22745345.9944
      3658.163        2850.517
 -21987942.413 9 -17113959.07848  19329357.852    19329361.2654   19329366.5804
       111.235          86.677
   5908717.889 9   4612068.39047  21532232.235    21532235.7924   21532242.0724
     -2812.240       -2191.356
 -15048837.541 9 -11707293.64648  22001277.397    22001281.3614   22001287.0444
      -920.682        -717.415
  -9265476.036 9  -7199247.30045  23416496.150    23416499.6644   23416507.0364
     -1706.503       -1329.743
 97  5  1 17 56 59.9960000  0  7  4  2  9  7 27 26 15               -0.003010452
  -8887396.605 9  -6901733.58646  22545195.443    22545199.6054   22545206.7824
      3943.451        3072.819
  -5968503.769 9  -4641677.59148  20453708.790    20453711.8284   20453717.1304
      -352.912        -274.996
  -9753625.825 9  -7578328.96547  22724468.394    22724472.2144   22724478.5634
      3653.124        2846.590
 -21991062.325 9 -17116390.18248  19328764.114    19328767.5494   19328772.9084
        97.243          75.774
   5993224.738 9   4677917.80947  21548313.364    21548316.9454   21548323.2524
     -2821.355       -2198.458
 -15020989.028 9 -11685593.52948  22006576.783    22006580.7424   22006586.4074
      -935.331        -728.829
  -9214041.414 8  -7159168.42346  23426283.717    23426287.4574   23426294.8734
     -1722.138       -1341.926
 97  5  1 17 57 29.9960000  0  7  4  2  9  7 27 26 15               -0.003019888
  -9005639.347 9  -6993870.70246  22522694.519    22522698.7274   22522705.8144
      3939.510        3069.748
  -5957816.033 9  -4633349.49748  20455742.432    20455745.6224   20455750.9424
      -359.613        -280.218
  -9863132.148 9  -7663658.51846  22703630.026    22703633.7734   22703640.1804
      3647.393        2842.124
 -21993763.968 9 -17118495.35648  19328249.995    19328253.4274   19328258.8044
        82.874          64.577
   6078012.870 9   4743986.43547  21564448.065    21564451.6604   21564457.9654
     -2831.226       -2206.150
 -14992709.567 9 -11663557.60548  22011958.184    22011962.1714   22011967.8394
      -949.719        -740.041
  -9162137.674 8  -7118723.97046  23436160.640    23436164.3664   23436171.5854
     -1737.958       -1354.253
 97  5  1 17 57 59.9960000  0  7  4  2  9  7 27 26 15               -0.003029320
  -9123764.125 9  -7085915.89546  22500216.078    22500220.3064   22500227.3104
      3935.217        3066.403
  -5946926.824 9  -4624864.40848  20457814.490    20457817.7914   20457823.1104
      -366.706        -285.745
  -9972458.283 9  -7748847.64646  22682825.808    22682829.6564   22682836.0284
      3640.700        2836.909
 -21996041.017 9 -17120269.68148  19327816.715    19327820.1244   19327825.5214
        68.724          53.551
   6163102.910 9   4810290.29747  21580640.197    21580643.7974   21580650.0864
     -2841.921       -2214.484
 -14964008.986 9 -11641193.54248  22017419.714    22017423.7434   22017429.4194
      -963.944        -751.125
  -9109762.848 8  -7077912.46145  23446127.193    23446130.8874   23446138.2754
     -1753.967       -1366.727
 97  5  1 17 58 29.9960000  0  7  4  2  9  7 27 26 15               -0.003038731
  -9241765.053 9  -7177864.59546  22477761.268    22477765.4344   22477772.4554
      3931.382        3063.415
  -5935831.075 9  -4616218.38048  20459926.063    20459929.2474   20459934.5754
      -372.990        -290.642
 -10081583.808 9  -7833880.46446  22662060.092    22662063.7014   22662070.0654
      3634.293        2831.917
 -21997907.956 9 -17121724.43748  19327461.494    19327464.8484   19327470.2344
        55.507          43.252
   6248512.741 9   4876843.34947  21596893.172    21596896.7944   21596903.0714
     -2852.265       -2222.544
 -14934888.297 9 -11618502.11548  22022961.177    22022965.2374   22022970.9314
      -977.488        -761.679
  -9056918.355 8  -7036734.96345  23456183.383    23456187.0124   23456194.2414
     -1769.206       -1378.602
 97  5  1 17 58 59.9960000  0  7  4  2  9  7 27 26 15               -0.003048118
  -9359635.400 9  -7269711.52247  22455331.149    22455335.3584   22455342.3524
      3926.102        3059.300
  -5924536.052 9  -4607417.06848  20462075.443    20462078.6154   20462083.9594
      -380.703        -296.652
 -10190504.618 9  -7918753.77047  22641333.019    22641336.7364   22641343.0944
      3626.616        2825.935
 -21999368.669 9 -17122862.65548  19327183.460    19327186.8744   19327192.2394
        41.176          32.085
   6334256.764 9   4943656.80947  21613209.744    21613213.3544   21613219.6694
     -2864.634       -2232.182
 -14905353.962 9 -11595488.36247  22028581.449    22028585.4724   22028591.2054
      -992.064        -773.037
  -9003603.456 9  -6995190.94046  23466329.004    23466332.5364   23466339.8234
     -1785.760       -1391.501
 97  5  1 17 59 29.9960000  0  7  4  2  9  7 27 26 15               -0.003057566
  -9477377.047 9  -7361458.17547  22432925.581    22432929.7874   22432936.7044
      3923.438        3057.224
  -5913024.520 9  -4598447.05448  20464265.836    20464269.1614   20464274.4954
      -386.714        -301.336
 -10299225.304 9  -8003471.13647  22620644.169    22620647.8494   22620654.1694
      3621.610        2822.034
 -22000416.996 9 -17123679.53548  19326983.922    19326987.3294   19326992.6754
        28.765          22.414
   6420347.088 9   5010740.12647  21629592.223    21629595.8194   21629602.1684
     -2874.440       -2239.823
 -14875400.488 9 -11572148.00947  22034281.395    22034285.4334   22034291.1994
     -1004.755        -782.926
  -8949814.413 9  -6953277.40445  23476564.648    23476568.3064   23476575.4464
     -1800.059       -1402.643
 97  5  1 17 59 59.9960000  0  7  4  2  9  7 27 26 15               -0.003066890
  -9595000.508 9  -7453112.73147  22410542.647    22410546.6684   22410553.6544
      3919.221        3053.938
  -5901294.085 9  -4589306.46148  20466498.126    20466501.3874   20466506.7374
      -394.173        -307.148
 -10407757.715 9  -8088041.79347  22599991.170    22599994.7824   22600001.1274
      3615.155        2817.004
 -22001056.388 9 -17124177.76448  19326862.233    19326865.6564   19326870.9624
        14.925          11.630
   6506763.084 9   5078077.20747  21646036.638    21646040.2724   21646046.6444
     -2885.381       -2248.349
 -14845025.065 9 -11548478.86547  22040061.657    22040065.6994   22040071.4514
     -1019.157        -794.148
  -8895555.993 8  -6910998.18646  23486889.932    23486893.4894   23486900.7204
     -1816.092       -1415.137
 97  5  1 18  0 29.9960000  0  7  4  2  9  7 27 26 15               -0.003076218
  -9712520.648 9  -7544686.78247  22388179.244    22388183.2664   22388190.1944
      3915.331        3050.907
  -5889369.611 9  -4580014.67148  20468767.157    20468770.5524   20468775.9254
      -400.775        -312.292
 -10516136.868 9  -8172493.02147  22579367.179    22579370.8284   22579377.2064
      3610.156        2813.109
 -22001306.328 9 -17124372.52148  19326814.625    19326818.0574   19326823.3634
         1.566           1.220
   6593465.104 9   5145637.15747  21662535.459    21662539.1624   21662545.5664
     -2894.726       -2255.631
 -14814251.238 9 -11524499.28147  22045917.758    22045921.7584   22045927.5354
     -1032.382        -804.454
  -8840847.680 8  -6868368.33145  23497300.654    23497304.0564   23497311.1274
     -1831.175       -1426.890
 97  5  1 18  0 59.9960000  0  7  4  2  9  7 27 26 15               -0.003085557
  -9829925.863 9  -7636171.26947  22365837.692    22365841.7014   22365848.6304
      3911.706        3048.082
  -5877240.609 9  -4570563.50348  20471075.324    20471078.6364   20471084.0264
      -407.814        -317.777
 -10624370.084 9  -8256830.54247  22558771.110    22558774.6834   22558781.0604
      3605.418        2809.417
 -22001155.481 9 -17124254.98548  19326843.327    19326846.7674   19326852.0764
       -11.545          -8.996
   6680446.258 9   5213414.61547  21679087.467    21679091.1844   21679097.5924
     -2903.779       -2262.685
 -14783085.243 9 -11500214.11347  22051848.447    22051852.4364   22051858.2164
     -1045.305        -814.523
  -8785684.423 8  -6825384.02045  23507798.086    23507801.3844   23507808.5304
     -1846.289       -1438.667
 97  5  1 18  1 29.9960000  0  7  4  2  9  7 27 26 15               -0.003094906
  -9947210.548 9  -7727561.84947  22343519.047    22343523.1064   22343530.0354
      3907.533        3044.831
  -5864895.458 9  -4560943.91448  20473424.580    20473427.8644   20473433.2524
      -414.731        -323.167
 -10732450.771 9  -8341049.20847  22538203.963    22538207.5704   22538213.9114
      3600.342        2805.461
 -22000601.236 9 -17123823.10748  19326948.843    19326952.2464   19326957.5814
       -24.737         -19.276
   6767701.469 9   5281405.62647  21695691.699    21695695.3324   21695701.7664
     -2912.662       -2269.607
 -14751525.789 9 -11475622.35247  22057854.018    22057858.0114   22057863.7934
     -1058.152        -824.534
  -8730062.572 8  -6782042.34846  23518382.652    23518385.9034   23518392.9154
     -1861.434       -1450.468
 97  5  1 18  1 59.9960000  0  7  4  2  9  7 27 26 15               -0.003104261
 -10064362.003 9  -7818848.62647  22321225.789    22321229.8794   22321236.7694
      3902.322        3040.770
  -5852350.872 9  -4551168.91748  20475811.761    20475815.0334   20475820.4274
      -421.876        -328.735
 -10840378.253 9  -8425148.49947  22517666.160    22517669.6924   22517675.8834
      3594.473        2800.888
 -21999663.784 9 -17123092.62848  19327127.246    19327130.6774   19327136.0234
       -38.061         -29.658
   6855215.170 9   5349598.06247  21712345.081    21712348.6794   21712355.1424
     -2922.070       -2276.938
 -14719588.783 9 -11450736.39447  22063931.505    22063935.4354   22063941.2364
     -1071.275        -834.760
  -8673992.023 8  -6738351.07145  23529052.299    23529055.6294   23529063.0434
     -1876.977       -1462.579
 97  5  1 18  2 29.9960000  0  7  4  2  9  7 27 26 15               -0.003113611
 -10181355.076 9  -7910011.96547  22298962.587    22298966.7224   22298973.6344
      3897.403        3036.937
  -5839592.020 9  -4541226.96548  20478239.623    20478242.9424   20478248.3344
      -428.579        -333.958
 -10948138.678 9  -8509117.61047  22497159.943    22497163.5184   22497169.6994
      3589.507        2797.018
 -21998326.929 9 -17122050.93148  19327381.672    19327385.0854   19327390.4384
       -51.061         -39.788
   6943014.312 9   5418012.90247  21729052.879    21729056.3764   21729062.8414
     -2931.216       -2284.064
 -14687257.784 9 -11425543.43247  22070083.910    22070087.8714   22070093.6234
     -1084.191        -844.824
  -8617463.413 8  -6694302.84745  23539809.279    23539812.6784   23539820.0394
     -1891.592       -1473.968
 97  5  1 18  2 59.9960000  0  7  4  2  9  7 27 26 15               -0.003122960
 -10298198.796 9  -8001058.92947  22276727.764    22276732.0454   22276738.9674
      3892.123        3032.823
  -5826622.289 9  -4531120.68848  20480707.547    20480711.0084   20480716.4024
      -436.197        -339.894
 -11055728.817 9  -8592954.02747  22476686.162    22476689.7594   22476695.9214
      3582.961        2791.918
 -21996587.346 9 -17120695.41548  19327712.669    19327716.1084   19327721.4704
       -64.989         -50.641
   7031108.275 9   5486657.48647  21745816.697    21745820.1894   21745826.6324
     -2941.672       -2292.212
 -14654512.525 9 -11400027.66847  22076315.158    22076319.1094   22076324.8464
     -1098.922        -856.303
  -8560483.577 8  -6649903.02245  23550652.190    23550655.4704   23550662.9264
     -1907.191       -1486.123
 97  5  1 18  3 29.9960000  0  7  4  2  9  7 27 26 15               -0.003132305
 -10414897.304 9  -8091992.75547  22254520.752    22254524.9704   22254531.8624
      3887.491        3029.214
  -5813439.363 9  -4520848.29048  20483216.634    20483219.6564   20483225.0434
      -443.035        -345.222
 -11163127.381 9  -8676641.16847  22456248.860    22456252.4464   22456258.6474
      3576.548        2786.921
 -21994431.064 9 -17119015.20248  19328123.006    19328126.4454   19328131.8094
       -78.992         -61.552
   7119501.397 9   5555535.17047  21762637.436    21762640.8954   21762647.3564
     -2951.522       -2299.887
 -14621334.114 9 -11374174.38647  22082628.753    22082632.7344   22082638.4494
     -1113.394        -867.580
  -8503049.888 8  -6605149.53845  23561581.488    23561584.8724   23561592.1844
     -1922.087       -1497.730
 97  5  1 18  3 59.9960000  0  7  4  2  9  7 27 26 15               -0.003141658
 -10531464.420 9  -8182824.19747  22232338.720    22232342.9304   22232349.8124
      3883.629        3026.204
  -5800052.797 9  -4510417.20848  20485763.989    20485767.0174   20485772.4164
      -449.486        -350.249
 -11270325.385 9  -8760172.02847  22435849.656    22435853.2924   22435859.4964
      3569.820        2781.678
 -21991856.353 9 -17117008.94048  19328613.064    19328616.4494   19328621.7844
       -92.869         -72.365
   7208189.837 9   5624642.97547  21779514.326    21779517.8234   21779524.2744
     -2961.327       -2307.528
 -14587718.339 9 -11347980.29747  22089025.569    22089029.5914   22089035.3724
     -1127.639        -878.680
  -8445169.902 8  -6560048.29146  23572595.803    23572599.0654   23572606.5514
     -1936.753       -1509.158
 97  5  1 18  4 29.9960000  0  7  4  2  9  7 27 26 15               -0.003151020
 -10647907.559 9  -8273559.02447  22210180.270    22210184.4934   22210191.3184
      3878.633        3022.311
  -5786466.399 9  -4499830.41748  20488349.432    20488352.4284   20488357.8204
      -456.780        -355.932
 -11377310.352 9  -8843536.88647  22415491.087    22415494.7214   22415500.8764
      3561.870        2775.483
 -21988850.767 9 -17114666.93048  19329185.075    19329188.4204   19329193.7384
      -107.948         -84.115
   7297179.623 9   5693985.59247  21796448.543    21796452.0814   21796458.5484
     -2971.816       -2315.701
 -14553674.367 9 -11321452.54947  22095504.036    22095508.0064   22095513.7714
     -1142.353        -890.145
  -8386838.642 8  -6514595.39445  23583695.886    23583699.1684   23583706.6314
     -1952.535       -1521.456
 97  5  1 18  4 59.9960000  0  7  4  2  9  7 27 26 15               -0.003160378
 -10764213.773 9  -8364187.16847  22188047.810    22188052.1064   22188058.9304
      3874.992        3019.474
  -5772677.879 9  -4489086.12448  20490973.308    20490976.2734   20490981.6424
      -462.218        -360.170
 -11484052.913 9  -8926712.87347  22395178.779    22395182.3054   22395188.3624
      3554.584        2769.806
 -21985414.005 9 -17111988.94148  19329839.066    19329842.4444   19329847.7344
      -120.802         -94.131
   7386465.040 9   5763558.57647  21813439.053    21813442.5724   21813449.0344
     -2980.185       -2322.222
 -14519215.283 9 -11294601.34247  22102061.449    22102065.3824   22102071.1414
     -1154.464        -899.582
  -8328047.144 8  -6468783.89745  23594883.674    23594886.9654   23594894.2554
     -1966.605       -1532.419
 97  5  1 18  5 29.9960000  0  7  4  2  9  7 27 26 15               -0.003169736
 -10880379.432 9  -8454705.79547  22165942.233    22165946.4364   22165953.2744
      3868.598        3014.492
  -5758714.351 9  -4478205.46448  20493630.427    20493633.4454   20493638.8404
      -469.335        -365.716
 -11590562.056 9  -9009706.96147  22374910.795    22374914.2564   22374920.2764
      3545.478        2762.710
 -21981580.012 9 -17109001.41648  19330568.632    19330572.0354   19330577.3164
      -135.261        -105.398
   7476008.821 9   5833332.87747  21830478.609    21830482.2404   21830488.6844
     -2990.050       -2329.909
 -14484393.418 9 -11267467.44447  22108687.888    22108691.7904   22108697.5704
     -1167.593        -909.813
  -8268818.198 8  -6422631.51645  23606154.586    23606157.8994   23606164.9964
     -1982.559       -1544.851
 97  5  1 18  5 59.9960000  0  7  4  2  9  7 27 26 15               -0.003179065
 -10996350.610 9  -8545072.87347  22143873.572    22143877.7734   22143884.6384
      3861.893        3009.267
  -5744546.777 9  -4467165.81048  20496326.247    20496329.4704   20496334.8604
      -476.023        -370.927
 -11696814.869 9  -9092501.32747  22354691.485    22354695.0004   22354700.9714
      3537.357        2756.382
 -21977337.252 9 -17105695.37848  19331375.968    19331379.4094   19331384.6764
      -148.481        -115.699
   7565835.419 9   5903327.56547  21847572.115    21847575.7404   21847582.1774
     -2999.265       -2337.090
 -14449201.660 9 -11240045.32347  22115384.736    22115388.5784   22115394.3944
     -1179.311        -918.944
  -8209126.128 8  -6376118.27645  23617513.588    23617516.9744   23617524.1254
     -1997.700       -1556.649
 97  5  1 18  6 29.9960000  0  7  4  2  9  7 27 26 15               -0.003188369
 -11112109.625 9  -8635274.64747  22121845.347    22121849.5254   22121856.3074
      3855.113        3003.984
  -5730170.558 9  -4455963.57148  20499061.832    20499065.1864   20499070.5834
      -482.643        -376.085
 -11802827.148 9  -9175108.24647  22334518.018    22334521.4894   22334527.4634
      3529.934        2750.598
 -21972691.532 9 -17102075.34048  19332260.092    19332263.4594   19332268.7114
      -161.450        -125.805
   7655936.912 9   5973536.44447  21864717.964    21864721.5494   21864727.9984
     -3007.599       -2343.584
 -14413648.990 9 -11212341.96847  22122150.244    22122154.0634   22122159.8304
     -1191.194        -928.203
  -8148978.800 8  -6329250.24945  23628959.194    23628962.5994   23628969.8514
     -2012.184       -1567.936
 97  5  1 18  6 59.9960000  0  7  4  2  9  7 27 26 15               -0.003197649
 -11227647.476 9  -8725304.07847  22099859.227    22099863.3434   22099870.1054
      3847.621        2998.146
  -5715570.459 9  -4444586.88248  20501840.035    20501843.5224   20501848.9114
      -490.599        -382.285
 -11908606.428 9  -9257533.61447  22314388.865    22314392.3294   22314398.2854
      3522.422        2744.744
 -21967645.577 9 -17098143.43348  19333220.360    19333223.6944   19333228.9124
      -174.882        -136.272
   7746295.446 9   6043945.61147  21881912.685    21881916.2314   21881922.7184
     -3016.243       -2350.319
 -14377718.333 9 -11184344.08047  22128987.643    22128991.4254   22128997.2384
     -1204.139        -938.290
  -8088387.916 8  -6282036.67945  23640489.089    23640492.6564   23640500.1144
     -2027.091       -1579.551
 97  5  1 18  7 29.9960000  0  7  4  2  9  7 27 26 15               -0.003206923
 -11342982.193 9  -8815175.21147  22077911.687    22077915.8054   22077922.5384
      3841.191        2993.136
  -5700736.254 9  -4433027.77348  20504663.031    20504666.3844   20504671.7744
      -498.711        -388.606
 -12014183.202 9  -9339801.19147  22294298.326    22294301.7554   22294307.6374
      3515.784        2739.572
 -21962201.790 9 -17093901.52748  19334256.243    19334259.5934   19334264.8444
      -188.301        -146.728
   7836904.174 9   6114549.75547  21899155.124    21899158.5164   21899165.0474
     -3024.755       -2356.952
 -14341399.305 9 -11156043.57047  22135898.870    22135902.7204   22135908.5484
     -1217.438        -948.653
  -8027366.736 8  -6234487.71345  23652101.132    23652104.6634   23652111.8124
     -2041.363       -1590.672
 97  5  1 18  7 59.9960000  0  7  4  2  9  7 27 26 15               -0.003216183
 -11458111.364 9  -8904886.17347  22056003.245    22056007.3364   22056014.1284
      3834.187        2987.678
  -5685635.398 9  -4421260.88748  20507536.609    20507539.9814   20507545.3854
      -507.977        -395.826
 -12119542.391 9  -9421899.20847  22274249.095    22274252.5694   22274258.4534
      3508.112        2733.594
 -21956335.725 9 -17089330.57648  19335372.537    19335375.8744   19335381.1314
      -202.878        -158.087
   7927791.412 9   6185370.89747  21916450.476    21916453.8834   21916460.3774
     -3034.465       -2364.518
 -14304657.021 9 -11127413.24547  22142890.730    22142894.5604   22142900.3864
     -1232.048        -960.037
  -7965899.248 8  -6186591.03145  23663798.240    23663801.5584   23663808.8994
     -2056.471       -1602.445
 97  5  1 18  8 29.9960000  0  7  4  2  9  7 27 26 15               -0.003225433
 -11573053.943 9  -8994451.77147  22034130.317    22034134.4574   22034141.2174
      3828.558        2983.292
  -5670270.052 9  -4409287.90248  20510460.651    20510463.9204   20510469.3324
      -516.369        -402.365
 -12224680.968 9  -9503825.33447  22254241.881    22254245.3314   22254251.1794
      3500.934        2728.001
 -21950046.293 9 -17084429.72348  19336569.349    19336572.6914   19336577.9564
      -216.418        -168.637
   8018957.752 9   6256409.53047  21933798.818    21933802.3184   21933808.8284
     -3043.389       -2371.472
 -14267484.405 9 -11098447.59847  22149964.432    22149968.2964   22149974.1474
     -1246.013        -970.919
  -7903991.294 9  -6138351.12046  23675578.896    23675582.2784   23675589.7014
     -2070.791       -1613.603
 97  5  1 18  8 59.9960000  0  7  4  2  9  7 27 26 15               -0.003234662
 -11687823.719 9  -9083882.67947  22012290.270    22012294.4694   22012301.1714
      3823.648        2979.466
  -5654643.518 9  -4397111.39748  20513434.272    20513437.5634   20513442.9924
      -524.371        -408.601
 -12329597.071 9  -9585578.10647  22234276.883    22234280.3664   22234286.2094
      3494.246        2722.789
 -21943352.714 9 -17079213.95248  19337843.072    19337846.3844   19337851.6644
      -228.912        -178.373
   8110412.758 9   6327673.09547  21951202.150    21951205.6494   21951212.1924
     -3052.887       -2378.873
 -14229896.478 9 -11069158.33947  22157117.132    22157121.0594   22157126.8934
     -1258.904        -980.964
  -7841644.857 8  -6089769.56245  23687443.023    23687446.3574   23687453.8634
     -2084.886       -1624.586
 97  5  1 18  9 29.9960000  0  7  4  2  9  7 27 26 15               -0.003243865
 -11802439.727 9  -9173193.79547  21990479.626    21990483.7184   21990490.3774
      3817.735        2974.858
  -5638785.258 9  -4384754.32448  20516452.111    20516455.3134   20516460.7494
      -532.419        -414.872
 -12434293.590 9  -9667159.75847  22214353.716    22214357.2184   22214363.0444
      3485.852        2716.248
 -21936277.039 9 -17073700.44848  19339189.496    19339192.8364   19339198.1184
      -242.279        -188.789
   8202168.039 9   6399170.64447  21968662.638    21968666.1634   21968672.7014
     -3063.530       -2387.166
 -14191923.493 9 -11039569.02147  22164343.159    22164347.0674   22164352.9354
     -1272.056        -991.212
  -7778867.907 8  -6040852.45746  23699389.005    23699392.5314   23699399.8354
     -2099.903       -1636.288
 97  5  1 18  9 59.9960000  0  7  4  2  9  7 27 26 15               -0.003253030
 -11916871.245 9  -9262361.14047  21968703.943    21968708.1024   21968714.6724
      3811.307        2969.850
  -5622686.151 9  -4372209.57848  20519515.736    20519518.8594   20519524.3124
      -540.517        -421.182
 -12538742.909 9  -9748548.79947  22194477.637    22194481.1644   22194486.9604
      3477.724        2709.915
 -21928807.266 9 -17067879.85248  19340610.953    19340614.2904   19340619.5834
      -255.395        -199.009
   8294234.951 9   6470911.01847  21986182.406    21986185.9854   21986192.5354
     -3073.927       -2395.268
 -14153573.051 9 -11009685.58647  22171641.003    22171644.9524   22171650.8214
     -1284.258       -1000.721
  -7715645.442 8  -5991588.31446  23711419.960    23711423.1614   23711430.8724
     -2114.675       -1647.799
 97  5  1 18 10 29.9960000  0  7  4  2  9  7 27 26 15               -0.003262168
 -12031126.145 9  -9351390.87347  21946961.968    21946966.0814   21946972.6384
      3806.055        2965.757
  -5606370.164 9  -4359495.83748  20522620.707    20522623.7184   20522629.1734
      -546.681        -425.985
 -12642967.491 9  -9829762.72347  22174644.319    22174647.8754   22174653.6544
      3471.067        2704.727
 -21920967.668 9 -17061771.08548  19342102.763    19342106.1074   19342111.3884
      -266.879        -207.958
   8386589.504 9   6542875.51547  22003756.986    22003760.5054   22003767.1154
     -3082.412       -2401.879
 -14114880.378 9 -10979535.48247  22179003.994    22179007.9444   22179013.8334
     -1294.768       -1008.910
  -7651999.138 8  -5941993.79345  23723531.552    23723534.7594   23723542.1714
     -2127.990       -1658.174
 97  5  1 18 10 59.9960000  0  7  4  2  9  7 27 26 15               -0.003271309
 -12145207.729 9  -9440285.53747  21925252.847    21925257.0204   21925263.5514
      3799.377        2960.553
  -5589863.371 9  -4346633.41248  20525761.669    20525764.8724   20525770.3484
      -553.655        -431.419
 -12746983.393 9  -9910814.03247  22154850.750    22154854.2834   22154860.0874
      3463.336        2698.703
 -21912766.216 9 -17055380.35048  19343663.483    19343666.8184   19343672.0704
      -279.953        -218.145
   8479197.084 9   6615037.19347  22021379.663    22021383.1954   22021389.8784
     -3091.253       -2408.769
 -14075861.466 9 -10949131.16947  22186429.083    22186433.0564   22186438.9334
     -1306.560       -1018.099
  -7587945.404 8  -5892081.84646  23735720.713    23735723.8544   23735731.3374
     -2142.247       -1669.283
 97  5  1 18 11 29.9960000  0  7  4  2  9  7 27 26 15               -0.003280454
 -12259071.110 9  -9529010.17747  21903585.332    21903589.4944   21903596.0234
      3791.354        2954.302
  -5573147.740 9  -4333608.25548  20528942.423    20528945.7374   20528951.2404
      -561.007        -437.148
 -12850758.037 9  -9991677.35747  22135103.051    22135106.5494   22135112.3274
      3454.940        2692.161
 -21904160.863 9 -17048674.88648  19345301.073    19345304.3944   19345309.6524
      -293.908        -229.019
   8572057.167 9   6687395.60647  22039050.240    22039053.9034   22039060.6404
     -3099.535       -2415.222
 -14036477.669 9 -10918442.52347  22193923.574    22193927.5414   22193933.4444
     -1319.171       -1027.925
  -7523464.867 8  -5841837.31545  23747990.950    23747994.1314   23748001.7204
     -2156.650       -1680.506
